<?xml version="1.0" encoding="UTF-8" standalone="no" ?>
<gpx xmlns="http://www.topografix.com/GPX/1/1" xmlns:xsi="http://www.w3.org/2001/XMLSchema-instance" xsi:schemaLocation="http://www.topografix.com/GPX/1/1 http://www.topografix.com/GPX/1/1/gpx.xsd" version="1.1" creator="VisuGPX - https://www.visugpx.com">
  <metadata>
    <name>La Loire à vélo J2</name>
    <desc><![CDATA[Les Ponts de Cé - la gare d'Ancenis]]></desc>
  </metadata>
  <trk>
    <name><![CDATA[49 Mardi1]]></name>
    <desc><![CDATA[À partir de la Piste Active]]></desc>
    <trkseg>
      <trkpt lat="47.42523" lon="-0.52897">
        <ele>77.097656</ele>
        <time>2014-09-02T08:24:50Z</time>
      </trkpt>
      <trkpt lat="47.42547" lon="-0.52943">
        <ele>16.097656</ele>
        <time>2014-09-02T08:24:56Z</time>
      </trkpt>
      <trkpt lat="47.42542" lon="-0.52955">
        <ele>15.097656</ele>
        <time>2014-09-02T08:25:27Z</time>
      </trkpt>
      <trkpt lat="47.4254" lon="-0.5297">
        <ele>10.296875</ele>
        <time>2014-09-02T08:25:32Z</time>
      </trkpt>
      <trkpt lat="47.42531" lon="-0.52968">
        <ele>10.597656</ele>
        <time>2014-09-02T08:25:39Z</time>
      </trkpt>
      <trkpt lat="47.42525" lon="-0.52954">
        <ele>11.597656</ele>
        <time>2014-09-02T08:25:43Z</time>
      </trkpt>
      <trkpt lat="47.42516" lon="-0.52943">
        <ele>12.097656</ele>
        <time>2014-09-02T08:25:47Z</time>
      </trkpt>
      <trkpt lat="47.42508" lon="-0.52936">
        <ele>12</ele>
        <time>2014-09-02T08:25:50Z</time>
      </trkpt>
      <trkpt lat="47.42499" lon="-0.52932">
        <ele>12.398438</ele>
        <time>2014-09-02T08:25:53Z</time>
      </trkpt>
      <trkpt lat="47.4249" lon="-0.52928">
        <ele>12.699219</ele>
        <time>2014-09-02T08:25:56Z</time>
      </trkpt>
      <trkpt lat="47.42481" lon="-0.52927">
        <ele>15.296875</ele>
        <time>2014-09-02T08:26:00Z</time>
      </trkpt>
      <trkpt lat="47.42473" lon="-0.5292">
        <ele>14.398438</ele>
        <time>2014-09-02T08:27:30Z</time>
      </trkpt>
      <trkpt lat="47.42463" lon="-0.52916">
        <ele>13.199219</ele>
        <time>2014-09-02T08:27:36Z</time>
      </trkpt>
      <trkpt lat="47.42452" lon="-0.52914">
        <ele>12.398438</ele>
        <time>2014-09-02T08:27:41Z</time>
      </trkpt>
      <trkpt lat="47.42431" lon="-0.52908">
        <ele>10.097656</ele>
        <time>2014-09-02T08:27:49Z</time>
      </trkpt>
      <trkpt lat="47.42423" lon="-0.52903">
        <ele>9.5</ele>
        <time>2014-09-02T08:27:52Z</time>
      </trkpt>
      <trkpt lat="47.42414" lon="-0.52894">
        <ele>9.398438</ele>
        <time>2014-09-02T08:27:55Z</time>
      </trkpt>
      <trkpt lat="47.42407" lon="-0.52881">
        <ele>9.597656</ele>
        <time>2014-09-02T08:27:58Z</time>
      </trkpt>
      <trkpt lat="47.42401" lon="-0.52863">
        <ele>10</ele>
        <time>2014-09-02T08:28:01Z</time>
      </trkpt>
      <trkpt lat="47.42399" lon="-0.52843">
        <ele>10.398438</ele>
        <time>2014-09-02T08:28:04Z</time>
      </trkpt>
      <trkpt lat="47.42401" lon="-0.52825">
        <ele>10.898438</ele>
        <time>2014-09-02T08:28:07Z</time>
      </trkpt>
      <trkpt lat="47.42407" lon="-0.5281">
        <ele>11.597656</ele>
        <time>2014-09-02T08:28:10Z</time>
      </trkpt>
      <trkpt lat="47.42425" lon="-0.52761">
        <ele>16</ele>
        <time>2014-09-02T08:28:19Z</time>
      </trkpt>
      <trkpt lat="47.42434" lon="-0.52748">
        <ele>16.699219</ele>
        <time>2014-09-02T08:28:22Z</time>
      </trkpt>
      <trkpt lat="47.42439" lon="-0.52731">
        <ele>17</ele>
        <time>2014-09-02T08:28:25Z</time>
      </trkpt>
      <trkpt lat="47.42441" lon="-0.52717">
        <ele>17.597656</ele>
        <time>2014-09-02T08:28:27Z</time>
      </trkpt>
      <trkpt lat="47.42458" lon="-0.52612">
        <ele>22.796875</ele>
        <time>2014-09-02T08:28:45Z</time>
      </trkpt>
      <trkpt lat="47.42462" lon="-0.52596">
        <ele>23.296875</ele>
        <time>2014-09-02T08:28:48Z</time>
      </trkpt>
      <trkpt lat="47.42471" lon="-0.52565">
        <ele>23.699219</ele>
        <time>2014-09-02T08:28:54Z</time>
      </trkpt>
      <trkpt lat="47.42473" lon="-0.52548">
        <ele>23.796875</ele>
        <time>2014-09-02T08:28:57Z</time>
      </trkpt>
      <trkpt lat="47.42472" lon="-0.52531">
        <ele>23.5</ele>
        <time>2014-09-02T08:29:00Z</time>
      </trkpt>
      <trkpt lat="47.42474" lon="-0.52514">
        <ele>23.597656</ele>
        <time>2014-09-02T08:29:03Z</time>
      </trkpt>
      <trkpt lat="47.42485" lon="-0.52509">
        <ele>23.597656</ele>
        <time>2014-09-02T08:29:06Z</time>
      </trkpt>
      <trkpt lat="47.42495" lon="-0.52514">
        <ele>23.097656</ele>
        <time>2014-09-02T08:29:09Z</time>
      </trkpt>
      <trkpt lat="47.42505" lon="-0.52521">
        <ele>23</ele>
        <time>2014-09-02T08:29:12Z</time>
      </trkpt>
      <trkpt lat="47.42819" lon="-0.52743">
        <ele>19.796875</ele>
        <time>2014-09-02T08:30:34Z</time>
      </trkpt>
      <trkpt lat="47.42901" lon="-0.52784">
        <ele>23.199219</ele>
        <time>2014-09-02T08:30:50Z</time>
      </trkpt>
      <trkpt lat="47.42938" lon="-0.52795">
        <ele>29.796875</ele>
        <time>2014-09-02T08:31:13Z</time>
      </trkpt>
      <trkpt lat="47.42947" lon="-0.52796">
        <ele>29.898438</ele>
        <time>2014-09-02T08:31:16Z</time>
      </trkpt>
      <trkpt lat="47.42958" lon="-0.52796">
        <ele>28.199219</ele>
        <time>2014-09-02T08:31:19Z</time>
      </trkpt>
      <trkpt lat="47.42965" lon="-0.52807">
        <ele>27.097656</ele>
        <time>2014-09-02T08:31:33Z</time>
      </trkpt>
      <trkpt lat="47.42964" lon="-0.52822">
        <ele>25.597656</ele>
        <time>2014-09-02T08:31:36Z</time>
      </trkpt>
      <trkpt lat="47.42962" lon="-0.52839">
        <ele>24.796875</ele>
        <time>2014-09-02T08:31:39Z</time>
      </trkpt>
      <trkpt lat="47.42959" lon="-0.52856">
        <ele>24.199219</ele>
        <time>2014-09-02T08:31:42Z</time>
      </trkpt>
      <trkpt lat="47.42963" lon="-0.52872">
        <ele>24.097656</ele>
        <time>2014-09-02T08:31:45Z</time>
      </trkpt>
      <trkpt lat="47.42975" lon="-0.52875">
        <ele>24</ele>
        <time>2014-09-02T08:31:48Z</time>
      </trkpt>
      <trkpt lat="47.43024" lon="-0.52891">
        <ele>26.097656</ele>
        <time>2014-09-02T08:32:00Z</time>
      </trkpt>
      <trkpt lat="47.4303" lon="-0.52903">
        <ele>25.398438</ele>
        <time>2014-09-02T08:32:05Z</time>
      </trkpt>
      <trkpt lat="47.43037" lon="-0.52914">
        <ele>25.199219</ele>
        <time>2014-09-02T08:32:10Z</time>
      </trkpt>
      <trkpt lat="47.43048" lon="-0.52918">
        <ele>24.796875</ele>
        <time>2014-09-02T08:32:14Z</time>
      </trkpt>
      <trkpt lat="47.43059" lon="-0.52921">
        <ele>24.097656</ele>
        <time>2014-09-02T08:32:18Z</time>
      </trkpt>
      <trkpt lat="47.43068" lon="-0.52927">
        <ele>23.898438</ele>
        <time>2014-09-02T08:32:21Z</time>
      </trkpt>
      <trkpt lat="47.4307" lon="-0.52944">
        <ele>23.5</ele>
        <time>2014-09-02T08:32:24Z</time>
      </trkpt>
      <trkpt lat="47.4307" lon="-0.5296">
        <ele>23.097656</ele>
        <time>2014-09-02T08:32:27Z</time>
      </trkpt>
      <trkpt lat="47.43067" lon="-0.53013">
        <ele>21.097656</ele>
        <time>2014-09-02T08:32:36Z</time>
      </trkpt>
      <trkpt lat="47.43065" lon="-0.53028">
        <ele>21</ele>
        <time>2014-09-02T08:32:38Z</time>
      </trkpt>
      <trkpt lat="47.43062" lon="-0.53044">
        <ele>20.796875</ele>
        <time>2014-09-02T08:32:40Z</time>
      </trkpt>
      <trkpt lat="47.43054" lon="-0.53073">
        <ele>20.398438</ele>
        <time>2014-09-02T08:32:44Z</time>
      </trkpt>
      <trkpt lat="47.42883" lon="-0.53673">
        <ele>20.097656</ele>
        <time>2014-09-02T08:34:02Z</time>
      </trkpt>
      <trkpt lat="47.42878" lon="-0.53688">
        <ele>20.097656</ele>
        <time>2014-09-02T08:34:04Z</time>
      </trkpt>
      <trkpt lat="47.42872" lon="-0.53702">
        <ele>20.097656</ele>
        <time>2014-09-02T08:34:06Z</time>
      </trkpt>
      <trkpt lat="47.42866" lon="-0.53717">
        <ele>20.199219</ele>
        <time>2014-09-02T08:34:08Z</time>
      </trkpt>
      <trkpt lat="47.42534" lon="-0.54869">
        <ele>20.398438</ele>
        <time>2014-09-02T08:36:38Z</time>
      </trkpt>
      <trkpt lat="47.42527" lon="-0.54882">
        <ele>20.699219</ele>
        <time>2014-09-02T08:36:40Z</time>
      </trkpt>
      <trkpt lat="47.42519" lon="-0.54894">
        <ele>20.597656</ele>
        <time>2014-09-02T08:36:42Z</time>
      </trkpt>
      <trkpt lat="47.42511" lon="-0.54904">
        <ele>20.5</ele>
        <time>2014-09-02T08:36:44Z</time>
      </trkpt>
      <trkpt lat="47.42419" lon="-0.54999">
        <ele>19.699219</ele>
        <time>2014-09-02T08:37:04Z</time>
      </trkpt>
      <trkpt lat="47.4239" lon="-0.55026">
        <ele>19.597656</ele>
        <time>2014-09-02T08:37:12Z</time>
      </trkpt>
      <trkpt lat="47.42382" lon="-0.55036">
        <ele>19.898438</ele>
        <time>2014-09-02T08:37:15Z</time>
      </trkpt>
      <trkpt lat="47.42375" lon="-0.55048">
        <ele>19.699219</ele>
        <time>2014-09-02T08:37:18Z</time>
      </trkpt>
      <trkpt lat="47.42366" lon="-0.55061">
        <ele>19.398438</ele>
        <time>2014-09-02T08:37:21Z</time>
      </trkpt>
      <trkpt lat="47.42357" lon="-0.55071">
        <ele>19.097656</ele>
        <time>2014-09-02T08:37:24Z</time>
      </trkpt>
      <trkpt lat="47.4235" lon="-0.55083">
        <ele>18.5</ele>
        <time>2014-09-02T08:37:27Z</time>
      </trkpt>
      <trkpt lat="47.42347" lon="-0.55099">
        <ele>17.898438</ele>
        <time>2014-09-02T08:37:30Z</time>
      </trkpt>
      <trkpt lat="47.42348" lon="-0.55113">
        <ele>17.699219</ele>
        <time>2014-09-02T08:37:32Z</time>
      </trkpt>
      <trkpt lat="47.42358" lon="-0.55224">
        <ele>16.398438</ele>
        <time>2014-09-02T08:37:46Z</time>
      </trkpt>
      <trkpt lat="47.42357" lon="-0.55239">
        <ele>16</ele>
        <time>2014-09-02T08:37:48Z</time>
      </trkpt>
      <trkpt lat="47.42352" lon="-0.55254">
        <ele>17</ele>
        <time>2014-09-02T08:37:50Z</time>
      </trkpt>
      <trkpt lat="47.42347" lon="-0.55269">
        <ele>16.5</ele>
        <time>2014-09-02T08:37:52Z</time>
      </trkpt>
      <trkpt lat="47.4234" lon="-0.55282">
        <ele>16.699219</ele>
        <time>2014-09-02T08:37:54Z</time>
      </trkpt>
      <trkpt lat="47.42278" lon="-0.55384">
        <ele>15.597656</ele>
        <time>2014-09-02T08:38:10Z</time>
      </trkpt>
      <trkpt lat="47.42247" lon="-0.55434">
        <ele>15.699219</ele>
        <time>2014-09-02T08:38:18Z</time>
      </trkpt>
      <trkpt lat="47.42218" lon="-0.55487">
        <ele>15.5</ele>
        <time>2014-09-02T08:38:26Z</time>
      </trkpt>
      <trkpt lat="47.42142" lon="-0.55631">
        <ele>13.597656</ele>
        <time>2014-09-02T08:38:48Z</time>
      </trkpt>
      <trkpt lat="47.4213" lon="-0.55659">
        <ele>14</ele>
        <time>2014-09-02T08:38:52Z</time>
      </trkpt>
      <trkpt lat="47.42121" lon="-0.55688">
        <ele>13.898438</ele>
        <time>2014-09-02T08:38:56Z</time>
      </trkpt>
      <trkpt lat="47.42115" lon="-0.55701">
        <ele>12.5</ele>
        <time>2014-09-02T08:38:58Z</time>
      </trkpt>
      <trkpt lat="47.42108" lon="-0.55709">
        <ele>12.5</ele>
        <time>2014-09-02T08:39:00Z</time>
      </trkpt>
      <trkpt lat="47.42099" lon="-0.55712">
        <ele>12.296875</ele>
        <time>2014-09-02T08:39:02Z</time>
      </trkpt>
      <trkpt lat="47.42089" lon="-0.55709">
        <ele>12.097656</ele>
        <time>2014-09-02T08:39:04Z</time>
      </trkpt>
      <trkpt lat="47.42079" lon="-0.55704">
        <ele>11.597656</ele>
        <time>2014-09-02T08:39:06Z</time>
      </trkpt>
      <trkpt lat="47.42067" lon="-0.55696">
        <ele>10.898438</ele>
        <time>2014-09-02T08:39:09Z</time>
      </trkpt>
      <trkpt lat="47.42057" lon="-0.55693">
        <ele>10.796875</ele>
        <time>2014-09-02T08:39:12Z</time>
      </trkpt>
      <trkpt lat="47.42046" lon="-0.557">
        <ele>10.5</ele>
        <time>2014-09-02T08:39:15Z</time>
      </trkpt>
      <trkpt lat="47.42037" lon="-0.55707">
        <ele>10.597656</ele>
        <time>2014-09-02T08:39:17Z</time>
      </trkpt>
      <trkpt lat="47.4203" lon="-0.55718">
        <ele>10.898438</ele>
        <time>2014-09-02T08:39:19Z</time>
      </trkpt>
      <trkpt lat="47.42023" lon="-0.5573">
        <ele>11.097656</ele>
        <time>2014-09-02T08:39:21Z</time>
      </trkpt>
      <trkpt lat="47.42017" lon="-0.55742">
        <ele>11.5</ele>
        <time>2014-09-02T08:39:23Z</time>
      </trkpt>
      <trkpt lat="47.42005" lon="-0.55768">
        <ele>11</ele>
        <time>2014-09-02T08:39:28Z</time>
      </trkpt>
      <trkpt lat="47.41993" lon="-0.558">
        <ele>10.5</ele>
        <time>2014-09-02T08:39:33Z</time>
      </trkpt>
      <trkpt lat="47.41989" lon="-0.55815">
        <ele>10.699219</ele>
        <time>2014-09-02T08:39:35Z</time>
      </trkpt>
      <trkpt lat="47.41985" lon="-0.5583">
        <ele>10.898438</ele>
        <time>2014-09-02T08:39:37Z</time>
      </trkpt>
      <trkpt lat="47.41983" lon="-0.55846">
        <ele>11.097656</ele>
        <time>2014-09-02T08:39:39Z</time>
      </trkpt>
      <trkpt lat="47.41969" lon="-0.55937">
        <ele>13.597656</ele>
        <time>2014-09-02T08:39:51Z</time>
      </trkpt>
      <trkpt lat="47.41971" lon="-0.55952">
        <ele>12.597656</ele>
        <time>2014-09-02T08:39:55Z</time>
      </trkpt>
      <trkpt lat="47.41977" lon="-0.55965">
        <ele>12.699219</ele>
        <time>2014-09-02T08:39:59Z</time>
      </trkpt>
      <trkpt lat="47.41977" lon="-0.5598">
        <ele>13.398438</ele>
        <time>2014-09-02T08:40:02Z</time>
      </trkpt>
      <trkpt lat="47.41975" lon="-0.55996">
        <ele>14</ele>
        <time>2014-09-02T08:40:06Z</time>
      </trkpt>
      <trkpt lat="47.41974" lon="-0.56012">
        <ele>14</ele>
        <time>2014-09-02T08:40:10Z</time>
      </trkpt>
      <trkpt lat="47.41972" lon="-0.56046">
        <ele>14.199219</ele>
        <time>2014-09-02T08:40:15Z</time>
      </trkpt>
      <trkpt lat="47.41958" lon="-0.56308">
        <ele>14.398438</ele>
        <time>2014-09-02T08:40:47Z</time>
      </trkpt>
      <trkpt lat="47.41956" lon="-0.56324">
        <ele>14.699219</ele>
        <time>2014-09-02T08:40:49Z</time>
      </trkpt>
      <trkpt lat="47.41954" lon="-0.5634">
        <ele>14.898438</ele>
        <time>2014-09-02T08:40:51Z</time>
      </trkpt>
      <trkpt lat="47.41951" lon="-0.56372">
        <ele>14.296875</ele>
        <time>2014-09-02T08:40:55Z</time>
      </trkpt>
      <trkpt lat="47.41905" lon="-0.56884">
        <ele>14.398438</ele>
        <time>2014-09-02T08:41:57Z</time>
      </trkpt>
      <trkpt lat="47.41906" lon="-0.56899">
        <ele>14.398438</ele>
        <time>2014-09-02T08:41:59Z</time>
      </trkpt>
      <trkpt lat="47.41915" lon="-0.56909">
        <ele>14.5</ele>
        <time>2014-09-02T08:42:02Z</time>
      </trkpt>
      <trkpt lat="47.41924" lon="-0.56908">
        <ele>14.5</ele>
        <time>2014-09-02T08:42:05Z</time>
      </trkpt>
      <trkpt lat="47.41935" lon="-0.56912">
        <ele>14.5</ele>
        <time>2014-09-02T08:42:09Z</time>
      </trkpt>
      <trkpt lat="47.41945" lon="-0.56915">
        <ele>14.699219</ele>
        <time>2014-09-02T08:42:12Z</time>
      </trkpt>
      <trkpt lat="47.41957" lon="-0.56917">
        <ele>14.898438</ele>
        <time>2014-09-02T08:42:15Z</time>
      </trkpt>
      <trkpt lat="47.41966" lon="-0.56914">
        <ele>15.296875</ele>
        <time>2014-09-02T08:42:17Z</time>
      </trkpt>
      <trkpt lat="47.41975" lon="-0.56911">
        <ele>15.699219</ele>
        <time>2014-09-02T08:42:19Z</time>
      </trkpt>
      <trkpt lat="47.41984" lon="-0.56907">
        <ele>16.097656</ele>
        <time>2014-09-02T08:42:21Z</time>
      </trkpt>
      <trkpt lat="47.41993" lon="-0.56902">
        <ele>16.597656</ele>
        <time>2014-09-02T08:42:23Z</time>
      </trkpt>
      <trkpt lat="47.42002" lon="-0.56899">
        <ele>17.796875</ele>
        <time>2014-09-02T08:42:25Z</time>
      </trkpt>
      <trkpt lat="47.42011" lon="-0.56898">
        <ele>19.199219</ele>
        <time>2014-09-02T08:42:27Z</time>
      </trkpt>
      <trkpt lat="47.4202" lon="-0.56899">
        <ele>20</ele>
        <time>2014-09-02T08:42:29Z</time>
      </trkpt>
      <trkpt lat="47.42065" lon="-0.56905">
        <ele>23.296875</ele>
        <time>2014-09-02T08:42:39Z</time>
      </trkpt>
      <trkpt lat="47.421" lon="-0.56907">
        <ele>25.199219</ele>
        <time>2014-09-02T08:42:47Z</time>
      </trkpt>
      <trkpt lat="47.4211" lon="-0.5691">
        <ele>25.296875</ele>
        <time>2014-09-02T08:42:50Z</time>
      </trkpt>
      <trkpt lat="47.42114" lon="-0.56922">
        <ele>24.796875</ele>
        <time>2014-09-02T08:42:54Z</time>
      </trkpt>
      <trkpt lat="47.42111" lon="-0.56938">
        <ele>24.398438</ele>
        <time>2014-09-02T08:42:57Z</time>
      </trkpt>
      <trkpt lat="47.42106" lon="-0.56951">
        <ele>24</ele>
        <time>2014-09-02T08:42:59Z</time>
      </trkpt>
      <trkpt lat="47.42102" lon="-0.56966">
        <ele>23.699219</ele>
        <time>2014-09-02T08:43:01Z</time>
      </trkpt>
      <trkpt lat="47.42099" lon="-0.56983">
        <ele>23.199219</ele>
        <time>2014-09-02T08:43:03Z</time>
      </trkpt>
      <trkpt lat="47.42094" lon="-0.56999">
        <ele>22.699219</ele>
        <time>2014-09-02T08:43:05Z</time>
      </trkpt>
      <trkpt lat="47.42077" lon="-0.57048">
        <ele>21.398438</ele>
        <time>2014-09-02T08:43:11Z</time>
      </trkpt>
      <trkpt lat="47.42071" lon="-0.57064">
        <ele>21.199219</ele>
        <time>2014-09-02T08:43:13Z</time>
      </trkpt>
      <trkpt lat="47.42063" lon="-0.57079">
        <ele>21</ele>
        <time>2014-09-02T08:43:15Z</time>
      </trkpt>
      <trkpt lat="47.42057" lon="-0.57096">
        <ele>20.699219</ele>
        <time>2014-09-02T08:43:17Z</time>
      </trkpt>
      <trkpt lat="47.41968" lon="-0.57345">
        <ele>17.597656</ele>
        <time>2014-09-02T08:43:47Z</time>
      </trkpt>
      <trkpt lat="47.41961" lon="-0.57358">
        <ele>17.097656</ele>
        <time>2014-09-02T08:43:49Z</time>
      </trkpt>
      <trkpt lat="47.41953" lon="-0.57371">
        <ele>17.199219</ele>
        <time>2014-09-02T08:43:51Z</time>
      </trkpt>
      <trkpt lat="47.41927" lon="-0.57407">
        <ele>16.597656</ele>
        <time>2014-09-02T08:43:57Z</time>
      </trkpt>
      <trkpt lat="47.4192" lon="-0.57422">
        <ele>16.199219</ele>
        <time>2014-09-02T08:43:59Z</time>
      </trkpt>
      <trkpt lat="47.41903" lon="-0.57453">
        <ele>15.398438</ele>
        <time>2014-09-02T08:44:03Z</time>
      </trkpt>
      <trkpt lat="47.4186" lon="-0.5752">
        <ele>16.296875</ele>
        <time>2014-09-02T08:44:13Z</time>
      </trkpt>
      <trkpt lat="47.41855" lon="-0.57533">
        <ele>16.097656</ele>
        <time>2014-09-02T08:44:15Z</time>
      </trkpt>
      <trkpt lat="47.41851" lon="-0.57548">
        <ele>16.5</ele>
        <time>2014-09-02T08:44:17Z</time>
      </trkpt>
      <trkpt lat="47.41804" lon="-0.57743">
        <ele>13.796875</ele>
        <time>2014-09-02T08:44:43Z</time>
      </trkpt>
      <trkpt lat="47.41802" lon="-0.57758">
        <ele>13.898438</ele>
        <time>2014-09-02T08:44:45Z</time>
      </trkpt>
      <trkpt lat="47.41799" lon="-0.57788">
        <ele>14.199219</ele>
        <time>2014-09-02T08:44:49Z</time>
      </trkpt>
      <trkpt lat="47.41797" lon="-0.57804">
        <ele>14.5</ele>
        <time>2014-09-02T08:44:51Z</time>
      </trkpt>
      <trkpt lat="47.41795" lon="-0.57819">
        <ele>14.296875</ele>
        <time>2014-09-02T08:44:53Z</time>
      </trkpt>
      <trkpt lat="47.41775" lon="-0.57942">
        <ele>13.796875</ele>
        <time>2014-09-02T08:45:09Z</time>
      </trkpt>
      <trkpt lat="47.41771" lon="-0.57974">
        <ele>14.296875</ele>
        <time>2014-09-02T08:45:13Z</time>
      </trkpt>
      <trkpt lat="47.41764" lon="-0.58052">
        <ele>14.597656</ele>
        <time>2014-09-02T08:45:23Z</time>
      </trkpt>
      <trkpt lat="47.41763" lon="-0.58068">
        <ele>14.699219</ele>
        <time>2014-09-02T08:45:25Z</time>
      </trkpt>
      <trkpt lat="47.41763" lon="-0.58085">
        <ele>14.796875</ele>
        <time>2014-09-02T08:45:27Z</time>
      </trkpt>
      <trkpt lat="47.41763" lon="-0.58102">
        <ele>14.898438</ele>
        <time>2014-09-02T08:45:29Z</time>
      </trkpt>
      <trkpt lat="47.41768" lon="-0.5825">
        <ele>14.398438</ele>
        <time>2014-09-02T08:45:45Z</time>
      </trkpt>
      <trkpt lat="47.4177" lon="-0.58266">
        <ele>14.097656</ele>
        <time>2014-09-02T08:45:47Z</time>
      </trkpt>
      <trkpt lat="47.41772" lon="-0.58283">
        <ele>13.296875</ele>
        <time>2014-09-02T08:45:50Z</time>
      </trkpt>
      <trkpt lat="47.4177" lon="-0.58299">
        <ele>12.898438</ele>
        <time>2014-09-02T08:45:53Z</time>
      </trkpt>
      <trkpt lat="47.41769" lon="-0.58313">
        <ele>12.898438</ele>
        <time>2014-09-02T08:45:55Z</time>
      </trkpt>
      <trkpt lat="47.41769" lon="-0.58328">
        <ele>12.796875</ele>
        <time>2014-09-02T08:45:57Z</time>
      </trkpt>
      <trkpt lat="47.41765" lon="-0.58469">
        <ele>0.898438</ele>
        <time>2014-09-02T08:46:15Z</time>
      </trkpt>
      <trkpt lat="47.41764" lon="-0.58483">
        <ele>-0.597656</ele>
        <time>2014-09-02T08:46:17Z</time>
      </trkpt>
      <trkpt lat="47.41762" lon="-0.58513">
        <ele>-3.398438</ele>
        <time>2014-09-02T08:46:21Z</time>
      </trkpt>
      <trkpt lat="47.41761" lon="-0.58573">
        <ele>-9.296875</ele>
        <time>2014-09-02T08:46:29Z</time>
      </trkpt>
      <trkpt lat="47.41755" lon="-0.58909">
        <ele>-23.597656</ele>
        <time>2014-09-02T08:47:11Z</time>
      </trkpt>
      <trkpt lat="47.4176" lon="-0.5902">
        <ele>-16.097656</ele>
        <time>2014-09-02T08:47:23Z</time>
      </trkpt>
      <trkpt lat="47.41777" lon="-0.59303">
        <ele>-2.796875</ele>
        <time>2014-09-02T08:47:55Z</time>
      </trkpt>
      <trkpt lat="47.41795" lon="-0.59469">
        <ele>-0.199219</ele>
        <time>2014-09-02T08:48:15Z</time>
      </trkpt>
      <trkpt lat="47.41812" lon="-0.59599">
        <ele>4.796875</ele>
        <time>2014-09-02T08:48:31Z</time>
      </trkpt>
      <trkpt lat="47.41818" lon="-0.59629">
        <ele>6.898438</ele>
        <time>2014-09-02T08:48:38Z</time>
      </trkpt>
      <trkpt lat="47.41829" lon="-0.59634">
        <ele>8</ele>
        <time>2014-09-02T08:48:43Z</time>
      </trkpt>
      <trkpt lat="47.41839" lon="-0.59631">
        <ele>9</ele>
        <time>2014-09-02T08:48:46Z</time>
      </trkpt>
      <trkpt lat="47.41851" lon="-0.5963">
        <ele>9.898438</ele>
        <time>2014-09-02T08:48:49Z</time>
      </trkpt>
      <trkpt lat="47.41862" lon="-0.59641">
        <ele>10.5</ele>
        <time>2014-09-02T08:48:52Z</time>
      </trkpt>
      <trkpt lat="47.41865" lon="-0.59656">
        <ele>10.898438</ele>
        <time>2014-09-02T08:48:54Z</time>
      </trkpt>
      <trkpt lat="47.41866" lon="-0.59671">
        <ele>11.296875</ele>
        <time>2014-09-02T08:48:56Z</time>
      </trkpt>
      <trkpt lat="47.41888" lon="-0.603">
        <ele>15.097656</ele>
        <time>2014-09-02T08:50:12Z</time>
      </trkpt>
      <trkpt lat="47.41906" lon="-0.6043">
        <ele>16.199219</ele>
        <time>2014-09-02T08:50:28Z</time>
      </trkpt>
      <trkpt lat="47.41918" lon="-0.60495">
        <ele>15.699219</ele>
        <time>2014-09-02T08:50:36Z</time>
      </trkpt>
      <trkpt lat="47.41947" lon="-0.60614">
        <ele>15.296875</ele>
        <time>2014-09-02T08:50:52Z</time>
      </trkpt>
      <trkpt lat="47.41948" lon="-0.60628">
        <ele>15.5</ele>
        <time>2014-09-02T08:50:54Z</time>
      </trkpt>
      <trkpt lat="47.41957" lon="-0.60633">
        <ele>15.398438</ele>
        <time>2014-09-02T08:50:59Z</time>
      </trkpt>
      <trkpt lat="47.41966" lon="-0.60643">
        <ele>15</ele>
        <time>2014-09-02T08:51:03Z</time>
      </trkpt>
      <trkpt lat="47.41971" lon="-0.60661">
        <ele>15</ele>
        <time>2014-09-02T08:51:06Z</time>
      </trkpt>
      <trkpt lat="47.41975" lon="-0.60674">
        <ele>15</ele>
        <time>2014-09-02T08:51:08Z</time>
      </trkpt>
      <trkpt lat="47.42063" lon="-0.60921">
        <ele>16</ele>
        <time>2014-09-02T08:51:44Z</time>
      </trkpt>
      <trkpt lat="47.4208" lon="-0.60967">
        <ele>14.699219</ele>
        <time>2014-09-02T08:51:50Z</time>
      </trkpt>
      <trkpt lat="47.42087" lon="-0.60979">
        <ele>14.398438</ele>
        <time>2014-09-02T08:51:52Z</time>
      </trkpt>
      <trkpt lat="47.42096" lon="-0.60984">
        <ele>14.296875</ele>
        <time>2014-09-02T08:51:54Z</time>
      </trkpt>
      <trkpt lat="47.42106" lon="-0.60988">
        <ele>14.097656</ele>
        <time>2014-09-02T08:51:56Z</time>
      </trkpt>
      <trkpt lat="47.42116" lon="-0.61002">
        <ele>14.097656</ele>
        <time>2014-09-02T08:51:59Z</time>
      </trkpt>
      <trkpt lat="47.42124" lon="-0.61009">
        <ele>14.296875</ele>
        <time>2014-09-02T08:52:01Z</time>
      </trkpt>
      <trkpt lat="47.42133" lon="-0.61014">
        <ele>14.199219</ele>
        <time>2014-09-02T08:52:03Z</time>
      </trkpt>
      <trkpt lat="47.42144" lon="-0.61011">
        <ele>13.5</ele>
        <time>2014-09-02T08:52:06Z</time>
      </trkpt>
      <trkpt lat="47.42154" lon="-0.61001">
        <ele>13.097656</ele>
        <time>2014-09-02T08:52:09Z</time>
      </trkpt>
      <trkpt lat="47.42157" lon="-0.60988">
        <ele>12.5</ele>
        <time>2014-09-02T08:52:11Z</time>
      </trkpt>
      <trkpt lat="47.42158" lon="-0.60974">
        <ele>11.796875</ele>
        <time>2014-09-02T08:52:13Z</time>
      </trkpt>
      <trkpt lat="47.42163" lon="-0.60944">
        <ele>11.5</ele>
        <time>2014-09-02T08:52:19Z</time>
      </trkpt>
      <trkpt lat="47.42165" lon="-0.6093">
        <ele>11.296875</ele>
        <time>2014-09-02T08:52:22Z</time>
      </trkpt>
      <trkpt lat="47.42167" lon="-0.60915">
        <ele>9.535156</ele>
        <time>2014-09-02T08:52:26Z</time>
      </trkpt>
      <trkpt lat="47.42166" lon="-0.60928">
        <ele>25.199219</ele>
        <time>2014-09-02T08:54:55Z</time>
      </trkpt>
      <trkpt lat="47.42159" lon="-0.60918">
        <ele>23.5</ele>
        <time>2014-09-02T08:57:08Z</time>
      </trkpt>
      <trkpt lat="47.42149" lon="-0.60919">
        <ele>22</ele>
        <time>2014-09-02T08:57:11Z</time>
      </trkpt>
      <trkpt lat="47.42138" lon="-0.60915">
        <ele>21</ele>
        <time>2014-09-02T08:57:14Z</time>
      </trkpt>
      <trkpt lat="47.42128" lon="-0.60909">
        <ele>20.398438</ele>
        <time>2014-09-02T08:57:17Z</time>
      </trkpt>
      <trkpt lat="47.42118" lon="-0.60912">
        <ele>19.597656</ele>
        <time>2014-09-02T08:57:20Z</time>
      </trkpt>
      <trkpt lat="47.42111" lon="-0.60921">
        <ele>19</ele>
        <time>2014-09-02T08:57:23Z</time>
      </trkpt>
      <trkpt lat="47.42101" lon="-0.60925">
        <ele>18.398438</ele>
        <time>2014-09-02T08:57:26Z</time>
      </trkpt>
      <trkpt lat="47.42078" lon="-0.60932">
        <ele>16.898438</ele>
        <time>2014-09-02T08:57:32Z</time>
      </trkpt>
      <trkpt lat="47.42066" lon="-0.60939">
        <ele>15.796875</ele>
        <time>2014-09-02T08:57:35Z</time>
      </trkpt>
      <trkpt lat="47.42054" lon="-0.6095">
        <ele>15.597656</ele>
        <time>2014-09-02T08:57:38Z</time>
      </trkpt>
      <trkpt lat="47.42046" lon="-0.60956">
        <ele>15.398438</ele>
        <time>2014-09-02T08:57:40Z</time>
      </trkpt>
      <trkpt lat="47.42034" lon="-0.60964">
        <ele>15.199219</ele>
        <time>2014-09-02T08:57:43Z</time>
      </trkpt>
      <trkpt lat="47.42016" lon="-0.60972">
        <ele>14.699219</ele>
        <time>2014-09-02T08:57:47Z</time>
      </trkpt>
      <trkpt lat="47.41911" lon="-0.6103">
        <ele>13.097656</ele>
        <time>2014-09-02T08:58:07Z</time>
      </trkpt>
      <trkpt lat="47.41902" lon="-0.61037">
        <ele>13</ele>
        <time>2014-09-02T08:58:09Z</time>
      </trkpt>
      <trkpt lat="47.41892" lon="-0.61045">
        <ele>12.796875</ele>
        <time>2014-09-02T08:58:11Z</time>
      </trkpt>
      <trkpt lat="47.41785" lon="-0.61141">
        <ele>11.898438</ele>
        <time>2014-09-02T08:58:33Z</time>
      </trkpt>
      <trkpt lat="47.41777" lon="-0.61152">
        <ele>11.898438</ele>
        <time>2014-09-02T08:58:35Z</time>
      </trkpt>
      <trkpt lat="47.41685" lon="-0.61269">
        <ele>11.597656</ele>
        <time>2014-09-02T08:58:57Z</time>
      </trkpt>
      <trkpt lat="47.41677" lon="-0.61283">
        <ele>9.296875</ele>
        <time>2014-09-02T08:59:00Z</time>
      </trkpt>
      <trkpt lat="47.41679" lon="-0.61297">
        <ele>7.898438</ele>
        <time>2014-09-02T08:59:05Z</time>
      </trkpt>
      <trkpt lat="47.41687" lon="-0.61303">
        <ele>7.898438</ele>
        <time>2014-09-02T08:59:08Z</time>
      </trkpt>
      <trkpt lat="47.41717" lon="-0.61322">
        <ele>8.796875</ele>
        <time>2014-09-02T08:59:15Z</time>
      </trkpt>
      <trkpt lat="47.41725" lon="-0.61331">
        <ele>9.699219</ele>
        <time>2014-09-02T08:59:18Z</time>
      </trkpt>
      <trkpt lat="47.41725" lon="-0.61345">
        <ele>10.296875</ele>
        <time>2014-09-02T08:59:22Z</time>
      </trkpt>
      <trkpt lat="47.41715" lon="-0.61351">
        <ele>10.296875</ele>
        <time>2014-09-02T08:59:25Z</time>
      </trkpt>
      <trkpt lat="47.41706" lon="-0.61355">
        <ele>9.898438</ele>
        <time>2014-09-02T08:59:27Z</time>
      </trkpt>
      <trkpt lat="47.41686" lon="-0.61364">
        <ele>9.699219</ele>
        <time>2014-09-02T08:59:31Z</time>
      </trkpt>
      <trkpt lat="47.41635" lon="-0.61391">
        <ele>12</ele>
        <time>2014-09-02T08:59:41Z</time>
      </trkpt>
      <trkpt lat="47.41618" lon="-0.61403">
        <ele>12.5</ele>
        <time>2014-09-02T08:59:45Z</time>
      </trkpt>
      <trkpt lat="47.41593" lon="-0.61425">
        <ele>13.199219</ele>
        <time>2014-09-02T08:59:51Z</time>
      </trkpt>
      <trkpt lat="47.41584" lon="-0.61433">
        <ele>13.199219</ele>
        <time>2014-09-02T08:59:53Z</time>
      </trkpt>
      <trkpt lat="47.41566" lon="-0.61447">
        <ele>13.398438</ele>
        <time>2014-09-02T08:59:58Z</time>
      </trkpt>
      <trkpt lat="47.41555" lon="-0.61451">
        <ele>13.199219</ele>
        <time>2014-09-02T09:00:01Z</time>
      </trkpt>
      <trkpt lat="47.41543" lon="-0.61451">
        <ele>13.097656</ele>
        <time>2014-09-02T09:00:04Z</time>
      </trkpt>
      <trkpt lat="47.41534" lon="-0.61456">
        <ele>12.597656</ele>
        <time>2014-09-02T09:00:06Z</time>
      </trkpt>
      <trkpt lat="47.41434" lon="-0.61515">
        <ele>11.597656</ele>
        <time>2014-09-02T09:00:24Z</time>
      </trkpt>
      <trkpt lat="47.41405" lon="-0.61535">
        <ele>11</ele>
        <time>2014-09-02T09:00:30Z</time>
      </trkpt>
      <trkpt lat="47.41321" lon="-0.61605">
        <ele>11.898438</ele>
        <time>2014-09-02T09:00:49Z</time>
      </trkpt>
      <trkpt lat="47.41312" lon="-0.61614">
        <ele>12</ele>
        <time>2014-09-02T09:00:51Z</time>
      </trkpt>
      <trkpt lat="47.41295" lon="-0.61636">
        <ele>12.398438</ele>
        <time>2014-09-02T09:00:55Z</time>
      </trkpt>
      <trkpt lat="47.41285" lon="-0.61644">
        <ele>12.199219</ele>
        <time>2014-09-02T09:00:57Z</time>
      </trkpt>
      <trkpt lat="47.41275" lon="-0.61649">
        <ele>12</ele>
        <time>2014-09-02T09:00:59Z</time>
      </trkpt>
      <trkpt lat="47.4123" lon="-0.61663">
        <ele>11.5</ele>
        <time>2014-09-02T09:01:07Z</time>
      </trkpt>
      <trkpt lat="47.41098" lon="-0.6171">
        <ele>13.398438</ele>
        <time>2014-09-02T09:01:34Z</time>
      </trkpt>
      <trkpt lat="47.41089" lon="-0.61715">
        <ele>13.699219</ele>
        <time>2014-09-02T09:01:36Z</time>
      </trkpt>
      <trkpt lat="47.41072" lon="-0.61726">
        <ele>14.699219</ele>
        <time>2014-09-02T09:01:40Z</time>
      </trkpt>
      <trkpt lat="47.41063" lon="-0.61729">
        <ele>15</ele>
        <time>2014-09-02T09:01:42Z</time>
      </trkpt>
      <trkpt lat="47.41042" lon="-0.61732">
        <ele>15.296875</ele>
        <time>2014-09-02T09:01:46Z</time>
      </trkpt>
      <trkpt lat="47.41009" lon="-0.61738">
        <ele>15</ele>
        <time>2014-09-02T09:01:52Z</time>
      </trkpt>
      <trkpt lat="47.40998" lon="-0.61743">
        <ele>15.296875</ele>
        <time>2014-09-02T09:01:54Z</time>
      </trkpt>
      <trkpt lat="47.40968" lon="-0.61759">
        <ele>15.398438</ele>
        <time>2014-09-02T09:02:01Z</time>
      </trkpt>
      <trkpt lat="47.40946" lon="-0.61767">
        <ele>15.5</ele>
        <time>2014-09-02T09:02:07Z</time>
      </trkpt>
      <trkpt lat="47.40934" lon="-0.61776">
        <ele>15.597656</ele>
        <time>2014-09-02T09:02:10Z</time>
      </trkpt>
      <trkpt lat="47.40925" lon="-0.61786">
        <ele>15</ele>
        <time>2014-09-02T09:02:13Z</time>
      </trkpt>
      <trkpt lat="47.40917" lon="-0.61794">
        <ele>14</ele>
        <time>2014-09-02T09:02:17Z</time>
      </trkpt>
      <trkpt lat="47.40909" lon="-0.61806">
        <ele>13.796875</ele>
        <time>2014-09-02T09:02:22Z</time>
      </trkpt>
      <trkpt lat="47.40899" lon="-0.61815">
        <ele>13</ele>
        <time>2014-09-02T09:02:25Z</time>
      </trkpt>
      <trkpt lat="47.40887" lon="-0.61822">
        <ele>13.097656</ele>
        <time>2014-09-02T09:02:28Z</time>
      </trkpt>
      <trkpt lat="47.40859" lon="-0.61839">
        <ele>14.097656</ele>
        <time>2014-09-02T09:02:37Z</time>
      </trkpt>
      <trkpt lat="47.40851" lon="-0.61851">
        <ele>14.097656</ele>
        <time>2014-09-02T09:02:41Z</time>
      </trkpt>
      <trkpt lat="47.40854" lon="-0.61865">
        <ele>12.898438</ele>
        <time>2014-09-02T09:02:44Z</time>
      </trkpt>
      <trkpt lat="47.40858" lon="-0.61881">
        <ele>13.097656</ele>
        <time>2014-09-02T09:02:47Z</time>
      </trkpt>
      <trkpt lat="47.40858" lon="-0.61895">
        <ele>14.398438</ele>
        <time>2014-09-02T09:02:50Z</time>
      </trkpt>
      <trkpt lat="47.40847" lon="-0.61904">
        <ele>14.5</ele>
        <time>2014-09-02T09:02:54Z</time>
      </trkpt>
      <trkpt lat="47.40836" lon="-0.61912">
        <ele>14.398438</ele>
        <time>2014-09-02T09:02:57Z</time>
      </trkpt>
      <trkpt lat="47.40824" lon="-0.61918">
        <ele>13.796875</ele>
        <time>2014-09-02T09:03:00Z</time>
      </trkpt>
      <trkpt lat="47.40818" lon="-0.6193">
        <ele>14.398438</ele>
        <time>2014-09-02T09:03:04Z</time>
      </trkpt>
      <trkpt lat="47.40821" lon="-0.61943">
        <ele>15.199219</ele>
        <time>2014-09-02T09:03:07Z</time>
      </trkpt>
      <trkpt lat="47.40829" lon="-0.61992">
        <ele>18.398438</ele>
        <time>2014-09-02T09:03:15Z</time>
      </trkpt>
      <trkpt lat="47.40826" lon="-0.62006">
        <ele>19.097656</ele>
        <time>2014-09-02T09:03:19Z</time>
      </trkpt>
      <trkpt lat="47.40817" lon="-0.62013">
        <ele>19.398438</ele>
        <time>2014-09-02T09:03:22Z</time>
      </trkpt>
      <trkpt lat="47.40808" lon="-0.62017">
        <ele>19.597656</ele>
        <time>2014-09-02T09:03:24Z</time>
      </trkpt>
      <trkpt lat="47.40779" lon="-0.62031">
        <ele>20.597656</ele>
        <time>2014-09-02T09:03:30Z</time>
      </trkpt>
      <trkpt lat="47.40744" lon="-0.62055">
        <ele>21.097656</ele>
        <time>2014-09-02T09:03:38Z</time>
      </trkpt>
      <trkpt lat="47.40735" lon="-0.62062">
        <ele>21.398438</ele>
        <time>2014-09-02T09:03:40Z</time>
      </trkpt>
      <trkpt lat="47.40725" lon="-0.62067">
        <ele>21.398438</ele>
        <time>2014-09-02T09:03:42Z</time>
      </trkpt>
      <trkpt lat="47.40715" lon="-0.6207">
        <ele>21.199219</ele>
        <time>2014-09-02T09:03:44Z</time>
      </trkpt>
      <trkpt lat="47.40704" lon="-0.62072">
        <ele>21</ele>
        <time>2014-09-02T09:03:46Z</time>
      </trkpt>
      <trkpt lat="47.40695" lon="-0.62077">
        <ele>20.199219</ele>
        <time>2014-09-02T09:03:48Z</time>
      </trkpt>
      <trkpt lat="47.40686" lon="-0.62084">
        <ele>18.597656</ele>
        <time>2014-09-02T09:03:50Z</time>
      </trkpt>
      <trkpt lat="47.40677" lon="-0.62092">
        <ele>16.796875</ele>
        <time>2014-09-02T09:03:52Z</time>
      </trkpt>
      <trkpt lat="47.40665" lon="-0.62099">
        <ele>16.097656</ele>
        <time>2014-09-02T09:03:54Z</time>
      </trkpt>
      <trkpt lat="47.40656" lon="-0.6211">
        <ele>15.398438</ele>
        <time>2014-09-02T09:03:56Z</time>
      </trkpt>
      <trkpt lat="47.40649" lon="-0.62121">
        <ele>15.199219</ele>
        <time>2014-09-02T09:03:58Z</time>
      </trkpt>
      <trkpt lat="47.40634" lon="-0.62147">
        <ele>14.5</ele>
        <time>2014-09-02T09:04:02Z</time>
      </trkpt>
      <trkpt lat="47.40628" lon="-0.62159">
        <ele>14.597656</ele>
        <time>2014-09-02T09:04:04Z</time>
      </trkpt>
      <trkpt lat="47.40627" lon="-0.62172">
        <ele>14.699219</ele>
        <time>2014-09-02T09:04:06Z</time>
      </trkpt>
      <trkpt lat="47.40627" lon="-0.62186">
        <ele>14.796875</ele>
        <time>2014-09-02T09:04:08Z</time>
      </trkpt>
      <trkpt lat="47.40626" lon="-0.62201">
        <ele>14.898438</ele>
        <time>2014-09-02T09:04:10Z</time>
      </trkpt>
      <trkpt lat="47.40622" lon="-0.62262">
        <ele>14.199219</ele>
        <time>2014-09-02T09:04:18Z</time>
      </trkpt>
      <trkpt lat="47.40619" lon="-0.6228">
        <ele>14.5</ele>
        <time>2014-09-02T09:04:21Z</time>
      </trkpt>
      <trkpt lat="47.40609" lon="-0.62285">
        <ele>15.398438</ele>
        <time>2014-09-02T09:04:24Z</time>
      </trkpt>
      <trkpt lat="47.40599" lon="-0.62285">
        <ele>16.199219</ele>
        <time>2014-09-02T09:04:27Z</time>
      </trkpt>
      <trkpt lat="47.40586" lon="-0.62289">
        <ele>16.699219</ele>
        <time>2014-09-02T09:04:30Z</time>
      </trkpt>
      <trkpt lat="47.40559" lon="-0.62297">
        <ele>19.097656</ele>
        <time>2014-09-02T09:04:36Z</time>
      </trkpt>
      <trkpt lat="47.40546" lon="-0.62304">
        <ele>20.097656</ele>
        <time>2014-09-02T09:04:39Z</time>
      </trkpt>
      <trkpt lat="47.40537" lon="-0.62317">
        <ele>21.199219</ele>
        <time>2014-09-02T09:04:42Z</time>
      </trkpt>
      <trkpt lat="47.40531" lon="-0.62334">
        <ele>22</ele>
        <time>2014-09-02T09:04:45Z</time>
      </trkpt>
      <trkpt lat="47.40525" lon="-0.62351">
        <ele>23.097656</ele>
        <time>2014-09-02T09:04:48Z</time>
      </trkpt>
      <trkpt lat="47.40517" lon="-0.62367">
        <ele>24.097656</ele>
        <time>2014-09-02T09:04:51Z</time>
      </trkpt>
      <trkpt lat="47.40507" lon="-0.62379">
        <ele>25.097656</ele>
        <time>2014-09-02T09:04:54Z</time>
      </trkpt>
      <trkpt lat="47.40474" lon="-0.62411">
        <ele>27.699219</ele>
        <time>2014-09-02T09:05:03Z</time>
      </trkpt>
      <trkpt lat="47.40464" lon="-0.6242">
        <ele>29</ele>
        <time>2014-09-02T09:05:06Z</time>
      </trkpt>
      <trkpt lat="47.40452" lon="-0.62429">
        <ele>30</ele>
        <time>2014-09-02T09:05:09Z</time>
      </trkpt>
      <trkpt lat="47.40442" lon="-0.62439">
        <ele>31.199219</ele>
        <time>2014-09-02T09:05:12Z</time>
      </trkpt>
      <trkpt lat="47.40412" lon="-0.6247">
        <ele>35.597656</ele>
        <time>2014-09-02T09:05:21Z</time>
      </trkpt>
      <trkpt lat="47.40404" lon="-0.62481">
        <ele>37</ele>
        <time>2014-09-02T09:05:24Z</time>
      </trkpt>
      <trkpt lat="47.40396" lon="-0.62493">
        <ele>38.5</ele>
        <time>2014-09-02T09:05:27Z</time>
      </trkpt>
      <trkpt lat="47.40389" lon="-0.62506">
        <ele>39.898438</ele>
        <time>2014-09-02T09:05:30Z</time>
      </trkpt>
      <trkpt lat="47.40362" lon="-0.62559">
        <ele>45.699219</ele>
        <time>2014-09-02T09:05:42Z</time>
      </trkpt>
      <trkpt lat="47.40354" lon="-0.62571">
        <ele>46.898438</ele>
        <time>2014-09-02T09:05:45Z</time>
      </trkpt>
      <trkpt lat="47.40337" lon="-0.62598">
        <ele>48.597656</ele>
        <time>2014-09-02T09:05:51Z</time>
      </trkpt>
      <trkpt lat="47.40282" lon="-0.62685">
        <ele>52.597656</ele>
        <time>2014-09-02T09:06:08Z</time>
      </trkpt>
      <trkpt lat="47.40272" lon="-0.62698">
        <ele>53.398438</ele>
        <time>2014-09-02T09:06:11Z</time>
      </trkpt>
      <trkpt lat="47.40264" lon="-0.62711">
        <ele>54.097656</ele>
        <time>2014-09-02T09:06:14Z</time>
      </trkpt>
      <trkpt lat="47.40164" lon="-0.62866">
        <ele>54.199219</ele>
        <time>2014-09-02T09:06:42Z</time>
      </trkpt>
      <trkpt lat="47.40145" lon="-0.62892">
        <ele>53.5</ele>
        <time>2014-09-02T09:06:46Z</time>
      </trkpt>
      <trkpt lat="47.401" lon="-0.62946">
        <ele>51.898438</ele>
        <time>2014-09-02T09:06:54Z</time>
      </trkpt>
      <trkpt lat="47.40089" lon="-0.62963">
        <ele>51.5</ele>
        <time>2014-09-02T09:06:56Z</time>
      </trkpt>
      <trkpt lat="47.40079" lon="-0.6298">
        <ele>51.398438</ele>
        <time>2014-09-02T09:06:58Z</time>
      </trkpt>
      <trkpt lat="47.4007" lon="-0.62999">
        <ele>51.199219</ele>
        <time>2014-09-02T09:07:00Z</time>
      </trkpt>
      <trkpt lat="47.40013" lon="-0.63124">
        <ele>50.5</ele>
        <time>2014-09-02T09:07:14Z</time>
      </trkpt>
      <trkpt lat="47.4" lon="-0.63162">
        <ele>49.5</ele>
        <time>2014-09-02T09:07:18Z</time>
      </trkpt>
      <trkpt lat="47.39991" lon="-0.63178">
        <ele>48.398438</ele>
        <time>2014-09-02T09:07:20Z</time>
      </trkpt>
      <trkpt lat="47.39978" lon="-0.63187">
        <ele>47.296875</ele>
        <time>2014-09-02T09:07:22Z</time>
      </trkpt>
      <trkpt lat="47.39961" lon="-0.6319">
        <ele>46.597656</ele>
        <time>2014-09-02T09:07:24Z</time>
      </trkpt>
      <trkpt lat="47.39944" lon="-0.63189">
        <ele>46.199219</ele>
        <time>2014-09-02T09:07:26Z</time>
      </trkpt>
      <trkpt lat="47.39907" lon="-0.63186">
        <ele>45.796875</ele>
        <time>2014-09-02T09:07:30Z</time>
      </trkpt>
      <trkpt lat="47.39898" lon="-0.63187">
        <ele>45.699219</ele>
        <time>2014-09-02T09:07:31Z</time>
      </trkpt>
      <trkpt lat="47.39889" lon="-0.63188">
        <ele>45.597656</ele>
        <time>2014-09-02T09:07:32Z</time>
      </trkpt>
      <trkpt lat="47.39871" lon="-0.63193">
        <ele>45.699219</ele>
        <time>2014-09-02T09:07:34Z</time>
      </trkpt>
      <trkpt lat="47.39855" lon="-0.632">
        <ele>45.796875</ele>
        <time>2014-09-02T09:07:36Z</time>
      </trkpt>
      <trkpt lat="47.39827" lon="-0.63214">
        <ele>45.796875</ele>
        <time>2014-09-02T09:07:40Z</time>
      </trkpt>
      <trkpt lat="47.39817" lon="-0.63216">
        <ele>45.398438</ele>
        <time>2014-09-02T09:07:42Z</time>
      </trkpt>
      <trkpt lat="47.39812" lon="-0.63205">
        <ele>44</ele>
        <time>2014-09-02T09:07:45Z</time>
      </trkpt>
      <trkpt lat="47.39812" lon="-0.63184">
        <ele>43</ele>
        <time>2014-09-02T09:07:48Z</time>
      </trkpt>
      <trkpt lat="47.3981" lon="-0.63167">
        <ele>42.097656</ele>
        <time>2014-09-02T09:07:50Z</time>
      </trkpt>
      <trkpt lat="47.39805" lon="-0.63129">
        <ele>41</ele>
        <time>2014-09-02T09:07:54Z</time>
      </trkpt>
      <trkpt lat="47.39805" lon="-0.63107">
        <ele>41.199219</ele>
        <time>2014-09-02T09:07:56Z</time>
      </trkpt>
      <trkpt lat="47.39806" lon="-0.63086">
        <ele>41.199219</ele>
        <time>2014-09-02T09:07:58Z</time>
      </trkpt>
      <trkpt lat="47.39811" lon="-0.63023">
        <ele>39.597656</ele>
        <time>2014-09-02T09:08:04Z</time>
      </trkpt>
      <trkpt lat="47.39813" lon="-0.63002">
        <ele>39.597656</ele>
        <time>2014-09-02T09:08:06Z</time>
      </trkpt>
      <trkpt lat="47.39818" lon="-0.62982">
        <ele>39.199219</ele>
        <time>2014-09-02T09:08:08Z</time>
      </trkpt>
      <trkpt lat="47.39823" lon="-0.62965">
        <ele>38.296875</ele>
        <time>2014-09-02T09:08:10Z</time>
      </trkpt>
      <trkpt lat="47.39834" lon="-0.62941">
        <ele>35.597656</ele>
        <time>2014-09-02T09:08:14Z</time>
      </trkpt>
      <trkpt lat="47.39842" lon="-0.62929">
        <ele>34.199219</ele>
        <time>2014-09-02T09:08:16Z</time>
      </trkpt>
      <trkpt lat="47.39862" lon="-0.62899">
        <ele>30.597656</ele>
        <time>2014-09-02T09:08:20Z</time>
      </trkpt>
      <trkpt lat="47.39871" lon="-0.62879">
        <ele>29.699219</ele>
        <time>2014-09-02T09:08:22Z</time>
      </trkpt>
      <trkpt lat="47.39878" lon="-0.62857">
        <ele>29.097656</ele>
        <time>2014-09-02T09:08:24Z</time>
      </trkpt>
      <trkpt lat="47.39882" lon="-0.62833">
        <ele>28.097656</ele>
        <time>2014-09-02T09:08:26Z</time>
      </trkpt>
      <trkpt lat="47.39884" lon="-0.62809">
        <ele>27.199219</ele>
        <time>2014-09-02T09:08:28Z</time>
      </trkpt>
      <trkpt lat="47.39884" lon="-0.62785">
        <ele>26.398438</ele>
        <time>2014-09-02T09:08:30Z</time>
      </trkpt>
      <trkpt lat="47.39881" lon="-0.62761">
        <ele>25.597656</ele>
        <time>2014-09-02T09:08:32Z</time>
      </trkpt>
      <trkpt lat="47.39876" lon="-0.62722">
        <ele>24.597656</ele>
        <time>2014-09-02T09:08:36Z</time>
      </trkpt>
      <trkpt lat="47.3987" lon="-0.62694">
        <ele>24.796875</ele>
        <time>2014-09-02T09:08:40Z</time>
      </trkpt>
      <trkpt lat="47.39865" lon="-0.62681">
        <ele>24.199219</ele>
        <time>2014-09-02T09:08:44Z</time>
      </trkpt>
      <trkpt lat="47.39855" lon="-0.62683">
        <ele>23.699219</ele>
        <time>2014-09-02T09:08:49Z</time>
      </trkpt>
      <trkpt lat="47.39846" lon="-0.62692">
        <ele>23.097656</ele>
        <time>2014-09-02T09:08:52Z</time>
      </trkpt>
      <trkpt lat="47.39696" lon="-0.62826">
        <ele>18.5</ele>
        <time>2014-09-02T09:09:24Z</time>
      </trkpt>
      <trkpt lat="47.39686" lon="-0.62834">
        <ele>18.097656</ele>
        <time>2014-09-02T09:09:26Z</time>
      </trkpt>
      <trkpt lat="47.39675" lon="-0.62839">
        <ele>17.699219</ele>
        <time>2014-09-02T09:09:28Z</time>
      </trkpt>
      <trkpt lat="47.39663" lon="-0.62843">
        <ele>17.597656</ele>
        <time>2014-09-02T09:09:30Z</time>
      </trkpt>
      <trkpt lat="47.39651" lon="-0.62846">
        <ele>17.597656</ele>
        <time>2014-09-02T09:09:32Z</time>
      </trkpt>
      <trkpt lat="47.3964" lon="-0.6285">
        <ele>17.5</ele>
        <time>2014-09-02T09:09:34Z</time>
      </trkpt>
      <trkpt lat="47.39632" lon="-0.62856">
        <ele>17.097656</ele>
        <time>2014-09-02T09:09:36Z</time>
      </trkpt>
      <trkpt lat="47.39622" lon="-0.62866">
        <ele>16.398438</ele>
        <time>2014-09-02T09:09:39Z</time>
      </trkpt>
      <trkpt lat="47.39609" lon="-0.62872">
        <ele>16</ele>
        <time>2014-09-02T09:09:42Z</time>
      </trkpt>
      <trkpt lat="47.396" lon="-0.6288">
        <ele>15.597656</ele>
        <time>2014-09-02T09:09:44Z</time>
      </trkpt>
      <trkpt lat="47.39592" lon="-0.62892">
        <ele>15.5</ele>
        <time>2014-09-02T09:09:46Z</time>
      </trkpt>
      <trkpt lat="47.39576" lon="-0.62915">
        <ele>14.199219</ele>
        <time>2014-09-02T09:09:50Z</time>
      </trkpt>
      <trkpt lat="47.3956" lon="-0.62935">
        <ele>13.597656</ele>
        <time>2014-09-02T09:09:54Z</time>
      </trkpt>
      <trkpt lat="47.39552" lon="-0.62946">
        <ele>13.5</ele>
        <time>2014-09-02T09:09:56Z</time>
      </trkpt>
      <trkpt lat="47.39539" lon="-0.62971">
        <ele>13.699219</ele>
        <time>2014-09-02T09:10:00Z</time>
      </trkpt>
      <trkpt lat="47.39531" lon="-0.62979">
        <ele>13.597656</ele>
        <time>2014-09-02T09:10:02Z</time>
      </trkpt>
      <trkpt lat="47.39494" lon="-0.63016">
        <ele>12.699219</ele>
        <time>2014-09-02T09:10:10Z</time>
      </trkpt>
      <trkpt lat="47.39484" lon="-0.63024">
        <ele>13.097656</ele>
        <time>2014-09-02T09:10:12Z</time>
      </trkpt>
      <trkpt lat="47.39474" lon="-0.63031">
        <ele>13.5</ele>
        <time>2014-09-02T09:10:14Z</time>
      </trkpt>
      <trkpt lat="47.39428" lon="-0.63072">
        <ele>12.199219</ele>
        <time>2014-09-02T09:10:24Z</time>
      </trkpt>
      <trkpt lat="47.39386" lon="-0.63104">
        <ele>10.898438</ele>
        <time>2014-09-02T09:10:32Z</time>
      </trkpt>
      <trkpt lat="47.39368" lon="-0.63125">
        <ele>11.199219</ele>
        <time>2014-09-02T09:10:36Z</time>
      </trkpt>
      <trkpt lat="47.39359" lon="-0.63133">
        <ele>11.699219</ele>
        <time>2014-09-02T09:10:38Z</time>
      </trkpt>
      <trkpt lat="47.3934" lon="-0.63146">
        <ele>12.296875</ele>
        <time>2014-09-02T09:10:42Z</time>
      </trkpt>
      <trkpt lat="47.3932" lon="-0.63163">
        <ele>11.898438</ele>
        <time>2014-09-02T09:10:46Z</time>
      </trkpt>
      <trkpt lat="47.39311" lon="-0.63172">
        <ele>11.597656</ele>
        <time>2014-09-02T09:10:48Z</time>
      </trkpt>
      <trkpt lat="47.39303" lon="-0.63183">
        <ele>11.5</ele>
        <time>2014-09-02T09:10:50Z</time>
      </trkpt>
      <trkpt lat="47.39279" lon="-0.63215">
        <ele>11.699219</ele>
        <time>2014-09-02T09:10:56Z</time>
      </trkpt>
      <trkpt lat="47.39271" lon="-0.63223">
        <ele>12.398438</ele>
        <time>2014-09-02T09:10:58Z</time>
      </trkpt>
      <trkpt lat="47.39261" lon="-0.63229">
        <ele>16.503906</ele>
        <time>2014-09-02T09:11:01Z</time>
      </trkpt>
      <trkpt lat="47.39244" lon="-0.6324">
        <ele>16.898438</ele>
        <time>2014-09-02T09:13:14Z</time>
      </trkpt>
      <trkpt lat="47.39237" lon="-0.63248">
        <ele>15.597656</ele>
        <time>2014-09-02T09:13:19Z</time>
      </trkpt>
      <trkpt lat="47.39229" lon="-0.63256">
        <ele>14.597656</ele>
        <time>2014-09-02T09:13:22Z</time>
      </trkpt>
      <trkpt lat="47.39221" lon="-0.63267">
        <ele>13.796875</ele>
        <time>2014-09-02T09:13:25Z</time>
      </trkpt>
      <trkpt lat="47.39215" lon="-0.63283">
        <ele>12</ele>
        <time>2014-09-02T09:13:28Z</time>
      </trkpt>
      <trkpt lat="47.39206" lon="-0.63297">
        <ele>8.898438</ele>
        <time>2014-09-02T09:13:31Z</time>
      </trkpt>
      <trkpt lat="47.39191" lon="-0.6332">
        <ele>5.699219</ele>
        <time>2014-09-02T09:13:36Z</time>
      </trkpt>
      <trkpt lat="47.39155" lon="-0.63373">
        <ele>11.5</ele>
        <time>2014-09-02T09:14:02Z</time>
      </trkpt>
      <trkpt lat="47.3915" lon="-0.63387">
        <ele>11.796875</ele>
        <time>2014-09-02T09:14:07Z</time>
      </trkpt>
      <trkpt lat="47.39138" lon="-0.63415">
        <ele>9.597656</ele>
        <time>2014-09-02T09:14:15Z</time>
      </trkpt>
      <trkpt lat="47.39134" lon="-0.63429">
        <ele>8.5</ele>
        <time>2014-09-02T09:14:18Z</time>
      </trkpt>
      <trkpt lat="47.39127" lon="-0.63459">
        <ele>6</ele>
        <time>2014-09-02T09:14:24Z</time>
      </trkpt>
      <trkpt lat="47.39122" lon="-0.63473">
        <ele>6.398438</ele>
        <time>2014-09-02T09:14:27Z</time>
      </trkpt>
      <trkpt lat="47.39115" lon="-0.63488">
        <ele>7.5</ele>
        <time>2014-09-02T09:14:30Z</time>
      </trkpt>
      <trkpt lat="47.39106" lon="-0.63501">
        <ele>8.097656</ele>
        <time>2014-09-02T09:14:33Z</time>
      </trkpt>
      <trkpt lat="47.38826" lon="-0.63943">
        <ele>17.296875</ele>
        <time>2014-09-02T09:15:46Z</time>
      </trkpt>
      <trkpt lat="47.38817" lon="-0.63955">
        <ele>17.199219</ele>
        <time>2014-09-02T09:15:48Z</time>
      </trkpt>
      <trkpt lat="47.38808" lon="-0.63964">
        <ele>17</ele>
        <time>2014-09-02T09:15:50Z</time>
      </trkpt>
      <trkpt lat="47.38798" lon="-0.63974">
        <ele>16.898438</ele>
        <time>2014-09-02T09:15:52Z</time>
      </trkpt>
      <trkpt lat="47.38788" lon="-0.63987">
        <ele>16.898438</ele>
        <time>2014-09-02T09:15:54Z</time>
      </trkpt>
      <trkpt lat="47.38771" lon="-0.64015">
        <ele>16.597656</ele>
        <time>2014-09-02T09:15:58Z</time>
      </trkpt>
      <trkpt lat="47.38762" lon="-0.64029">
        <ele>16.398438</ele>
        <time>2014-09-02T09:16:00Z</time>
      </trkpt>
      <trkpt lat="47.38754" lon="-0.64044">
        <ele>16.199219</ele>
        <time>2014-09-02T09:16:02Z</time>
      </trkpt>
      <trkpt lat="47.38732" lon="-0.64085">
        <ele>17.097656</ele>
        <time>2014-09-02T09:16:08Z</time>
      </trkpt>
      <trkpt lat="47.38727" lon="-0.64099">
        <ele>17.398438</ele>
        <time>2014-09-02T09:16:10Z</time>
      </trkpt>
      <trkpt lat="47.38719" lon="-0.64126">
        <ele>17.597656</ele>
        <time>2014-09-02T09:16:14Z</time>
      </trkpt>
      <trkpt lat="47.38715" lon="-0.64141">
        <ele>18</ele>
        <time>2014-09-02T09:16:16Z</time>
      </trkpt>
      <trkpt lat="47.3871" lon="-0.64153">
        <ele>18.699219</ele>
        <time>2014-09-02T09:16:18Z</time>
      </trkpt>
      <trkpt lat="47.38695" lon="-0.64187">
        <ele>19.5</ele>
        <time>2014-09-02T09:16:24Z</time>
      </trkpt>
      <trkpt lat="47.38646" lon="-0.64291">
        <ele>20.5</ele>
        <time>2014-09-02T09:16:40Z</time>
      </trkpt>
      <trkpt lat="47.38638" lon="-0.64304">
        <ele>20.199219</ele>
        <time>2014-09-02T09:16:42Z</time>
      </trkpt>
      <trkpt lat="47.3863" lon="-0.64316">
        <ele>19.597656</ele>
        <time>2014-09-02T09:16:44Z</time>
      </trkpt>
      <trkpt lat="47.38621" lon="-0.64326">
        <ele>19</ele>
        <time>2014-09-02T09:16:46Z</time>
      </trkpt>
      <trkpt lat="47.38612" lon="-0.64334">
        <ele>18.699219</ele>
        <time>2014-09-02T09:16:48Z</time>
      </trkpt>
      <trkpt lat="47.38603" lon="-0.64345">
        <ele>18.398438</ele>
        <time>2014-09-02T09:16:50Z</time>
      </trkpt>
      <trkpt lat="47.38596" lon="-0.64358">
        <ele>17.898438</ele>
        <time>2014-09-02T09:16:52Z</time>
      </trkpt>
      <trkpt lat="47.38591" lon="-0.64372">
        <ele>17.796875</ele>
        <time>2014-09-02T09:16:54Z</time>
      </trkpt>
      <trkpt lat="47.38587" lon="-0.64386">
        <ele>17.597656</ele>
        <time>2014-09-02T09:16:56Z</time>
      </trkpt>
      <trkpt lat="47.38584" lon="-0.64399">
        <ele>17.597656</ele>
        <time>2014-09-02T09:16:58Z</time>
      </trkpt>
      <trkpt lat="47.38582" lon="-0.64413">
        <ele>17.898438</ele>
        <time>2014-09-02T09:17:00Z</time>
      </trkpt>
      <trkpt lat="47.38578" lon="-0.64431">
        <ele>18</ele>
        <time>2014-09-02T09:17:03Z</time>
      </trkpt>
      <trkpt lat="47.38571" lon="-0.64448">
        <ele>17.796875</ele>
        <time>2014-09-02T09:17:06Z</time>
      </trkpt>
      <trkpt lat="47.38544" lon="-0.64516">
        <ele>16.699219</ele>
        <time>2014-09-02T09:17:16Z</time>
      </trkpt>
      <trkpt lat="47.38114" lon="-0.6554">
        <ele>20</ele>
        <time>2014-09-02T09:19:38Z</time>
      </trkpt>
      <trkpt lat="47.38104" lon="-0.6555">
        <ele>20.296875</ele>
        <time>2014-09-02T09:19:41Z</time>
      </trkpt>
      <trkpt lat="47.38094" lon="-0.65546">
        <ele>20.398438</ele>
        <time>2014-09-02T09:19:44Z</time>
      </trkpt>
      <trkpt lat="47.38082" lon="-0.65537">
        <ele>20.296875</ele>
        <time>2014-09-02T09:19:47Z</time>
      </trkpt>
      <trkpt lat="47.38034" lon="-0.65496">
        <ele>19.296875</ele>
        <time>2014-09-02T09:19:57Z</time>
      </trkpt>
      <trkpt lat="47.38025" lon="-0.65487">
        <ele>19.097656</ele>
        <time>2014-09-02T09:19:59Z</time>
      </trkpt>
      <trkpt lat="47.38016" lon="-0.65476">
        <ele>18.796875</ele>
        <time>2014-09-02T09:20:01Z</time>
      </trkpt>
      <trkpt lat="47.38011" lon="-0.65463">
        <ele>18.898438</ele>
        <time>2014-09-02T09:20:03Z</time>
      </trkpt>
      <trkpt lat="47.38008" lon="-0.65448">
        <ele>18.898438</ele>
        <time>2014-09-02T09:20:06Z</time>
      </trkpt>
      <trkpt lat="47.38003" lon="-0.65436">
        <ele>18.699219</ele>
        <time>2014-09-02T09:20:12Z</time>
      </trkpt>
      <trkpt lat="47.37996" lon="-0.65425">
        <ele>18.597656</ele>
        <time>2014-09-02T09:20:17Z</time>
      </trkpt>
      <trkpt lat="47.37988" lon="-0.65419">
        <ele>16.597656</ele>
        <time>2014-09-02T09:20:22Z</time>
      </trkpt>
      <trkpt lat="47.37998" lon="-0.65422">
        <ele>14.398438</ele>
        <time>2014-09-02T09:21:17Z</time>
      </trkpt>
      <trkpt lat="47.38008" lon="-0.65432">
        <ele>12.898438</ele>
        <time>2014-09-02T09:21:21Z</time>
      </trkpt>
      <trkpt lat="47.38045" lon="-0.6547">
        <ele>9.199219</ele>
        <time>2014-09-02T09:21:30Z</time>
      </trkpt>
      <trkpt lat="47.38066" lon="-0.65488">
        <ele>7</ele>
        <time>2014-09-02T09:21:34Z</time>
      </trkpt>
      <trkpt lat="47.38093" lon="-0.65509">
        <ele>5.097656</ele>
        <time>2014-09-02T09:21:38Z</time>
      </trkpt>
      <trkpt lat="47.38109" lon="-0.65518">
        <ele>4.5</ele>
        <time>2014-09-02T09:21:40Z</time>
      </trkpt>
      <trkpt lat="47.38126" lon="-0.65525">
        <ele>4.097656</ele>
        <time>2014-09-02T09:21:42Z</time>
      </trkpt>
      <trkpt lat="47.38158" lon="-0.65534">
        <ele>6.796875</ele>
        <time>2014-09-02T09:21:46Z</time>
      </trkpt>
      <trkpt lat="47.38168" lon="-0.65542">
        <ele>8.296875</ele>
        <time>2014-09-02T09:21:48Z</time>
      </trkpt>
      <trkpt lat="47.38176" lon="-0.6555">
        <ele>10.097656</ele>
        <time>2014-09-02T09:21:50Z</time>
      </trkpt>
      <trkpt lat="47.38185" lon="-0.65561">
        <ele>12.199219</ele>
        <time>2014-09-02T09:21:53Z</time>
      </trkpt>
      <trkpt lat="47.3819" lon="-0.65574">
        <ele>13.296875</ele>
        <time>2014-09-02T09:21:58Z</time>
      </trkpt>
      <trkpt lat="47.382" lon="-0.65586">
        <ele>13.597656</ele>
        <time>2014-09-02T09:22:02Z</time>
      </trkpt>
      <trkpt lat="47.3821" lon="-0.65599">
        <ele>12.5</ele>
        <time>2014-09-02T09:22:05Z</time>
      </trkpt>
      <trkpt lat="47.38217" lon="-0.65611">
        <ele>7.796875</ele>
        <time>2014-09-02T09:22:08Z</time>
      </trkpt>
      <trkpt lat="47.38223" lon="-0.65621">
        <ele>12.5</ele>
        <time>2014-09-02T09:22:17Z</time>
      </trkpt>
      <trkpt lat="47.38226" lon="-0.65634">
        <ele>12.5</ele>
        <time>2014-09-02T09:22:40Z</time>
      </trkpt>
      <trkpt lat="47.38237" lon="-0.65644">
        <ele>13.597656</ele>
        <time>2014-09-02T09:22:44Z</time>
      </trkpt>
      <trkpt lat="47.38245" lon="-0.65654">
        <ele>15.898438</ele>
        <time>2014-09-02T09:22:47Z</time>
      </trkpt>
      <trkpt lat="47.38252" lon="-0.65664">
        <ele>18.199219</ele>
        <time>2014-09-02T09:22:50Z</time>
      </trkpt>
      <trkpt lat="47.38262" lon="-0.65674">
        <ele>19.199219</ele>
        <time>2014-09-02T09:22:54Z</time>
      </trkpt>
      <trkpt lat="47.38272" lon="-0.6568">
        <ele>20.898438</ele>
        <time>2014-09-02T09:22:57Z</time>
      </trkpt>
      <trkpt lat="47.38281" lon="-0.65693">
        <ele>21.898438</ele>
        <time>2014-09-02T09:23:00Z</time>
      </trkpt>
      <trkpt lat="47.38284" lon="-0.65711">
        <ele>22.097656</ele>
        <time>2014-09-02T09:23:03Z</time>
      </trkpt>
      <trkpt lat="47.38284" lon="-0.65726">
        <ele>22.898438</ele>
        <time>2014-09-02T09:23:05Z</time>
      </trkpt>
      <trkpt lat="47.38283" lon="-0.6574">
        <ele>25</ele>
        <time>2014-09-02T09:23:07Z</time>
      </trkpt>
      <trkpt lat="47.38279" lon="-0.65773">
        <ele>29.296875</ele>
        <time>2014-09-02T09:23:14Z</time>
      </trkpt>
      <trkpt lat="47.38276" lon="-0.6579">
        <ele>28.5</ele>
        <time>2014-09-02T09:23:33Z</time>
      </trkpt>
      <trkpt lat="47.38272" lon="-0.65804">
        <ele>28.199219</ele>
        <time>2014-09-02T09:23:36Z</time>
      </trkpt>
      <trkpt lat="47.38268" lon="-0.65817">
        <ele>28.699219</ele>
        <time>2014-09-02T09:23:40Z</time>
      </trkpt>
      <trkpt lat="47.38264" lon="-0.65833">
        <ele>29.597656</ele>
        <time>2014-09-02T09:23:44Z</time>
      </trkpt>
      <trkpt lat="47.38259" lon="-0.65847">
        <ele>29.097656</ele>
        <time>2014-09-02T09:23:47Z</time>
      </trkpt>
      <trkpt lat="47.38246" lon="-0.65878">
        <ele>27.199219</ele>
        <time>2014-09-02T09:23:53Z</time>
      </trkpt>
      <trkpt lat="47.3824" lon="-0.6589">
        <ele>27</ele>
        <time>2014-09-02T09:23:56Z</time>
      </trkpt>
      <trkpt lat="47.38244" lon="-0.65906">
        <ele>26.199219</ele>
        <time>2014-09-02T09:24:00Z</time>
      </trkpt>
      <trkpt lat="47.38251" lon="-0.65915">
        <ele>24.898438</ele>
        <time>2014-09-02T09:24:03Z</time>
      </trkpt>
      <trkpt lat="47.3826" lon="-0.65925">
        <ele>26.097656</ele>
        <time>2014-09-02T09:24:06Z</time>
      </trkpt>
      <trkpt lat="47.38279" lon="-0.65942">
        <ele>27</ele>
        <time>2014-09-02T09:24:11Z</time>
      </trkpt>
      <trkpt lat="47.38291" lon="-0.6595">
        <ele>25.199219</ele>
        <time>2014-09-02T09:24:14Z</time>
      </trkpt>
      <trkpt lat="47.383" lon="-0.65962">
        <ele>25.5</ele>
        <time>2014-09-02T09:24:17Z</time>
      </trkpt>
      <trkpt lat="47.38314" lon="-0.6598">
        <ele>25.796875</ele>
        <time>2014-09-02T09:24:21Z</time>
      </trkpt>
      <trkpt lat="47.38322" lon="-0.65987">
        <ele>25.296875</ele>
        <time>2014-09-02T09:24:23Z</time>
      </trkpt>
      <trkpt lat="47.38331" lon="-0.65992">
        <ele>24.296875</ele>
        <time>2014-09-02T09:24:25Z</time>
      </trkpt>
      <trkpt lat="47.3834" lon="-0.66001">
        <ele>21.796875</ele>
        <time>2014-09-02T09:24:28Z</time>
      </trkpt>
      <trkpt lat="47.38348" lon="-0.66014">
        <ele>22.097656</ele>
        <time>2014-09-02T09:24:32Z</time>
      </trkpt>
      <trkpt lat="47.38344" lon="-0.66026">
        <ele>23.296875</ele>
        <time>2014-09-02T09:24:35Z</time>
      </trkpt>
      <trkpt lat="47.38338" lon="-0.66043">
        <ele>24.296875</ele>
        <time>2014-09-02T09:24:38Z</time>
      </trkpt>
      <trkpt lat="47.38329" lon="-0.66067">
        <ele>26</ele>
        <time>2014-09-02T09:24:42Z</time>
      </trkpt>
      <trkpt lat="47.38326" lon="-0.6608">
        <ele>27.296875</ele>
        <time>2014-09-02T09:24:44Z</time>
      </trkpt>
      <trkpt lat="47.38327" lon="-0.661">
        <ele>27.898438</ele>
        <time>2014-09-02T09:24:47Z</time>
      </trkpt>
      <trkpt lat="47.38329" lon="-0.66113">
        <ele>28.199219</ele>
        <time>2014-09-02T09:24:49Z</time>
      </trkpt>
      <trkpt lat="47.38332" lon="-0.66127">
        <ele>28.699219</ele>
        <time>2014-09-02T09:24:51Z</time>
      </trkpt>
      <trkpt lat="47.38336" lon="-0.6614">
        <ele>29.398438</ele>
        <time>2014-09-02T09:24:53Z</time>
      </trkpt>
      <trkpt lat="47.38342" lon="-0.66152">
        <ele>29.898438</ele>
        <time>2014-09-02T09:24:55Z</time>
      </trkpt>
      <trkpt lat="47.38353" lon="-0.66177">
        <ele>31</ele>
        <time>2014-09-02T09:24:59Z</time>
      </trkpt>
      <trkpt lat="47.3836" lon="-0.66189">
        <ele>31.199219</ele>
        <time>2014-09-02T09:25:01Z</time>
      </trkpt>
      <trkpt lat="47.38366" lon="-0.66202">
        <ele>31.5</ele>
        <time>2014-09-02T09:25:03Z</time>
      </trkpt>
      <trkpt lat="47.38371" lon="-0.66216">
        <ele>32</ele>
        <time>2014-09-02T09:25:05Z</time>
      </trkpt>
      <trkpt lat="47.38375" lon="-0.66229">
        <ele>32.5</ele>
        <time>2014-09-02T09:25:07Z</time>
      </trkpt>
      <trkpt lat="47.38379" lon="-0.66243">
        <ele>33.097656</ele>
        <time>2014-09-02T09:25:09Z</time>
      </trkpt>
      <trkpt lat="47.38382" lon="-0.66258">
        <ele>33.398438</ele>
        <time>2014-09-02T09:25:11Z</time>
      </trkpt>
      <trkpt lat="47.38391" lon="-0.66304">
        <ele>34.097656</ele>
        <time>2014-09-02T09:25:17Z</time>
      </trkpt>
      <trkpt lat="47.38393" lon="-0.6632">
        <ele>34.199219</ele>
        <time>2014-09-02T09:25:19Z</time>
      </trkpt>
      <trkpt lat="47.38423" lon="-0.66558">
        <ele>38.398438</ele>
        <time>2014-09-02T09:25:47Z</time>
      </trkpt>
      <trkpt lat="47.38421" lon="-0.66571">
        <ele>39</ele>
        <time>2014-09-02T09:25:49Z</time>
      </trkpt>
      <trkpt lat="47.38411" lon="-0.66581">
        <ele>39.199219</ele>
        <time>2014-09-02T09:25:52Z</time>
      </trkpt>
      <trkpt lat="47.38402" lon="-0.66586">
        <ele>39.199219</ele>
        <time>2014-09-02T09:25:54Z</time>
      </trkpt>
      <trkpt lat="47.38361" lon="-0.66612">
        <ele>39.097656</ele>
        <time>2014-09-02T09:26:02Z</time>
      </trkpt>
      <trkpt lat="47.38341" lon="-0.66628">
        <ele>39.296875</ele>
        <time>2014-09-02T09:26:06Z</time>
      </trkpt>
      <trkpt lat="47.38332" lon="-0.66637">
        <ele>39.398438</ele>
        <time>2014-09-02T09:26:08Z</time>
      </trkpt>
      <trkpt lat="47.38324" lon="-0.66648">
        <ele>39.5</ele>
        <time>2014-09-02T09:26:10Z</time>
      </trkpt>
      <trkpt lat="47.38237" lon="-0.66778">
        <ele>43.597656</ele>
        <time>2014-09-02T09:26:35Z</time>
      </trkpt>
      <trkpt lat="47.38147" lon="-0.66925">
        <ele>46.296875</ele>
        <time>2014-09-02T09:28:54Z</time>
      </trkpt>
      <trkpt lat="47.38016" lon="-0.67113">
        <ele>49.097656</ele>
        <time>2014-09-02T09:29:46Z</time>
      </trkpt>
      <trkpt lat="47.37992" lon="-0.67157">
        <ele>48.199219</ele>
        <time>2014-09-02T09:29:55Z</time>
      </trkpt>
      <trkpt lat="47.37985" lon="-0.67173">
        <ele>47.796875</ele>
        <time>2014-09-02T09:29:58Z</time>
      </trkpt>
      <trkpt lat="47.37961" lon="-0.67231">
        <ele>45.597656</ele>
        <time>2014-09-02T09:30:11Z</time>
      </trkpt>
      <trkpt lat="47.37956" lon="-0.67247">
        <ele>45.296875</ele>
        <time>2014-09-02T09:30:14Z</time>
      </trkpt>
      <trkpt lat="47.37939" lon="-0.67308">
        <ele>44.898438</ele>
        <time>2014-09-02T09:30:23Z</time>
      </trkpt>
      <trkpt lat="47.37924" lon="-0.67372">
        <ele>45.296875</ele>
        <time>2014-09-02T09:30:31Z</time>
      </trkpt>
      <trkpt lat="47.3792" lon="-0.67387">
        <ele>45.398438</ele>
        <time>2014-09-02T09:30:33Z</time>
      </trkpt>
      <trkpt lat="47.37866" lon="-0.67575">
        <ele>39.097656</ele>
        <time>2014-09-02T09:31:00Z</time>
      </trkpt>
      <trkpt lat="47.3785" lon="-0.67615">
        <ele>35.398438</ele>
        <time>2014-09-02T09:31:04Z</time>
      </trkpt>
      <trkpt lat="47.37827" lon="-0.67667">
        <ele>29.199219</ele>
        <time>2014-09-02T09:31:11Z</time>
      </trkpt>
      <trkpt lat="47.37825" lon="-0.67681">
        <ele>27.796875</ele>
        <time>2014-09-02T09:31:15Z</time>
      </trkpt>
      <trkpt lat="47.37823" lon="-0.67696">
        <ele>28</ele>
        <time>2014-09-02T09:31:19Z</time>
      </trkpt>
      <trkpt lat="47.3782" lon="-0.67713">
        <ele>28</ele>
        <time>2014-09-02T09:31:23Z</time>
      </trkpt>
      <trkpt lat="47.37819" lon="-0.67728">
        <ele>28.398438</ele>
        <time>2014-09-02T09:31:26Z</time>
      </trkpt>
      <trkpt lat="47.37817" lon="-0.67743">
        <ele>29.199219</ele>
        <time>2014-09-02T09:31:29Z</time>
      </trkpt>
      <trkpt lat="47.37813" lon="-0.67758">
        <ele>30.097656</ele>
        <time>2014-09-02T09:31:32Z</time>
      </trkpt>
      <trkpt lat="47.37804" lon="-0.67789">
        <ele>31.398438</ele>
        <time>2014-09-02T09:31:38Z</time>
      </trkpt>
      <trkpt lat="47.37799" lon="-0.67805">
        <ele>31.699219</ele>
        <time>2014-09-02T09:31:41Z</time>
      </trkpt>
      <trkpt lat="47.37783" lon="-0.67852">
        <ele>33.296875</ele>
        <time>2014-09-02T09:31:50Z</time>
      </trkpt>
      <trkpt lat="47.37779" lon="-0.67868">
        <ele>33.597656</ele>
        <time>2014-09-02T09:31:53Z</time>
      </trkpt>
      <trkpt lat="47.37763" lon="-0.67948">
        <ele>37.398438</ele>
        <time>2014-09-02T09:32:08Z</time>
      </trkpt>
      <trkpt lat="47.37761" lon="-0.67963">
        <ele>38.597656</ele>
        <time>2014-09-02T09:32:11Z</time>
      </trkpt>
      <trkpt lat="47.37758" lon="-0.67992">
        <ele>40</ele>
        <time>2014-09-02T09:32:17Z</time>
      </trkpt>
      <trkpt lat="47.37755" lon="-0.68007">
        <ele>40.199219</ele>
        <time>2014-09-02T09:32:20Z</time>
      </trkpt>
      <trkpt lat="47.37751" lon="-0.68022">
        <ele>40.398438</ele>
        <time>2014-09-02T09:32:23Z</time>
      </trkpt>
      <trkpt lat="47.37746" lon="-0.68039">
        <ele>40.597656</ele>
        <time>2014-09-02T09:32:26Z</time>
      </trkpt>
      <trkpt lat="47.37736" lon="-0.68068">
        <ele>40.898438</ele>
        <time>2014-09-02T09:32:31Z</time>
      </trkpt>
      <trkpt lat="47.37685" lon="-0.68201">
        <ele>40.296875</ele>
        <time>2014-09-02T09:32:51Z</time>
      </trkpt>
      <trkpt lat="47.37681" lon="-0.68217">
        <ele>40.597656</ele>
        <time>2014-09-02T09:32:53Z</time>
      </trkpt>
      <trkpt lat="47.37678" lon="-0.68233">
        <ele>40.796875</ele>
        <time>2014-09-02T09:32:55Z</time>
      </trkpt>
      <trkpt lat="47.37676" lon="-0.68246">
        <ele>41.199219</ele>
        <time>2014-09-02T09:32:57Z</time>
      </trkpt>
      <trkpt lat="47.37674" lon="-0.68274">
        <ele>41</ele>
        <time>2014-09-02T09:33:03Z</time>
      </trkpt>
      <trkpt lat="47.37669" lon="-0.68291">
        <ele>40.898438</ele>
        <time>2014-09-02T09:33:06Z</time>
      </trkpt>
      <trkpt lat="47.37652" lon="-0.68361">
        <ele>40.898438</ele>
        <time>2014-09-02T09:33:16Z</time>
      </trkpt>
      <trkpt lat="47.37646" lon="-0.68376">
        <ele>41</ele>
        <time>2014-09-02T09:33:18Z</time>
      </trkpt>
      <trkpt lat="47.37639" lon="-0.68388">
        <ele>41.398438</ele>
        <time>2014-09-02T09:33:20Z</time>
      </trkpt>
      <trkpt lat="47.37623" lon="-0.68413">
        <ele>41.5</ele>
        <time>2014-09-02T09:33:24Z</time>
      </trkpt>
      <trkpt lat="47.37617" lon="-0.68427">
        <ele>41.5</ele>
        <time>2014-09-02T09:33:26Z</time>
      </trkpt>
      <trkpt lat="47.37612" lon="-0.68443">
        <ele>41.597656</ele>
        <time>2014-09-02T09:33:28Z</time>
      </trkpt>
      <trkpt lat="47.37609" lon="-0.6846">
        <ele>41.597656</ele>
        <time>2014-09-02T09:33:30Z</time>
      </trkpt>
      <trkpt lat="47.376" lon="-0.6851">
        <ele>39.699219</ele>
        <time>2014-09-02T09:33:37Z</time>
      </trkpt>
      <trkpt lat="47.37589" lon="-0.68515">
        <ele>38</ele>
        <time>2014-09-02T09:33:41Z</time>
      </trkpt>
      <trkpt lat="47.37576" lon="-0.68509">
        <ele>37.296875</ele>
        <time>2014-09-02T09:33:44Z</time>
      </trkpt>
      <trkpt lat="47.37565" lon="-0.68505">
        <ele>36.398438</ele>
        <time>2014-09-02T09:33:46Z</time>
      </trkpt>
      <trkpt lat="47.37552" lon="-0.68502">
        <ele>34.898438</ele>
        <time>2014-09-02T09:33:48Z</time>
      </trkpt>
      <trkpt lat="47.37539" lon="-0.68502">
        <ele>33.796875</ele>
        <time>2014-09-02T09:33:50Z</time>
      </trkpt>
      <trkpt lat="47.37515" lon="-0.68501">
        <ele>32</ele>
        <time>2014-09-02T09:33:54Z</time>
      </trkpt>
      <trkpt lat="47.37503" lon="-0.68497">
        <ele>31.398438</ele>
        <time>2014-09-02T09:33:57Z</time>
      </trkpt>
      <trkpt lat="47.3749" lon="-0.68489">
        <ele>30.097656</ele>
        <time>2014-09-02T09:34:00Z</time>
      </trkpt>
      <trkpt lat="47.37479" lon="-0.68481">
        <ele>28.699219</ele>
        <time>2014-09-02T09:34:02Z</time>
      </trkpt>
      <trkpt lat="47.37466" lon="-0.68475">
        <ele>27.898438</ele>
        <time>2014-09-02T09:34:04Z</time>
      </trkpt>
      <trkpt lat="47.37452" lon="-0.68469">
        <ele>27.597656</ele>
        <time>2014-09-02T09:34:06Z</time>
      </trkpt>
      <trkpt lat="47.37439" lon="-0.68465">
        <ele>27.199219</ele>
        <time>2014-09-02T09:34:08Z</time>
      </trkpt>
      <trkpt lat="47.37426" lon="-0.68462">
        <ele>27.398438</ele>
        <time>2014-09-02T09:34:10Z</time>
      </trkpt>
      <trkpt lat="47.37416" lon="-0.68461">
        <ele>27.699219</ele>
        <time>2014-09-02T09:34:12Z</time>
      </trkpt>
      <trkpt lat="47.37407" lon="-0.68462">
        <ele>28</ele>
        <time>2014-09-02T09:34:15Z</time>
      </trkpt>
      <trkpt lat="47.37403" lon="-0.68475">
        <ele>27.699219</ele>
        <time>2014-09-02T09:34:18Z</time>
      </trkpt>
      <trkpt lat="47.37401" lon="-0.68493">
        <ele>27.898438</ele>
        <time>2014-09-02T09:34:21Z</time>
      </trkpt>
      <trkpt lat="47.37399" lon="-0.68509">
        <ele>27.699219</ele>
        <time>2014-09-02T09:34:24Z</time>
      </trkpt>
      <trkpt lat="47.37389" lon="-0.68516">
        <ele>26.699219</ele>
        <time>2014-09-02T09:34:27Z</time>
      </trkpt>
      <trkpt lat="47.3738" lon="-0.68513">
        <ele>25.597656</ele>
        <time>2014-09-02T09:34:29Z</time>
      </trkpt>
      <trkpt lat="47.37369" lon="-0.68509">
        <ele>24.898438</ele>
        <time>2014-09-02T09:34:31Z</time>
      </trkpt>
      <trkpt lat="47.37356" lon="-0.68506">
        <ele>24</ele>
        <time>2014-09-02T09:34:33Z</time>
      </trkpt>
      <trkpt lat="47.37264" lon="-0.68478">
        <ele>19</ele>
        <time>2014-09-02T09:34:45Z</time>
      </trkpt>
      <trkpt lat="47.37219" lon="-0.68463">
        <ele>17.296875</ele>
        <time>2014-09-02T09:34:53Z</time>
      </trkpt>
      <trkpt lat="47.37207" lon="-0.68461">
        <ele>16.5</ele>
        <time>2014-09-02T09:34:56Z</time>
      </trkpt>
      <trkpt lat="47.37194" lon="-0.68455">
        <ele>16</ele>
        <time>2014-09-02T09:34:59Z</time>
      </trkpt>
      <trkpt lat="47.37185" lon="-0.68452">
        <ele>15.398438</ele>
        <time>2014-09-02T09:35:01Z</time>
      </trkpt>
      <trkpt lat="47.37173" lon="-0.68451">
        <ele>15.296875</ele>
        <time>2014-09-02T09:35:04Z</time>
      </trkpt>
      <trkpt lat="47.37162" lon="-0.6845">
        <ele>15.699219</ele>
        <time>2014-09-02T09:35:07Z</time>
      </trkpt>
      <trkpt lat="47.37151" lon="-0.68453">
        <ele>14.796875</ele>
        <time>2014-09-02T09:35:10Z</time>
      </trkpt>
      <trkpt lat="47.37142" lon="-0.68461">
        <ele>13.597656</ele>
        <time>2014-09-02T09:35:13Z</time>
      </trkpt>
      <trkpt lat="47.3713" lon="-0.68462">
        <ele>13.699219</ele>
        <time>2014-09-02T09:35:17Z</time>
      </trkpt>
      <trkpt lat="47.3712" lon="-0.68466">
        <ele>13</ele>
        <time>2014-09-02T09:35:20Z</time>
      </trkpt>
      <trkpt lat="47.37111" lon="-0.68473">
        <ele>12.796875</ele>
        <time>2014-09-02T09:35:23Z</time>
      </trkpt>
      <trkpt lat="47.37099" lon="-0.68478">
        <ele>12.898438</ele>
        <time>2014-09-02T09:35:26Z</time>
      </trkpt>
      <trkpt lat="47.37086" lon="-0.68482">
        <ele>12.796875</ele>
        <time>2014-09-02T09:35:29Z</time>
      </trkpt>
      <trkpt lat="47.37076" lon="-0.68493">
        <ele>12.699219</ele>
        <time>2014-09-02T09:35:32Z</time>
      </trkpt>
      <trkpt lat="47.3707" lon="-0.68508">
        <ele>13</ele>
        <time>2014-09-02T09:35:35Z</time>
      </trkpt>
      <trkpt lat="47.37066" lon="-0.68526">
        <ele>13.199219</ele>
        <time>2014-09-02T09:35:38Z</time>
      </trkpt>
      <trkpt lat="47.37061" lon="-0.68544">
        <ele>13.296875</ele>
        <time>2014-09-02T09:35:41Z</time>
      </trkpt>
      <trkpt lat="47.3703" lon="-0.68646">
        <ele>13.597656</ele>
        <time>2014-09-02T09:35:58Z</time>
      </trkpt>
      <trkpt lat="47.37027" lon="-0.68662">
        <ele>12.898438</ele>
        <time>2014-09-02T09:36:01Z</time>
      </trkpt>
      <trkpt lat="47.37022" lon="-0.68679">
        <ele>10.699219</ele>
        <time>2014-09-02T09:36:04Z</time>
      </trkpt>
      <trkpt lat="47.36989" lon="-0.68774">
        <ele>7.699219</ele>
        <time>2014-09-02T09:36:20Z</time>
      </trkpt>
      <trkpt lat="47.36982" lon="-0.68789">
        <ele>6.398438</ele>
        <time>2014-09-02T09:36:23Z</time>
      </trkpt>
      <trkpt lat="47.36962" lon="-0.6883">
        <ele>5.699219</ele>
        <time>2014-09-02T09:36:31Z</time>
      </trkpt>
      <trkpt lat="47.36927" lon="-0.68896">
        <ele>6.398438</ele>
        <time>2014-09-02T09:36:44Z</time>
      </trkpt>
      <trkpt lat="47.36917" lon="-0.68908">
        <ele>7</ele>
        <time>2014-09-02T09:36:47Z</time>
      </trkpt>
      <trkpt lat="47.36911" lon="-0.68923">
        <ele>7.398438</ele>
        <time>2014-09-02T09:36:50Z</time>
      </trkpt>
      <trkpt lat="47.36903" lon="-0.68935">
        <ele>7.398438</ele>
        <time>2014-09-02T09:36:53Z</time>
      </trkpt>
      <trkpt lat="47.36894" lon="-0.68947">
        <ele>7.597656</ele>
        <time>2014-09-02T09:36:56Z</time>
      </trkpt>
      <trkpt lat="47.3686" lon="-0.69006">
        <ele>9</ele>
        <time>2014-09-02T09:37:07Z</time>
      </trkpt>
      <trkpt lat="47.36854" lon="-0.69017">
        <ele>9</ele>
        <time>2014-09-02T09:37:09Z</time>
      </trkpt>
      <trkpt lat="47.36822" lon="-0.69091">
        <ele>10.5</ele>
        <time>2014-09-02T09:37:22Z</time>
      </trkpt>
      <trkpt lat="47.36812" lon="-0.69117">
        <ele>9.296875</ele>
        <time>2014-09-02T09:37:26Z</time>
      </trkpt>
      <trkpt lat="47.36809" lon="-0.6913">
        <ele>9.199219</ele>
        <time>2014-09-02T09:37:28Z</time>
      </trkpt>
      <trkpt lat="47.36806" lon="-0.69144">
        <ele>9.597656</ele>
        <time>2014-09-02T09:37:30Z</time>
      </trkpt>
      <trkpt lat="47.36799" lon="-0.69171">
        <ele>9.699219</ele>
        <time>2014-09-02T09:37:34Z</time>
      </trkpt>
      <trkpt lat="47.36797" lon="-0.69185">
        <ele>10</ele>
        <time>2014-09-02T09:37:36Z</time>
      </trkpt>
      <trkpt lat="47.36792" lon="-0.69228">
        <ele>8.699219</ele>
        <time>2014-09-02T09:37:42Z</time>
      </trkpt>
      <trkpt lat="47.36789" lon="-0.69242">
        <ele>8.796875</ele>
        <time>2014-09-02T09:37:44Z</time>
      </trkpt>
      <trkpt lat="47.36734" lon="-0.69454">
        <ele>6.898438</ele>
        <time>2014-09-02T09:38:19Z</time>
      </trkpt>
      <trkpt lat="47.36728" lon="-0.69472">
        <ele>7.796875</ele>
        <time>2014-09-02T09:38:22Z</time>
      </trkpt>
      <trkpt lat="47.36697" lon="-0.6954">
        <ele>10.699219</ele>
        <time>2014-09-02T09:38:34Z</time>
      </trkpt>
      <trkpt lat="47.36693" lon="-0.69552">
        <ele>10.597656</ele>
        <time>2014-09-02T09:38:36Z</time>
      </trkpt>
      <trkpt lat="47.36658" lon="-0.69653">
        <ele>11.5</ele>
        <time>2014-09-02T09:38:53Z</time>
      </trkpt>
      <trkpt lat="47.36656" lon="-0.69667">
        <ele>10.699219</ele>
        <time>2014-09-02T09:38:55Z</time>
      </trkpt>
      <trkpt lat="47.36655" lon="-0.69681">
        <ele>8.898438</ele>
        <time>2014-09-02T09:38:57Z</time>
      </trkpt>
      <trkpt lat="47.36649" lon="-0.6978">
        <ele>4.699219</ele>
        <time>2014-09-02T09:39:11Z</time>
      </trkpt>
      <trkpt lat="47.36639" lon="-0.69849">
        <ele>7.898438</ele>
        <time>2014-09-02T09:39:21Z</time>
      </trkpt>
      <trkpt lat="47.36637" lon="-0.69862">
        <ele>8.699219</ele>
        <time>2014-09-02T09:39:23Z</time>
      </trkpt>
      <trkpt lat="47.36631" lon="-0.69879">
        <ele>7.796875</ele>
        <time>2014-09-02T09:39:26Z</time>
      </trkpt>
      <trkpt lat="47.36628" lon="-0.69895">
        <ele>6.796875</ele>
        <time>2014-09-02T09:39:29Z</time>
      </trkpt>
      <trkpt lat="47.36624" lon="-0.69913">
        <ele>5.699219</ele>
        <time>2014-09-02T09:39:32Z</time>
      </trkpt>
      <trkpt lat="47.36611" lon="-0.69967">
        <ele>0.5</ele>
        <time>2014-09-02T09:39:41Z</time>
      </trkpt>
      <trkpt lat="47.36599" lon="-0.70037">
        <ele>1.296875</ele>
        <time>2014-09-02T09:39:52Z</time>
      </trkpt>
      <trkpt lat="47.36601" lon="-0.70051">
        <ele>9.597656</ele>
        <time>2014-09-02T09:39:56Z</time>
      </trkpt>
      <trkpt lat="47.3661" lon="-0.70049">
        <ele>10.597656</ele>
        <time>2014-09-02T09:40:16Z</time>
      </trkpt>
      <trkpt lat="47.36606" lon="-0.70063">
        <ele>11.5</ele>
        <time>2014-09-02T09:40:20Z</time>
      </trkpt>
      <trkpt lat="47.36602" lon="-0.70081">
        <ele>12.199219</ele>
        <time>2014-09-02T09:40:24Z</time>
      </trkpt>
      <trkpt lat="47.366" lon="-0.70098">
        <ele>12.699219</ele>
        <time>2014-09-02T09:40:27Z</time>
      </trkpt>
      <trkpt lat="47.36587" lon="-0.70213">
        <ele>16.097656</ele>
        <time>2014-09-02T09:40:44Z</time>
      </trkpt>
      <trkpt lat="47.36584" lon="-0.70226">
        <ele>16.199219</ele>
        <time>2014-09-02T09:40:46Z</time>
      </trkpt>
      <trkpt lat="47.36556" lon="-0.7035">
        <ele>17</ele>
        <time>2014-09-02T09:41:05Z</time>
      </trkpt>
      <trkpt lat="47.36552" lon="-0.70378">
        <ele>17.296875</ele>
        <time>2014-09-02T09:41:09Z</time>
      </trkpt>
      <trkpt lat="47.36552" lon="-0.70392">
        <ele>17.5</ele>
        <time>2014-09-02T09:41:11Z</time>
      </trkpt>
      <trkpt lat="47.36526" lon="-0.71083">
        <ele>19.296875</ele>
        <time>2014-09-02T09:42:45Z</time>
      </trkpt>
      <trkpt lat="47.36526" lon="-0.711">
        <ele>19.097656</ele>
        <time>2014-09-02T09:43:58Z</time>
      </trkpt>
      <trkpt lat="47.36526" lon="-0.71115">
        <ele>19.296875</ele>
        <time>2014-09-02T09:44:27Z</time>
      </trkpt>
      <trkpt lat="47.36504" lon="-0.71638">
        <ele>20.296875</ele>
        <time>2014-09-02T09:45:42Z</time>
      </trkpt>
      <trkpt lat="47.36502" lon="-0.71652">
        <ele>20.296875</ele>
        <time>2014-09-02T09:45:44Z</time>
      </trkpt>
      <trkpt lat="47.36496" lon="-0.7168">
        <ele>20.199219</ele>
        <time>2014-09-02T09:45:48Z</time>
      </trkpt>
      <trkpt lat="47.36493" lon="-0.71693">
        <ele>20.199219</ele>
        <time>2014-09-02T09:45:50Z</time>
      </trkpt>
      <trkpt lat="47.36484" lon="-0.7172">
        <ele>20.097656</ele>
        <time>2014-09-02T09:45:54Z</time>
      </trkpt>
      <trkpt lat="47.36448" lon="-0.71826">
        <ele>19.796875</ele>
        <time>2014-09-02T09:46:10Z</time>
      </trkpt>
      <trkpt lat="47.36445" lon="-0.7184">
        <ele>19.699219</ele>
        <time>2014-09-02T09:46:12Z</time>
      </trkpt>
      <trkpt lat="47.36443" lon="-0.71854">
        <ele>19.699219</ele>
        <time>2014-09-02T09:46:14Z</time>
      </trkpt>
      <trkpt lat="47.36441" lon="-0.71869">
        <ele>19.699219</ele>
        <time>2014-09-02T09:46:16Z</time>
      </trkpt>
      <trkpt lat="47.36441" lon="-0.71884">
        <ele>19.699219</ele>
        <time>2014-09-02T09:46:18Z</time>
      </trkpt>
      <trkpt lat="47.36441" lon="-0.71957">
        <ele>19.5</ele>
        <time>2014-09-02T09:46:28Z</time>
      </trkpt>
      <trkpt lat="47.36445" lon="-0.72063">
        <ele>18.699219</ele>
        <time>2014-09-02T09:46:44Z</time>
      </trkpt>
      <trkpt lat="47.36466" lon="-0.72305">
        <ele>18.398438</ele>
        <time>2014-09-02T09:47:18Z</time>
      </trkpt>
      <trkpt lat="47.36464" lon="-0.72336">
        <ele>18.5</ele>
        <time>2014-09-02T09:47:22Z</time>
      </trkpt>
      <trkpt lat="47.36462" lon="-0.72351">
        <ele>18.5</ele>
        <time>2014-09-02T09:47:24Z</time>
      </trkpt>
      <trkpt lat="47.36458" lon="-0.72382">
        <ele>18.5</ele>
        <time>2014-09-02T09:47:28Z</time>
      </trkpt>
      <trkpt lat="47.36441" lon="-0.72457">
        <ele>18.5</ele>
        <time>2014-09-02T09:47:38Z</time>
      </trkpt>
      <trkpt lat="47.36388" lon="-0.72655">
        <ele>19.398438</ele>
        <time>2014-09-02T09:48:06Z</time>
      </trkpt>
      <trkpt lat="47.36386" lon="-0.7267">
        <ele>19.5</ele>
        <time>2014-09-02T09:48:08Z</time>
      </trkpt>
      <trkpt lat="47.36386" lon="-0.72685">
        <ele>19.699219</ele>
        <time>2014-09-02T09:48:10Z</time>
      </trkpt>
      <trkpt lat="47.36388" lon="-0.72699">
        <ele>19.796875</ele>
        <time>2014-09-02T09:48:12Z</time>
      </trkpt>
      <trkpt lat="47.36392" lon="-0.72713">
        <ele>19.898438</ele>
        <time>2014-09-02T09:48:14Z</time>
      </trkpt>
      <trkpt lat="47.36398" lon="-0.72725">
        <ele>20.199219</ele>
        <time>2014-09-02T09:48:16Z</time>
      </trkpt>
      <trkpt lat="47.36404" lon="-0.72737">
        <ele>20.398438</ele>
        <time>2014-09-02T09:48:18Z</time>
      </trkpt>
      <trkpt lat="47.36429" lon="-0.72784">
        <ele>20.699219</ele>
        <time>2014-09-02T09:48:26Z</time>
      </trkpt>
      <trkpt lat="47.36446" lon="-0.72824">
        <ele>21.097656</ele>
        <time>2014-09-02T09:48:32Z</time>
      </trkpt>
      <trkpt lat="47.36515" lon="-0.73001">
        <ele>21.199219</ele>
        <time>2014-09-02T09:48:58Z</time>
      </trkpt>
      <trkpt lat="47.36519" lon="-0.73015">
        <ele>21.097656</ele>
        <time>2014-09-02T09:49:00Z</time>
      </trkpt>
      <trkpt lat="47.36522" lon="-0.7303">
        <ele>21</ele>
        <time>2014-09-02T09:49:02Z</time>
      </trkpt>
      <trkpt lat="47.36524" lon="-0.73046">
        <ele>20.5</ele>
        <time>2014-09-02T09:49:04Z</time>
      </trkpt>
      <trkpt lat="47.36526" lon="-0.73061">
        <ele>19.898438</ele>
        <time>2014-09-02T09:49:06Z</time>
      </trkpt>
      <trkpt lat="47.36528" lon="-0.73076">
        <ele>19.199219</ele>
        <time>2014-09-02T09:49:08Z</time>
      </trkpt>
      <trkpt lat="47.36533" lon="-0.7309">
        <ele>18.296875</ele>
        <time>2014-09-02T09:49:10Z</time>
      </trkpt>
      <trkpt lat="47.36538" lon="-0.73103">
        <ele>18</ele>
        <time>2014-09-02T09:49:12Z</time>
      </trkpt>
      <trkpt lat="47.36566" lon="-0.73167">
        <ele>18.597656</ele>
        <time>2014-09-02T09:49:22Z</time>
      </trkpt>
      <trkpt lat="47.36574" lon="-0.73196">
        <ele>18.796875</ele>
        <time>2014-09-02T09:49:26Z</time>
      </trkpt>
      <trkpt lat="47.36595" lon="-0.7327">
        <ele>18.898438</ele>
        <time>2014-09-02T09:49:36Z</time>
      </trkpt>
      <trkpt lat="47.36672" lon="-0.7349">
        <ele>19.597656</ele>
        <time>2014-09-02T09:50:08Z</time>
      </trkpt>
      <trkpt lat="47.367" lon="-0.73622">
        <ele>20.097656</ele>
        <time>2014-09-02T09:50:26Z</time>
      </trkpt>
      <trkpt lat="47.36789" lon="-0.74083">
        <ele>19.597656</ele>
        <time>2014-09-02T09:51:28Z</time>
      </trkpt>
      <trkpt lat="47.36797" lon="-0.7411">
        <ele>18.398438</ele>
        <time>2014-09-02T09:51:32Z</time>
      </trkpt>
      <trkpt lat="47.36827" lon="-0.74199">
        <ele>16.097656</ele>
        <time>2014-09-02T09:51:46Z</time>
      </trkpt>
      <trkpt lat="47.36844" lon="-0.74252">
        <ele>16.398438</ele>
        <time>2014-09-02T09:51:54Z</time>
      </trkpt>
      <trkpt lat="47.36847" lon="-0.74265">
        <ele>16.597656</ele>
        <time>2014-09-02T09:51:56Z</time>
      </trkpt>
      <trkpt lat="47.36847" lon="-0.74279">
        <ele>16.898438</ele>
        <time>2014-09-02T09:51:58Z</time>
      </trkpt>
      <trkpt lat="47.36846" lon="-0.74293">
        <ele>17.199219</ele>
        <time>2014-09-02T09:52:00Z</time>
      </trkpt>
      <trkpt lat="47.36843" lon="-0.74306">
        <ele>17.597656</ele>
        <time>2014-09-02T09:52:02Z</time>
      </trkpt>
      <trkpt lat="47.36839" lon="-0.74319">
        <ele>17.898438</ele>
        <time>2014-09-02T09:52:04Z</time>
      </trkpt>
      <trkpt lat="47.36835" lon="-0.74331">
        <ele>18.199219</ele>
        <time>2014-09-02T09:52:06Z</time>
      </trkpt>
      <trkpt lat="47.36817" lon="-0.74383">
        <ele>18.898438</ele>
        <time>2014-09-02T09:52:14Z</time>
      </trkpt>
      <trkpt lat="47.36814" lon="-0.74397">
        <ele>19</ele>
        <time>2014-09-02T09:52:16Z</time>
      </trkpt>
      <trkpt lat="47.36813" lon="-0.74412">
        <ele>19.097656</ele>
        <time>2014-09-02T09:52:18Z</time>
      </trkpt>
      <trkpt lat="47.3681" lon="-0.74471">
        <ele>19.398438</ele>
        <time>2014-09-02T09:52:26Z</time>
      </trkpt>
      <trkpt lat="47.36811" lon="-0.74485">
        <ele>19.699219</ele>
        <time>2014-09-02T09:52:28Z</time>
      </trkpt>
      <trkpt lat="47.36815" lon="-0.74498">
        <ele>20.097656</ele>
        <time>2014-09-02T09:52:30Z</time>
      </trkpt>
      <trkpt lat="47.36823" lon="-0.74525">
        <ele>19.898438</ele>
        <time>2014-09-02T09:52:34Z</time>
      </trkpt>
      <trkpt lat="47.3685" lon="-0.74592">
        <ele>20.097656</ele>
        <time>2014-09-02T09:52:44Z</time>
      </trkpt>
      <trkpt lat="47.36909" lon="-0.74767">
        <ele>20.296875</ele>
        <time>2014-09-02T09:53:10Z</time>
      </trkpt>
      <trkpt lat="47.36948" lon="-0.74894">
        <ele>20.398438</ele>
        <time>2014-09-02T09:53:28Z</time>
      </trkpt>
      <trkpt lat="47.36958" lon="-0.74937">
        <ele>20.699219</ele>
        <time>2014-09-02T09:53:34Z</time>
      </trkpt>
      <trkpt lat="47.37021" lon="-0.7524">
        <ele>21.097656</ele>
        <time>2014-09-02T09:54:16Z</time>
      </trkpt>
      <trkpt lat="47.37025" lon="-0.75253">
        <ele>21.097656</ele>
        <time>2014-09-02T09:54:18Z</time>
      </trkpt>
      <trkpt lat="47.37029" lon="-0.75266">
        <ele>21.097656</ele>
        <time>2014-09-02T09:54:20Z</time>
      </trkpt>
      <trkpt lat="47.37035" lon="-0.7528">
        <ele>20.898438</ele>
        <time>2014-09-02T09:54:23Z</time>
      </trkpt>
      <trkpt lat="47.37041" lon="-0.75292">
        <ele>20.898438</ele>
        <time>2014-09-02T09:54:26Z</time>
      </trkpt>
      <trkpt lat="47.37043" lon="-0.75308">
        <ele>20.597656</ele>
        <time>2014-09-02T09:54:32Z</time>
      </trkpt>
      <trkpt lat="47.37036" lon="-0.75317">
        <ele>20.5</ele>
        <time>2014-09-02T09:54:35Z</time>
      </trkpt>
      <trkpt lat="47.37026" lon="-0.75323">
        <ele>20.296875</ele>
        <time>2014-09-02T09:54:38Z</time>
      </trkpt>
      <trkpt lat="47.36921" lon="-0.75382">
        <ele>22.699219</ele>
        <time>2014-09-02T09:55:05Z</time>
      </trkpt>
      <trkpt lat="47.3691" lon="-0.75387">
        <ele>23.296875</ele>
        <time>2014-09-02T09:55:08Z</time>
      </trkpt>
      <trkpt lat="47.36901" lon="-0.75395">
        <ele>22.398438</ele>
        <time>2014-09-02T09:55:11Z</time>
      </trkpt>
      <trkpt lat="47.36891" lon="-0.754">
        <ele>22.097656</ele>
        <time>2014-09-02T09:55:14Z</time>
      </trkpt>
      <trkpt lat="47.36729" lon="-0.75489">
        <ele>18.097656</ele>
        <time>2014-09-02T09:55:56Z</time>
      </trkpt>
      <trkpt lat="47.36719" lon="-0.75492">
        <ele>17.398438</ele>
        <time>2014-09-02T09:55:58Z</time>
      </trkpt>
      <trkpt lat="47.36709" lon="-0.75498">
        <ele>17</ele>
        <time>2014-09-02T09:56:00Z</time>
      </trkpt>
      <trkpt lat="47.36415" lon="-0.75658">
        <ele>21.796875</ele>
        <time>2014-09-02T09:56:58Z</time>
      </trkpt>
      <trkpt lat="47.36407" lon="-0.75665">
        <ele>20.296875</ele>
        <time>2014-09-02T09:57:01Z</time>
      </trkpt>
      <trkpt lat="47.36397" lon="-0.75671">
        <ele>18.898438</ele>
        <time>2014-09-02T09:57:04Z</time>
      </trkpt>
      <trkpt lat="47.36367" lon="-0.75689">
        <ele>13.5</ele>
        <time>2014-09-02T09:57:13Z</time>
      </trkpt>
      <trkpt lat="47.36356" lon="-0.75693">
        <ele>11.199219</ele>
        <time>2014-09-02T09:57:16Z</time>
      </trkpt>
      <trkpt lat="47.36346" lon="-0.757">
        <ele>10.5</ele>
        <time>2014-09-02T09:57:19Z</time>
      </trkpt>
      <trkpt lat="47.36333" lon="-0.75705">
        <ele>10</ele>
        <time>2014-09-02T09:57:22Z</time>
      </trkpt>
      <trkpt lat="47.36324" lon="-0.7571">
        <ele>9.597656</ele>
        <time>2014-09-02T09:57:24Z</time>
      </trkpt>
      <trkpt lat="47.36293" lon="-0.7573">
        <ele>8.398438</ele>
        <time>2014-09-02T09:57:30Z</time>
      </trkpt>
      <trkpt lat="47.36285" lon="-0.75744">
        <ele>9.199219</ele>
        <time>2014-09-02T09:57:33Z</time>
      </trkpt>
      <trkpt lat="47.36283" lon="-0.75763">
        <ele>9.398438</ele>
        <time>2014-09-02T09:57:36Z</time>
      </trkpt>
      <trkpt lat="47.36285" lon="-0.7578">
        <ele>8.898438</ele>
        <time>2014-09-02T09:57:39Z</time>
      </trkpt>
      <trkpt lat="47.36295" lon="-0.75783">
        <ele>8</ele>
        <time>2014-09-02T09:57:43Z</time>
      </trkpt>
      <trkpt lat="47.36305" lon="-0.7578">
        <ele>7.597656</ele>
        <time>2014-09-02T09:57:45Z</time>
      </trkpt>
      <trkpt lat="47.36315" lon="-0.75776">
        <ele>7.398438</ele>
        <time>2014-09-02T09:57:47Z</time>
      </trkpt>
      <trkpt lat="47.36323" lon="-0.7577">
        <ele>8.097656</ele>
        <time>2014-09-02T09:57:49Z</time>
      </trkpt>
      <trkpt lat="47.36328" lon="-0.75759">
        <ele>9.097656</ele>
        <time>2014-09-02T09:57:52Z</time>
      </trkpt>
      <trkpt lat="47.36333" lon="-0.75743">
        <ele>8.296875</ele>
        <time>2014-09-02T09:57:56Z</time>
      </trkpt>
      <trkpt lat="47.3634" lon="-0.75714">
        <ele>7.097656</ele>
        <time>2014-09-02T09:58:02Z</time>
      </trkpt>
      <trkpt lat="47.3634" lon="-0.757">
        <ele>7.597656</ele>
        <time>2014-09-02T09:58:05Z</time>
      </trkpt>
      <trkpt lat="47.36337" lon="-0.75686">
        <ele>8.097656</ele>
        <time>2014-09-02T09:58:08Z</time>
      </trkpt>
      <trkpt lat="47.36327" lon="-0.75682">
        <ele>7.898438</ele>
        <time>2014-09-02T09:58:11Z</time>
      </trkpt>
      <trkpt lat="47.36318" lon="-0.75686">
        <ele>7</ele>
        <time>2014-09-02T09:58:14Z</time>
      </trkpt>
      <trkpt lat="47.36308" lon="-0.75692">
        <ele>6.796875</ele>
        <time>2014-09-02T09:58:17Z</time>
      </trkpt>
      <trkpt lat="47.36279" lon="-0.75709">
        <ele>7.898438</ele>
        <time>2014-09-02T09:58:26Z</time>
      </trkpt>
      <trkpt lat="47.36269" lon="-0.75708">
        <ele>7.398438</ele>
        <time>2014-09-02T09:58:30Z</time>
      </trkpt>
      <trkpt lat="47.36263" lon="-0.75695">
        <ele>6.699219</ele>
        <time>2014-09-02T09:58:33Z</time>
      </trkpt>
      <trkpt lat="47.36258" lon="-0.75679">
        <ele>7</ele>
        <time>2014-09-02T09:58:36Z</time>
      </trkpt>
      <trkpt lat="47.36246" lon="-0.75634">
        <ele>10.398438</ele>
        <time>2014-09-02T09:58:47Z</time>
      </trkpt>
      <trkpt lat="47.36242" lon="-0.75617">
        <ele>11.597656</ele>
        <time>2014-09-02T09:58:51Z</time>
      </trkpt>
      <trkpt lat="47.3624" lon="-0.75601">
        <ele>12.699219</ele>
        <time>2014-09-02T09:58:54Z</time>
      </trkpt>
      <trkpt lat="47.36235" lon="-0.75585">
        <ele>14.097656</ele>
        <time>2014-09-02T09:58:57Z</time>
      </trkpt>
      <trkpt lat="47.36226" lon="-0.75554">
        <ele>15.097656</ele>
        <time>2014-09-02T09:59:03Z</time>
      </trkpt>
      <trkpt lat="47.3618" lon="-0.75374">
        <ele>15.796875</ele>
        <time>2014-09-02T09:59:34Z</time>
      </trkpt>
      <trkpt lat="47.36175" lon="-0.75362">
        <ele>15.898438</ele>
        <time>2014-09-02T09:59:36Z</time>
      </trkpt>
      <trkpt lat="47.36114" lon="-0.75207">
        <ele>16.796875</ele>
        <time>2014-09-02T10:00:02Z</time>
      </trkpt>
      <trkpt lat="47.36108" lon="-0.75189">
        <ele>16.699219</ele>
        <time>2014-09-02T10:00:05Z</time>
      </trkpt>
      <trkpt lat="47.36104" lon="-0.75171">
        <ele>16.699219</ele>
        <time>2014-09-02T10:00:08Z</time>
      </trkpt>
      <trkpt lat="47.36101" lon="-0.75158">
        <ele>16.796875</ele>
        <time>2014-09-02T10:00:10Z</time>
      </trkpt>
      <trkpt lat="47.36098" lon="-0.75144">
        <ele>16.898438</ele>
        <time>2014-09-02T10:00:12Z</time>
      </trkpt>
      <trkpt lat="47.36089" lon="-0.75085">
        <ele>17.597656</ele>
        <time>2014-09-02T10:00:21Z</time>
      </trkpt>
      <trkpt lat="47.36077" lon="-0.75028">
        <ele>17.898438</ele>
        <time>2014-09-02T10:00:30Z</time>
      </trkpt>
      <trkpt lat="47.36075" lon="-0.75015">
        <ele>18.097656</ele>
        <time>2014-09-02T10:00:33Z</time>
      </trkpt>
      <trkpt lat="47.36074" lon="-0.75001">
        <ele>17.898438</ele>
        <time>2014-09-02T10:00:36Z</time>
      </trkpt>
      <trkpt lat="47.36074" lon="-0.74986">
        <ele>17.296875</ele>
        <time>2014-09-02T10:00:39Z</time>
      </trkpt>
      <trkpt lat="47.36074" lon="-0.74933">
        <ele>17</ele>
        <time>2014-09-02T10:00:48Z</time>
      </trkpt>
      <trkpt lat="47.36073" lon="-0.74914">
        <ele>17</ele>
        <time>2014-09-02T10:00:51Z</time>
      </trkpt>
      <trkpt lat="47.36062" lon="-0.74817">
        <ele>17.199219</ele>
        <time>2014-09-02T10:01:06Z</time>
      </trkpt>
      <trkpt lat="47.36055" lon="-0.74803">
        <ele>16.296875</ele>
        <time>2014-09-02T10:01:09Z</time>
      </trkpt>
      <trkpt lat="47.36046" lon="-0.74801">
        <ele>15.796875</ele>
        <time>2014-09-02T10:01:11Z</time>
      </trkpt>
      <trkpt lat="47.36036" lon="-0.74806">
        <ele>15.597656</ele>
        <time>2014-09-02T10:01:13Z</time>
      </trkpt>
      <trkpt lat="47.35995" lon="-0.74824">
        <ele>15.796875</ele>
        <time>2014-09-02T10:01:21Z</time>
      </trkpt>
      <trkpt lat="47.35985" lon="-0.74826">
        <ele>16</ele>
        <time>2014-09-02T10:01:23Z</time>
      </trkpt>
      <trkpt lat="47.35976" lon="-0.74825">
        <ele>16</ele>
        <time>2014-09-02T10:01:25Z</time>
      </trkpt>
      <trkpt lat="47.35922" lon="-0.74818">
        <ele>16.699219</ele>
        <time>2014-09-02T10:01:38Z</time>
      </trkpt>
      <trkpt lat="47.35911" lon="-0.74816">
        <ele>16.597656</ele>
        <time>2014-09-02T10:01:41Z</time>
      </trkpt>
      <trkpt lat="47.35902" lon="-0.74817">
        <ele>16.597656</ele>
        <time>2014-09-02T10:01:44Z</time>
      </trkpt>
      <trkpt lat="47.35897" lon="-0.74832">
        <ele>16</ele>
        <time>2014-09-02T10:01:48Z</time>
      </trkpt>
      <trkpt lat="47.35895" lon="-0.74845">
        <ele>14</ele>
        <time>2014-09-02T10:01:51Z</time>
      </trkpt>
      <trkpt lat="47.35884" lon="-0.74853">
        <ele>15.097656</ele>
        <time>2014-09-02T10:01:54Z</time>
      </trkpt>
      <trkpt lat="47.35874" lon="-0.74854">
        <ele>14.597656</ele>
        <time>2014-09-02T10:01:56Z</time>
      </trkpt>
      <trkpt lat="47.35824" lon="-0.74859">
        <ele>7.199219</ele>
        <time>2014-09-02T10:02:08Z</time>
      </trkpt>
      <trkpt lat="47.35818" lon="-0.7487">
        <ele>6.097656</ele>
        <time>2014-09-02T10:02:13Z</time>
      </trkpt>
      <trkpt lat="47.35821" lon="-0.74884">
        <ele>5.296875</ele>
        <time>2014-09-02T10:02:17Z</time>
      </trkpt>
      <trkpt lat="47.35826" lon="-0.74899">
        <ele>2.199219</ele>
        <time>2014-09-02T10:02:22Z</time>
      </trkpt>
      <trkpt lat="47.35828" lon="-0.74919">
        <ele>0.796875</ele>
        <time>2014-09-02T10:02:25Z</time>
      </trkpt>
      <trkpt lat="47.35826" lon="-0.74937">
        <ele>-0.097656</ele>
        <time>2014-09-02T10:02:27Z</time>
      </trkpt>
      <trkpt lat="47.35821" lon="-0.75004">
        <ele>2.398438</ele>
        <time>2014-09-02T10:02:35Z</time>
      </trkpt>
      <trkpt lat="47.35815" lon="-0.75033">
        <ele>2.898438</ele>
        <time>2014-09-02T10:02:39Z</time>
      </trkpt>
      <trkpt lat="47.35812" lon="-0.75047">
        <ele>3.5</ele>
        <time>2014-09-02T10:02:41Z</time>
      </trkpt>
      <trkpt lat="47.35792" lon="-0.75143">
        <ele>9</ele>
        <time>2014-09-02T10:02:55Z</time>
      </trkpt>
      <trkpt lat="47.35785" lon="-0.75185">
        <ele>11.796875</ele>
        <time>2014-09-02T10:03:01Z</time>
      </trkpt>
      <trkpt lat="47.35782" lon="-0.75199">
        <ele>12.597656</ele>
        <time>2014-09-02T10:03:03Z</time>
      </trkpt>
      <trkpt lat="47.35744" lon="-0.75352">
        <ele>17</ele>
        <time>2014-09-02T10:03:25Z</time>
      </trkpt>
      <trkpt lat="47.35734" lon="-0.75366">
        <ele>16.398438</ele>
        <time>2014-09-02T10:03:28Z</time>
      </trkpt>
      <trkpt lat="47.35722" lon="-0.75369">
        <ele>16.199219</ele>
        <time>2014-09-02T10:03:30Z</time>
      </trkpt>
      <trkpt lat="47.35709" lon="-0.75371">
        <ele>16</ele>
        <time>2014-09-02T10:03:32Z</time>
      </trkpt>
      <trkpt lat="47.35697" lon="-0.75377">
        <ele>15.5</ele>
        <time>2014-09-02T10:03:34Z</time>
      </trkpt>
      <trkpt lat="47.35685" lon="-0.75384">
        <ele>14.296875</ele>
        <time>2014-09-02T10:03:36Z</time>
      </trkpt>
      <trkpt lat="47.35654" lon="-0.75404">
        <ele>12.296875</ele>
        <time>2014-09-02T10:03:42Z</time>
      </trkpt>
      <trkpt lat="47.35644" lon="-0.75408">
        <ele>12</ele>
        <time>2014-09-02T10:03:44Z</time>
      </trkpt>
      <trkpt lat="47.3554" lon="-0.75441">
        <ele>12.898438</ele>
        <time>2014-09-02T10:04:04Z</time>
      </trkpt>
      <trkpt lat="47.3553" lon="-0.75447">
        <ele>13</ele>
        <time>2014-09-02T10:04:06Z</time>
      </trkpt>
      <trkpt lat="47.3552" lon="-0.75455">
        <ele>13</ele>
        <time>2014-09-02T10:04:08Z</time>
      </trkpt>
      <trkpt lat="47.35512" lon="-0.75465">
        <ele>13.097656</ele>
        <time>2014-09-02T10:04:10Z</time>
      </trkpt>
      <trkpt lat="47.35387" lon="-0.75625">
        <ele>15.398438</ele>
        <time>2014-09-02T10:04:42Z</time>
      </trkpt>
      <trkpt lat="47.35378" lon="-0.75638">
        <ele>15.5</ele>
        <time>2014-09-02T10:04:45Z</time>
      </trkpt>
      <trkpt lat="47.35373" lon="-0.7565">
        <ele>14.796875</ele>
        <time>2014-09-02T10:04:49Z</time>
      </trkpt>
      <trkpt lat="47.35377" lon="-0.75665">
        <ele>13.699219</ele>
        <time>2014-09-02T10:04:55Z</time>
      </trkpt>
      <trkpt lat="47.35383" lon="-0.75676">
        <ele>11.898438</ele>
        <time>2014-09-02T10:04:58Z</time>
      </trkpt>
      <trkpt lat="47.35387" lon="-0.75689">
        <ele>9.898438</ele>
        <time>2014-09-02T10:05:01Z</time>
      </trkpt>
      <trkpt lat="47.35397" lon="-0.75718">
        <ele>8</ele>
        <time>2014-09-02T10:05:07Z</time>
      </trkpt>
      <trkpt lat="47.35423" lon="-0.75788">
        <ele>6.898438</ele>
        <time>2014-09-02T10:05:20Z</time>
      </trkpt>
      <trkpt lat="47.3544" lon="-0.75824">
        <ele>9.296875</ele>
        <time>2014-09-02T10:05:26Z</time>
      </trkpt>
      <trkpt lat="47.35474" lon="-0.75901">
        <ele>11.199219</ele>
        <time>2014-09-02T10:05:39Z</time>
      </trkpt>
      <trkpt lat="47.35479" lon="-0.75919">
        <ele>11.097656</ele>
        <time>2014-09-02T10:05:42Z</time>
      </trkpt>
      <trkpt lat="47.35483" lon="-0.75938">
        <ele>11.5</ele>
        <time>2014-09-02T10:05:45Z</time>
      </trkpt>
      <trkpt lat="47.35485" lon="-0.75951">
        <ele>11.898438</ele>
        <time>2014-09-02T10:05:47Z</time>
      </trkpt>
      <trkpt lat="47.35487" lon="-0.75966">
        <ele>10.699219</ele>
        <time>2014-09-02T10:05:49Z</time>
      </trkpt>
      <trkpt lat="47.35488" lon="-0.76029">
        <ele>11.398438</ele>
        <time>2014-09-02T10:05:59Z</time>
      </trkpt>
      <trkpt lat="47.35488" lon="-0.76047">
        <ele>12.199219</ele>
        <time>2014-09-02T10:06:03Z</time>
      </trkpt>
      <trkpt lat="47.35485" lon="-0.76063">
        <ele>13.5</ele>
        <time>2014-09-02T10:06:06Z</time>
      </trkpt>
      <trkpt lat="47.35486" lon="-0.76079">
        <ele>14.296875</ele>
        <time>2014-09-02T10:06:09Z</time>
      </trkpt>
      <trkpt lat="47.35488" lon="-0.76094">
        <ele>14.199219</ele>
        <time>2014-09-02T10:06:12Z</time>
      </trkpt>
      <trkpt lat="47.35488" lon="-0.76108">
        <ele>13.398438</ele>
        <time>2014-09-02T10:06:15Z</time>
      </trkpt>
      <trkpt lat="47.35486" lon="-0.76122">
        <ele>9</ele>
        <time>2014-09-02T10:06:19Z</time>
      </trkpt>
      <trkpt lat="47.35486" lon="-0.76136">
        <ele>9.296875</ele>
        <time>2014-09-02T10:06:26Z</time>
      </trkpt>
      <trkpt lat="47.35488" lon="-0.76149">
        <ele>19.398438</ele>
        <time>2014-09-02T10:06:32Z</time>
      </trkpt>
      <trkpt lat="47.35495" lon="-0.76159">
        <ele>22</ele>
        <time>2014-09-02T10:06:47Z</time>
      </trkpt>
      <trkpt lat="47.35499" lon="-0.76174">
        <ele>22.097656</ele>
        <time>2014-09-02T10:06:58Z</time>
      </trkpt>
      <trkpt lat="47.35502" lon="-0.76187">
        <ele>21.796875</ele>
        <time>2014-09-02T10:07:01Z</time>
      </trkpt>
      <trkpt lat="47.35504" lon="-0.762">
        <ele>22.097656</ele>
        <time>2014-09-02T10:07:04Z</time>
      </trkpt>
      <trkpt lat="47.35511" lon="-0.76277">
        <ele>20.5</ele>
        <time>2014-09-02T10:07:21Z</time>
      </trkpt>
      <trkpt lat="47.35526" lon="-0.76377">
        <ele>20.398438</ele>
        <time>2014-09-02T10:07:36Z</time>
      </trkpt>
      <trkpt lat="47.3553" lon="-0.76396">
        <ele>19.898438</ele>
        <time>2014-09-02T10:07:39Z</time>
      </trkpt>
      <trkpt lat="47.35534" lon="-0.76413">
        <ele>19.898438</ele>
        <time>2014-09-02T10:07:42Z</time>
      </trkpt>
      <trkpt lat="47.35541" lon="-0.7643">
        <ele>19.796875</ele>
        <time>2014-09-02T10:07:45Z</time>
      </trkpt>
      <trkpt lat="47.35547" lon="-0.76447">
        <ele>20</ele>
        <time>2014-09-02T10:07:48Z</time>
      </trkpt>
      <trkpt lat="47.35552" lon="-0.76465">
        <ele>20.296875</ele>
        <time>2014-09-02T10:07:51Z</time>
      </trkpt>
      <trkpt lat="47.35555" lon="-0.76478">
        <ele>20.199219</ele>
        <time>2014-09-02T10:07:54Z</time>
      </trkpt>
      <trkpt lat="47.35557" lon="-0.76493">
        <ele>19.898438</ele>
        <time>2014-09-02T10:07:59Z</time>
      </trkpt>
      <trkpt lat="47.3556" lon="-0.76537">
        <ele>18.796875</ele>
        <time>2014-09-02T10:08:09Z</time>
      </trkpt>
      <trkpt lat="47.35561" lon="-0.76553">
        <ele>18</ele>
        <time>2014-09-02T10:08:12Z</time>
      </trkpt>
      <trkpt lat="47.35564" lon="-0.7657">
        <ele>17.097656</ele>
        <time>2014-09-02T10:08:15Z</time>
      </trkpt>
      <trkpt lat="47.35569" lon="-0.76585">
        <ele>16.199219</ele>
        <time>2014-09-02T10:08:18Z</time>
      </trkpt>
      <trkpt lat="47.35575" lon="-0.76621">
        <ele>14.5</ele>
        <time>2014-09-02T10:08:24Z</time>
      </trkpt>
      <trkpt lat="47.3558" lon="-0.76639">
        <ele>14.597656</ele>
        <time>2014-09-02T10:08:27Z</time>
      </trkpt>
      <trkpt lat="47.35586" lon="-0.76657">
        <ele>14</ele>
        <time>2014-09-02T10:08:30Z</time>
      </trkpt>
      <trkpt lat="47.35598" lon="-0.76685">
        <ele>13.597656</ele>
        <time>2014-09-02T10:08:35Z</time>
      </trkpt>
      <trkpt lat="47.35603" lon="-0.76696">
        <ele>13.699219</ele>
        <time>2014-09-02T10:08:37Z</time>
      </trkpt>
      <trkpt lat="47.35618" lon="-0.7672">
        <ele>12.898438</ele>
        <time>2014-09-02T10:08:42Z</time>
      </trkpt>
      <trkpt lat="47.35628" lon="-0.76733">
        <ele>13</ele>
        <time>2014-09-02T10:08:45Z</time>
      </trkpt>
      <trkpt lat="47.35659" lon="-0.76776">
        <ele>15.597656</ele>
        <time>2014-09-02T10:08:55Z</time>
      </trkpt>
      <trkpt lat="47.35667" lon="-0.7679">
        <ele>13.597656</ele>
        <time>2014-09-02T10:08:58Z</time>
      </trkpt>
      <trkpt lat="47.35708" lon="-0.76858">
        <ele>13.296875</ele>
        <time>2014-09-02T10:09:12Z</time>
      </trkpt>
      <trkpt lat="47.35723" lon="-0.76885">
        <ele>11.796875</ele>
        <time>2014-09-02T10:09:18Z</time>
      </trkpt>
      <trkpt lat="47.35747" lon="-0.76931">
        <ele>13.097656</ele>
        <time>2014-09-02T10:09:37Z</time>
      </trkpt>
      <trkpt lat="47.35755" lon="-0.76943">
        <ele>12.699219</ele>
        <time>2014-09-02T10:09:41Z</time>
      </trkpt>
      <trkpt lat="47.35783" lon="-0.76991">
        <ele>11.5</ele>
        <time>2014-09-02T10:09:53Z</time>
      </trkpt>
      <trkpt lat="47.35789" lon="-0.77004">
        <ele>9.597656</ele>
        <time>2014-09-02T10:09:56Z</time>
      </trkpt>
      <trkpt lat="47.35881" lon="-0.77171">
        <ele>11.796875</ele>
        <time>2014-09-02T10:10:27Z</time>
      </trkpt>
      <trkpt lat="47.35888" lon="-0.77183">
        <ele>11.597656</ele>
        <time>2014-09-02T10:10:29Z</time>
      </trkpt>
      <trkpt lat="47.35914" lon="-0.77221">
        <ele>11.199219</ele>
        <time>2014-09-02T10:10:35Z</time>
      </trkpt>
      <trkpt lat="47.35923" lon="-0.77231">
        <ele>11.097656</ele>
        <time>2014-09-02T10:10:37Z</time>
      </trkpt>
      <trkpt lat="47.35932" lon="-0.77239">
        <ele>11.699219</ele>
        <time>2014-09-02T10:10:39Z</time>
      </trkpt>
      <trkpt lat="47.35944" lon="-0.77245">
        <ele>12</ele>
        <time>2014-09-02T10:10:42Z</time>
      </trkpt>
      <trkpt lat="47.35968" lon="-0.7726">
        <ele>13.199219</ele>
        <time>2014-09-02T10:10:48Z</time>
      </trkpt>
      <trkpt lat="47.35979" lon="-0.77264">
        <ele>13.898438</ele>
        <time>2014-09-02T10:10:51Z</time>
      </trkpt>
      <trkpt lat="47.3599" lon="-0.77259">
        <ele>14.699219</ele>
        <time>2014-09-02T10:10:54Z</time>
      </trkpt>
      <trkpt lat="47.36001" lon="-0.77253">
        <ele>15.398438</ele>
        <time>2014-09-02T10:10:57Z</time>
      </trkpt>
      <trkpt lat="47.36052" lon="-0.77218">
        <ele>20</ele>
        <time>2014-09-02T10:11:12Z</time>
      </trkpt>
      <trkpt lat="47.36063" lon="-0.77221">
        <ele>20.097656</ele>
        <time>2014-09-02T10:11:17Z</time>
      </trkpt>
      <trkpt lat="47.36067" lon="-0.77233">
        <ele>19.296875</ele>
        <time>2014-09-02T10:11:20Z</time>
      </trkpt>
      <trkpt lat="47.36129" lon="-0.77428">
        <ele>19.796875</ele>
        <time>2014-09-02T10:11:55Z</time>
      </trkpt>
      <trkpt lat="47.36136" lon="-0.77453">
        <ele>20.199219</ele>
        <time>2014-09-02T10:11:59Z</time>
      </trkpt>
      <trkpt lat="47.36143" lon="-0.77467">
        <ele>20.398438</ele>
        <time>2014-09-02T10:12:02Z</time>
      </trkpt>
      <trkpt lat="47.36154" lon="-0.77474">
        <ele>20.796875</ele>
        <time>2014-09-02T10:12:05Z</time>
      </trkpt>
      <trkpt lat="47.36165" lon="-0.77483">
        <ele>21.5</ele>
        <time>2014-09-02T10:12:08Z</time>
      </trkpt>
      <trkpt lat="47.36173" lon="-0.77497">
        <ele>20.796875</ele>
        <time>2014-09-02T10:12:11Z</time>
      </trkpt>
      <trkpt lat="47.36179" lon="-0.77513">
        <ele>20.5</ele>
        <time>2014-09-02T10:12:14Z</time>
      </trkpt>
      <trkpt lat="47.36182" lon="-0.77527">
        <ele>20.699219</ele>
        <time>2014-09-02T10:12:16Z</time>
      </trkpt>
      <trkpt lat="47.36183" lon="-0.7754">
        <ele>20.699219</ele>
        <time>2014-09-02T10:12:18Z</time>
      </trkpt>
      <trkpt lat="47.36182" lon="-0.77553">
        <ele>20.796875</ele>
        <time>2014-09-02T10:12:20Z</time>
      </trkpt>
      <trkpt lat="47.3618" lon="-0.77594">
        <ele>21.699219</ele>
        <time>2014-09-02T10:12:26Z</time>
      </trkpt>
      <trkpt lat="47.36181" lon="-0.77608">
        <ele>22.296875</ele>
        <time>2014-09-02T10:12:28Z</time>
      </trkpt>
      <trkpt lat="47.36181" lon="-0.77663">
        <ele>24.097656</ele>
        <time>2014-09-02T10:12:36Z</time>
      </trkpt>
      <trkpt lat="47.36181" lon="-0.77705">
        <ele>24.199219</ele>
        <time>2014-09-02T10:12:42Z</time>
      </trkpt>
      <trkpt lat="47.36183" lon="-0.77718">
        <ele>23.398438</ele>
        <time>2014-09-02T10:12:44Z</time>
      </trkpt>
      <trkpt lat="47.36198" lon="-0.77803">
        <ele>23.199219</ele>
        <time>2014-09-02T10:12:56Z</time>
      </trkpt>
      <trkpt lat="47.36199" lon="-0.77817">
        <ele>23.296875</ele>
        <time>2014-09-02T10:12:58Z</time>
      </trkpt>
      <trkpt lat="47.36203" lon="-0.7786">
        <ele>22.199219</ele>
        <time>2014-09-02T10:13:04Z</time>
      </trkpt>
      <trkpt lat="47.36208" lon="-0.77878">
        <ele>22</ele>
        <time>2014-09-02T10:13:07Z</time>
      </trkpt>
      <trkpt lat="47.36272" lon="-0.78083">
        <ele>18.699219</ele>
        <time>2014-09-02T10:13:38Z</time>
      </trkpt>
      <trkpt lat="47.36334" lon="-0.78236">
        <ele>17.898438</ele>
        <time>2014-09-02T10:14:02Z</time>
      </trkpt>
      <trkpt lat="47.36341" lon="-0.78264">
        <ele>18.097656</ele>
        <time>2014-09-02T10:14:06Z</time>
      </trkpt>
      <trkpt lat="47.36345" lon="-0.78277">
        <ele>18.796875</ele>
        <time>2014-09-02T10:14:08Z</time>
      </trkpt>
      <trkpt lat="47.3638" lon="-0.78381">
        <ele>15.398438</ele>
        <time>2014-09-02T10:14:24Z</time>
      </trkpt>
      <trkpt lat="47.36383" lon="-0.78395">
        <ele>15.199219</ele>
        <time>2014-09-02T10:14:26Z</time>
      </trkpt>
      <trkpt lat="47.36466" lon="-0.78712">
        <ele>17.597656</ele>
        <time>2014-09-02T10:15:10Z</time>
      </trkpt>
      <trkpt lat="47.3647" lon="-0.7874">
        <ele>17.296875</ele>
        <time>2014-09-02T10:15:14Z</time>
      </trkpt>
      <trkpt lat="47.36477" lon="-0.78796">
        <ele>16.796875</ele>
        <time>2014-09-02T10:15:22Z</time>
      </trkpt>
      <trkpt lat="47.3648" lon="-0.7881">
        <ele>16.699219</ele>
        <time>2014-09-02T10:15:24Z</time>
      </trkpt>
      <trkpt lat="47.36484" lon="-0.78823">
        <ele>16.796875</ele>
        <time>2014-09-02T10:15:26Z</time>
      </trkpt>
      <trkpt lat="47.36507" lon="-0.78901">
        <ele>18</ele>
        <time>2014-09-02T10:15:38Z</time>
      </trkpt>
      <trkpt lat="47.3653" lon="-0.78981">
        <ele>17.597656</ele>
        <time>2014-09-02T10:15:50Z</time>
      </trkpt>
      <trkpt lat="47.36535" lon="-0.78993">
        <ele>17.199219</ele>
        <time>2014-09-02T10:15:52Z</time>
      </trkpt>
      <trkpt lat="47.36547" lon="-0.79022">
        <ele>17</ele>
        <time>2014-09-02T10:15:57Z</time>
      </trkpt>
      <trkpt lat="47.36566" lon="-0.79064">
        <ele>15.5</ele>
        <time>2014-09-02T10:16:05Z</time>
      </trkpt>
      <trkpt lat="47.36572" lon="-0.79075">
        <ele>15.5</ele>
        <time>2014-09-02T10:16:07Z</time>
      </trkpt>
      <trkpt lat="47.36579" lon="-0.79085">
        <ele>15.597656</ele>
        <time>2014-09-02T10:16:09Z</time>
      </trkpt>
      <trkpt lat="47.36601" lon="-0.7911">
        <ele>16.097656</ele>
        <time>2014-09-02T10:16:15Z</time>
      </trkpt>
      <trkpt lat="47.3661" lon="-0.79125">
        <ele>16.296875</ele>
        <time>2014-09-02T10:16:18Z</time>
      </trkpt>
      <trkpt lat="47.36616" lon="-0.79136">
        <ele>16.699219</ele>
        <time>2014-09-02T10:16:20Z</time>
      </trkpt>
      <trkpt lat="47.36628" lon="-0.79163">
        <ele>16.199219</ele>
        <time>2014-09-02T10:16:25Z</time>
      </trkpt>
      <trkpt lat="47.36641" lon="-0.79197">
        <ele>14.699219</ele>
        <time>2014-09-02T10:16:31Z</time>
      </trkpt>
      <trkpt lat="47.36645" lon="-0.79215">
        <ele>14.5</ele>
        <time>2014-09-02T10:16:34Z</time>
      </trkpt>
      <trkpt lat="47.36646" lon="-0.79233">
        <ele>14.097656</ele>
        <time>2014-09-02T10:16:37Z</time>
      </trkpt>
      <trkpt lat="47.36645" lon="-0.7925">
        <ele>13</ele>
        <time>2014-09-02T10:16:40Z</time>
      </trkpt>
      <trkpt lat="47.36635" lon="-0.7937">
        <ele>14.398438</ele>
        <time>2014-09-02T10:17:06Z</time>
      </trkpt>
      <trkpt lat="47.36635" lon="-0.79384">
        <ele>14.5</ele>
        <time>2014-09-02T10:17:09Z</time>
      </trkpt>
      <trkpt lat="47.36636" lon="-0.79399">
        <ele>14.398438</ele>
        <time>2014-09-02T10:17:12Z</time>
      </trkpt>
      <trkpt lat="47.36638" lon="-0.79414">
        <ele>14.597656</ele>
        <time>2014-09-02T10:17:15Z</time>
      </trkpt>
      <trkpt lat="47.36641" lon="-0.79428">
        <ele>14.796875</ele>
        <time>2014-09-02T10:17:18Z</time>
      </trkpt>
      <trkpt lat="47.36654" lon="-0.79492">
        <ele>16.097656</ele>
        <time>2014-09-02T10:17:30Z</time>
      </trkpt>
      <trkpt lat="47.36659" lon="-0.79509">
        <ele>16.5</ele>
        <time>2014-09-02T10:17:33Z</time>
      </trkpt>
      <trkpt lat="47.36665" lon="-0.79525">
        <ele>16.898438</ele>
        <time>2014-09-02T10:17:36Z</time>
      </trkpt>
      <trkpt lat="47.36672" lon="-0.7954">
        <ele>17.097656</ele>
        <time>2014-09-02T10:17:39Z</time>
      </trkpt>
      <trkpt lat="47.3668" lon="-0.79554">
        <ele>17.5</ele>
        <time>2014-09-02T10:17:42Z</time>
      </trkpt>
      <trkpt lat="47.36686" lon="-0.79571">
        <ele>17.097656</ele>
        <time>2014-09-02T10:17:45Z</time>
      </trkpt>
      <trkpt lat="47.3669" lon="-0.7959">
        <ele>16.699219</ele>
        <time>2014-09-02T10:17:48Z</time>
      </trkpt>
      <trkpt lat="47.36691" lon="-0.79603">
        <ele>16.699219</ele>
        <time>2014-09-02T10:17:50Z</time>
      </trkpt>
      <trkpt lat="47.36691" lon="-0.79617">
        <ele>16.699219</ele>
        <time>2014-09-02T10:17:52Z</time>
      </trkpt>
      <trkpt lat="47.36693" lon="-0.79672">
        <ele>16.398438</ele>
        <time>2014-09-02T10:18:00Z</time>
      </trkpt>
      <trkpt lat="47.36694" lon="-0.79686">
        <ele>16.398438</ele>
        <time>2014-09-02T10:18:02Z</time>
      </trkpt>
      <trkpt lat="47.36697" lon="-0.79699">
        <ele>16.296875</ele>
        <time>2014-09-02T10:18:04Z</time>
      </trkpt>
      <trkpt lat="47.36746" lon="-0.79934">
        <ele>16.597656</ele>
        <time>2014-09-02T10:18:38Z</time>
      </trkpt>
      <trkpt lat="47.3675" lon="-0.79947">
        <ele>16.796875</ele>
        <time>2014-09-02T10:18:40Z</time>
      </trkpt>
      <trkpt lat="47.3676" lon="-0.79972">
        <ele>16.699219</ele>
        <time>2014-09-02T10:18:44Z</time>
      </trkpt>
      <trkpt lat="47.36777" lon="-0.80008">
        <ele>17.398438</ele>
        <time>2014-09-02T10:18:50Z</time>
      </trkpt>
      <trkpt lat="47.36784" lon="-0.8002">
        <ele>17.699219</ele>
        <time>2014-09-02T10:18:52Z</time>
      </trkpt>
      <trkpt lat="47.3679" lon="-0.80031">
        <ele>18</ele>
        <time>2014-09-02T10:18:54Z</time>
      </trkpt>
      <trkpt lat="47.36819" lon="-0.80071">
        <ele>18.898438</ele>
        <time>2014-09-02T10:19:02Z</time>
      </trkpt>
      <trkpt lat="47.3684" lon="-0.801">
        <ele>18.398438</ele>
        <time>2014-09-02T10:19:08Z</time>
      </trkpt>
      <trkpt lat="47.36944" lon="-0.80282">
        <ele>19.796875</ele>
        <time>2014-09-02T10:19:40Z</time>
      </trkpt>
      <trkpt lat="47.36953" lon="-0.80287">
        <ele>19.699219</ele>
        <time>2014-09-02T10:19:42Z</time>
      </trkpt>
      <trkpt lat="47.36962" lon="-0.80286">
        <ele>19.796875</ele>
        <time>2014-09-02T10:19:44Z</time>
      </trkpt>
      <trkpt lat="47.36971" lon="-0.80282">
        <ele>19.597656</ele>
        <time>2014-09-02T10:19:46Z</time>
      </trkpt>
      <trkpt lat="47.37116" lon="-0.8021">
        <ele>16.597656</ele>
        <time>2014-09-02T10:20:18Z</time>
      </trkpt>
      <trkpt lat="47.37125" lon="-0.80211">
        <ele>16.199219</ele>
        <time>2014-09-02T10:20:20Z</time>
      </trkpt>
      <trkpt lat="47.37138" lon="-0.80214">
        <ele>15.796875</ele>
        <time>2014-09-02T10:20:23Z</time>
      </trkpt>
      <trkpt lat="47.37148" lon="-0.80218">
        <ele>16</ele>
        <time>2014-09-02T10:20:26Z</time>
      </trkpt>
      <trkpt lat="47.37155" lon="-0.80228">
        <ele>16.597656</ele>
        <time>2014-09-02T10:20:29Z</time>
      </trkpt>
      <trkpt lat="47.3716" lon="-0.80244">
        <ele>17.296875</ele>
        <time>2014-09-02T10:20:32Z</time>
      </trkpt>
      <trkpt lat="47.37178" lon="-0.80314">
        <ele>19.199219</ele>
        <time>2014-09-02T10:20:43Z</time>
      </trkpt>
      <trkpt lat="47.37186" lon="-0.80355">
        <ele>19.398438</ele>
        <time>2014-09-02T10:20:49Z</time>
      </trkpt>
      <trkpt lat="47.37204" lon="-0.80454">
        <ele>19.898438</ele>
        <time>2014-09-02T10:21:03Z</time>
      </trkpt>
      <trkpt lat="47.37274" lon="-0.80729">
        <ele>23.097656</ele>
        <time>2014-09-02T10:21:43Z</time>
      </trkpt>
      <trkpt lat="47.37279" lon="-0.80742">
        <ele>23.398438</ele>
        <time>2014-09-02T10:21:45Z</time>
      </trkpt>
      <trkpt lat="47.37371" lon="-0.80997">
        <ele>23.699219</ele>
        <time>2014-09-02T10:22:25Z</time>
      </trkpt>
      <trkpt lat="47.37374" lon="-0.81011">
        <ele>23.597656</ele>
        <time>2014-09-02T10:22:27Z</time>
      </trkpt>
      <trkpt lat="47.37376" lon="-0.81025">
        <ele>23.597656</ele>
        <time>2014-09-02T10:22:29Z</time>
      </trkpt>
      <trkpt lat="47.37391" lon="-0.81138">
        <ele>22.097656</ele>
        <time>2014-09-02T10:22:46Z</time>
      </trkpt>
      <trkpt lat="47.37399" lon="-0.81172">
        <ele>23</ele>
        <time>2014-09-02T10:22:52Z</time>
      </trkpt>
      <trkpt lat="47.37401" lon="-0.81189">
        <ele>22.898438</ele>
        <time>2014-09-02T10:22:55Z</time>
      </trkpt>
      <trkpt lat="47.37401" lon="-0.81206">
        <ele>22.296875</ele>
        <time>2014-09-02T10:22:58Z</time>
      </trkpt>
      <trkpt lat="47.374" lon="-0.81293">
        <ele>21.796875</ele>
        <time>2014-09-02T10:23:13Z</time>
      </trkpt>
      <trkpt lat="47.37401" lon="-0.81312">
        <ele>21.597656</ele>
        <time>2014-09-02T10:23:16Z</time>
      </trkpt>
      <trkpt lat="47.37404" lon="-0.81331">
        <ele>21.796875</ele>
        <time>2014-09-02T10:23:19Z</time>
      </trkpt>
      <trkpt lat="47.37408" lon="-0.81348">
        <ele>21.597656</ele>
        <time>2014-09-02T10:23:22Z</time>
      </trkpt>
      <trkpt lat="47.37417" lon="-0.81381">
        <ele>20.699219</ele>
        <time>2014-09-02T10:23:28Z</time>
      </trkpt>
      <trkpt lat="47.37495" lon="-0.81621">
        <ele>21.898438</ele>
        <time>2014-09-02T10:24:06Z</time>
      </trkpt>
      <trkpt lat="47.37565" lon="-0.81829">
        <ele>20.699219</ele>
        <time>2014-09-02T10:24:38Z</time>
      </trkpt>
      <trkpt lat="47.37571" lon="-0.81858">
        <ele>20.5</ele>
        <time>2014-09-02T10:24:42Z</time>
      </trkpt>
      <trkpt lat="47.37583" lon="-0.81902">
        <ele>19.898438</ele>
        <time>2014-09-02T10:24:48Z</time>
      </trkpt>
      <trkpt lat="47.37596" lon="-0.81941">
        <ele>19.898438</ele>
        <time>2014-09-02T10:24:54Z</time>
      </trkpt>
      <trkpt lat="47.37614" lon="-0.81991">
        <ele>17.597656</ele>
        <time>2014-09-02T10:25:02Z</time>
      </trkpt>
      <trkpt lat="47.3762" lon="-0.82016">
        <ele>16.097656</ele>
        <time>2014-09-02T10:25:06Z</time>
      </trkpt>
      <trkpt lat="47.37625" lon="-0.82044">
        <ele>16.597656</ele>
        <time>2014-09-02T10:25:10Z</time>
      </trkpt>
      <trkpt lat="47.37673" lon="-0.82272">
        <ele>17.199219</ele>
        <time>2014-09-02T10:25:45Z</time>
      </trkpt>
      <trkpt lat="47.3771" lon="-0.82478">
        <ele>15.699219</ele>
        <time>2014-09-02T10:26:18Z</time>
      </trkpt>
      <trkpt lat="47.37719" lon="-0.82508">
        <ele>15.097656</ele>
        <time>2014-09-02T10:26:24Z</time>
      </trkpt>
      <trkpt lat="47.37724" lon="-0.82522">
        <ele>15.199219</ele>
        <time>2014-09-02T10:26:27Z</time>
      </trkpt>
      <trkpt lat="47.37729" lon="-0.8254">
        <ele>15</ele>
        <time>2014-09-02T10:26:30Z</time>
      </trkpt>
      <trkpt lat="47.37746" lon="-0.82593">
        <ele>16.199219</ele>
        <time>2014-09-02T10:26:38Z</time>
      </trkpt>
      <trkpt lat="47.37782" lon="-0.82685">
        <ele>19.5</ele>
        <time>2014-09-02T10:26:52Z</time>
      </trkpt>
      <trkpt lat="47.37816" lon="-0.82758">
        <ele>21.097656</ele>
        <time>2014-09-02T10:27:04Z</time>
      </trkpt>
      <trkpt lat="47.37828" lon="-0.8278">
        <ele>19</ele>
        <time>2014-09-02T10:27:08Z</time>
      </trkpt>
      <trkpt lat="47.37862" lon="-0.82833">
        <ele>15</ele>
        <time>2014-09-02T10:27:18Z</time>
      </trkpt>
      <trkpt lat="47.37883" lon="-0.82862">
        <ele>13.898438</ele>
        <time>2014-09-02T10:27:24Z</time>
      </trkpt>
      <trkpt lat="47.37923" lon="-0.82905">
        <ele>14.296875</ele>
        <time>2014-09-02T10:27:34Z</time>
      </trkpt>
      <trkpt lat="47.3795" lon="-0.8293">
        <ele>10.5</ele>
        <time>2014-09-02T10:27:42Z</time>
      </trkpt>
      <trkpt lat="47.37994" lon="-0.82965">
        <ele>11.699219</ele>
        <time>2014-09-02T10:27:54Z</time>
      </trkpt>
      <trkpt lat="47.38126" lon="-0.83084">
        <ele>16.796875</ele>
        <time>2014-09-02T10:28:27Z</time>
      </trkpt>
      <trkpt lat="47.3816" lon="-0.83124">
        <ele>17.699219</ele>
        <time>2014-09-02T10:28:35Z</time>
      </trkpt>
      <trkpt lat="47.38246" lon="-0.83235">
        <ele>16.597656</ele>
        <time>2014-09-02T10:28:57Z</time>
      </trkpt>
      <trkpt lat="47.38253" lon="-0.83245">
        <ele>16.097656</ele>
        <time>2014-09-02T10:28:59Z</time>
      </trkpt>
      <trkpt lat="47.3826" lon="-0.83256">
        <ele>15.597656</ele>
        <time>2014-09-02T10:29:01Z</time>
      </trkpt>
      <trkpt lat="47.38279" lon="-0.83291">
        <ele>14.796875</ele>
        <time>2014-09-02T10:29:07Z</time>
      </trkpt>
      <trkpt lat="47.38334" lon="-0.83401">
        <ele>14.699219</ele>
        <time>2014-09-02T10:29:25Z</time>
      </trkpt>
      <trkpt lat="47.38344" lon="-0.83428">
        <ele>15.296875</ele>
        <time>2014-09-02T10:29:29Z</time>
      </trkpt>
      <trkpt lat="47.38352" lon="-0.83456">
        <ele>15.796875</ele>
        <time>2014-09-02T10:29:33Z</time>
      </trkpt>
      <trkpt lat="47.38355" lon="-0.8347">
        <ele>16</ele>
        <time>2014-09-02T10:29:35Z</time>
      </trkpt>
      <trkpt lat="47.3837" lon="-0.83538">
        <ele>16.398438</ele>
        <time>2014-09-02T10:29:45Z</time>
      </trkpt>
      <trkpt lat="47.38379" lon="-0.83564">
        <ele>16.796875</ele>
        <time>2014-09-02T10:29:49Z</time>
      </trkpt>
      <trkpt lat="47.38389" lon="-0.83589">
        <ele>16.5</ele>
        <time>2014-09-02T10:29:53Z</time>
      </trkpt>
      <trkpt lat="47.38468" lon="-0.83786">
        <ele>18.898438</ele>
        <time>2014-09-02T10:30:25Z</time>
      </trkpt>
      <trkpt lat="47.38471" lon="-0.83799">
        <ele>19.199219</ele>
        <time>2014-09-02T10:30:27Z</time>
      </trkpt>
      <trkpt lat="47.38484" lon="-0.83851">
        <ele>19.796875</ele>
        <time>2014-09-02T10:30:35Z</time>
      </trkpt>
      <trkpt lat="47.38489" lon="-0.83862">
        <ele>19.898438</ele>
        <time>2014-09-02T10:30:37Z</time>
      </trkpt>
      <trkpt lat="47.38495" lon="-0.83872">
        <ele>19.796875</ele>
        <time>2014-09-02T10:30:39Z</time>
      </trkpt>
      <trkpt lat="47.38502" lon="-0.83882">
        <ele>19.699219</ele>
        <time>2014-09-02T10:30:41Z</time>
      </trkpt>
      <trkpt lat="47.3851" lon="-0.8389">
        <ele>19.699219</ele>
        <time>2014-09-02T10:30:43Z</time>
      </trkpt>
      <trkpt lat="47.38549" lon="-0.83926">
        <ele>19.796875</ele>
        <time>2014-09-02T10:30:53Z</time>
      </trkpt>
      <trkpt lat="47.38558" lon="-0.83931">
        <ele>19.898438</ele>
        <time>2014-09-02T10:30:55Z</time>
      </trkpt>
      <trkpt lat="47.38571" lon="-0.83933">
        <ele>20.097656</ele>
        <time>2014-09-02T10:30:58Z</time>
      </trkpt>
      <trkpt lat="47.38582" lon="-0.83926">
        <ele>20.199219</ele>
        <time>2014-09-02T10:31:01Z</time>
      </trkpt>
      <trkpt lat="47.38592" lon="-0.83919">
        <ele>20.097656</ele>
        <time>2014-09-02T10:31:04Z</time>
      </trkpt>
      <trkpt lat="47.38602" lon="-0.83914">
        <ele>20.96875</ele>
        <time>2014-09-02T10:31:08Z</time>
      </trkpt>
      <trkpt lat="47.38611" lon="-0.83918">
        <ele>20.597656</ele>
        <time>2014-09-02T10:32:16Z</time>
      </trkpt>
      <trkpt lat="47.38616" lon="-0.8393">
        <ele>20.699219</ele>
        <time>2014-09-02T10:37:33Z</time>
      </trkpt>
      <trkpt lat="47.38624" lon="-0.83942">
        <ele>20.699219</ele>
        <time>2014-09-02T10:37:37Z</time>
      </trkpt>
      <trkpt lat="47.38649" lon="-0.83978">
        <ele>20.597656</ele>
        <time>2014-09-02T10:37:46Z</time>
      </trkpt>
      <trkpt lat="47.38703" lon="-0.84053">
        <ele>20.398438</ele>
        <time>2014-09-02T10:38:02Z</time>
      </trkpt>
      <trkpt lat="47.38709" lon="-0.84064">
        <ele>20.398438</ele>
        <time>2014-09-02T10:38:04Z</time>
      </trkpt>
      <trkpt lat="47.38745" lon="-0.84135">
        <ele>20.296875</ele>
        <time>2014-09-02T10:38:16Z</time>
      </trkpt>
      <trkpt lat="47.38753" lon="-0.84145">
        <ele>20.199219</ele>
        <time>2014-09-02T10:38:18Z</time>
      </trkpt>
      <trkpt lat="47.38859" lon="-0.84281">
        <ele>18.5</ele>
        <time>2014-09-02T10:38:46Z</time>
      </trkpt>
      <trkpt lat="47.38882" lon="-0.84307">
        <ele>18.398438</ele>
        <time>2014-09-02T10:38:52Z</time>
      </trkpt>
      <trkpt lat="47.38889" lon="-0.84317">
        <ele>18.097656</ele>
        <time>2014-09-02T10:38:54Z</time>
      </trkpt>
      <trkpt lat="47.38895" lon="-0.84329">
        <ele>18.597656</ele>
        <time>2014-09-02T10:38:56Z</time>
      </trkpt>
      <trkpt lat="47.38899" lon="-0.84342">
        <ele>18.597656</ele>
        <time>2014-09-02T10:38:58Z</time>
      </trkpt>
      <trkpt lat="47.38902" lon="-0.84356">
        <ele>19.898438</ele>
        <time>2014-09-02T10:39:00Z</time>
      </trkpt>
      <trkpt lat="47.38909" lon="-0.84389">
        <ele>22.898438</ele>
        <time>2014-09-02T10:39:05Z</time>
      </trkpt>
      <trkpt lat="47.38929" lon="-0.84519">
        <ele>23.699219</ele>
        <time>2014-09-02T10:39:25Z</time>
      </trkpt>
      <trkpt lat="47.38943" lon="-0.84646">
        <ele>23.796875</ele>
        <time>2014-09-02T10:39:43Z</time>
      </trkpt>
      <trkpt lat="47.38943" lon="-0.84674">
        <ele>23.5</ele>
        <time>2014-09-02T10:39:47Z</time>
      </trkpt>
      <trkpt lat="47.3894" lon="-0.84746">
        <ele>21.398438</ele>
        <time>2014-09-02T10:39:57Z</time>
      </trkpt>
      <trkpt lat="47.38939" lon="-0.8476">
        <ele>20.296875</ele>
        <time>2014-09-02T10:39:59Z</time>
      </trkpt>
      <trkpt lat="47.38936" lon="-0.84778">
        <ele>19.097656</ele>
        <time>2014-09-02T10:40:02Z</time>
      </trkpt>
      <trkpt lat="47.38932" lon="-0.84796">
        <ele>18</ele>
        <time>2014-09-02T10:40:05Z</time>
      </trkpt>
      <trkpt lat="47.38916" lon="-0.84876">
        <ele>17.199219</ele>
        <time>2014-09-02T10:40:21Z</time>
      </trkpt>
      <trkpt lat="47.38909" lon="-0.84887">
        <ele>17.296875</ele>
        <time>2014-09-02T10:40:25Z</time>
      </trkpt>
      <trkpt lat="47.389" lon="-0.84896">
        <ele>17.5</ele>
        <time>2014-09-02T10:40:30Z</time>
      </trkpt>
      <trkpt lat="47.38884" lon="-0.84915">
        <ele>16.398438</ele>
        <time>2014-09-02T10:40:38Z</time>
      </trkpt>
      <trkpt lat="47.38873" lon="-0.84921">
        <ele>15.898438</ele>
        <time>2014-09-02T10:40:42Z</time>
      </trkpt>
      <trkpt lat="47.38863" lon="-0.84919">
        <ele>15.597656</ele>
        <time>2014-09-02T10:40:45Z</time>
      </trkpt>
      <trkpt lat="47.38854" lon="-0.84916">
        <ele>15.296875</ele>
        <time>2014-09-02T10:40:48Z</time>
      </trkpt>
      <trkpt lat="47.38813" lon="-0.84898">
        <ele>15.398438</ele>
        <time>2014-09-02T10:41:00Z</time>
      </trkpt>
      <trkpt lat="47.38802" lon="-0.84896">
        <ele>15.296875</ele>
        <time>2014-09-02T10:41:03Z</time>
      </trkpt>
      <trkpt lat="47.38793" lon="-0.84903">
        <ele>16.199219</ele>
        <time>2014-09-02T10:41:06Z</time>
      </trkpt>
      <trkpt lat="47.38785" lon="-0.84915">
        <ele>17.296875</ele>
        <time>2014-09-02T10:41:10Z</time>
      </trkpt>
      <trkpt lat="47.38728" lon="-0.84988">
        <ele>16.296875</ele>
        <time>2014-09-02T10:41:38Z</time>
      </trkpt>
      <trkpt lat="47.38719" lon="-0.84993">
        <ele>15.597656</ele>
        <time>2014-09-02T10:44:45Z</time>
      </trkpt>
      <trkpt lat="47.38711" lon="-0.85001">
        <ele>15</ele>
        <time>2014-09-02T10:44:50Z</time>
      </trkpt>
      <trkpt lat="47.38703" lon="-0.85012">
        <ele>17.199219</ele>
        <time>2014-09-02T10:44:54Z</time>
      </trkpt>
      <trkpt lat="47.38686" lon="-0.85033">
        <ele>14.597656</ele>
        <time>2014-09-02T10:45:01Z</time>
      </trkpt>
      <trkpt lat="47.38686" lon="-0.85047">
        <ele>13.898438</ele>
        <time>2014-09-02T10:45:06Z</time>
      </trkpt>
      <trkpt lat="47.38692" lon="-0.85057">
        <ele>13.699219</ele>
        <time>2014-09-02T10:45:09Z</time>
      </trkpt>
      <trkpt lat="47.38699" lon="-0.85066">
        <ele>13.5</ele>
        <time>2014-09-02T10:45:12Z</time>
      </trkpt>
      <trkpt lat="47.38706" lon="-0.85079">
        <ele>13.199219</ele>
        <time>2014-09-02T10:45:15Z</time>
      </trkpt>
      <trkpt lat="47.38771" lon="-0.85198">
        <ele>22.398438</ele>
        <time>2014-09-02T10:45:42Z</time>
      </trkpt>
      <trkpt lat="47.38787" lon="-0.85236">
        <ele>21.296875</ele>
        <time>2014-09-02T10:47:05Z</time>
      </trkpt>
      <trkpt lat="47.38806" lon="-0.8529">
        <ele>20.796875</ele>
        <time>2014-09-02T10:47:17Z</time>
      </trkpt>
      <trkpt lat="47.38858" lon="-0.85438">
        <ele>19.398438</ele>
        <time>2014-09-02T10:47:47Z</time>
      </trkpt>
      <trkpt lat="47.38862" lon="-0.85451">
        <ele>18.898438</ele>
        <time>2014-09-02T10:47:51Z</time>
      </trkpt>
      <trkpt lat="47.38892" lon="-0.85544">
        <ele>18.492188</ele>
        <time>2014-09-02T10:48:16Z</time>
      </trkpt>
      <trkpt lat="47.38896" lon="-0.85555">
        <ele>17.699219</ele>
        <time>2014-09-02T10:48:36Z</time>
      </trkpt>
      <trkpt lat="47.38899" lon="-0.85569">
        <ele>17.5</ele>
        <time>2014-09-02T10:50:12Z</time>
      </trkpt>
      <trkpt lat="47.38971" lon="-0.85765">
        <ele>28.882813</ele>
        <time>2014-09-02T10:51:58Z</time>
      </trkpt>
      <trkpt lat="47.3897" lon="-0.85765">
        <ele>21.613281</ele>
        <time>2014-09-02T10:52:23Z</time>
      </trkpt>
      <trkpt lat="47.38965" lon="-0.85764">
        <ele>10.597656</ele>
        <time>2014-09-02T11:23:09Z</time>
      </trkpt>
      <trkpt lat="47.38963" lon="-0.85749">
        <ele>11.097656</ele>
        <time>2014-09-02T11:23:52Z</time>
      </trkpt>
      <trkpt lat="47.38957" lon="-0.85736">
        <ele>12.398438</ele>
        <time>2014-09-02T11:23:57Z</time>
      </trkpt>
      <trkpt lat="47.38951" lon="-0.85722">
        <ele>13.699219</ele>
        <time>2014-09-02T11:24:01Z</time>
      </trkpt>
      <trkpt lat="47.38947" lon="-0.85708">
        <ele>15</ele>
        <time>2014-09-02T11:24:05Z</time>
      </trkpt>
      <trkpt lat="47.38942" lon="-0.85694">
        <ele>14.699219</ele>
        <time>2014-09-02T11:24:09Z</time>
      </trkpt>
      <trkpt lat="47.38939" lon="-0.85708">
        <ele>14.5</ele>
        <time>2014-09-02T11:24:21Z</time>
      </trkpt>
      <trkpt lat="47.38943" lon="-0.8572">
        <ele>14.097656</ele>
        <time>2014-09-02T11:24:24Z</time>
      </trkpt>
      <trkpt lat="47.38957" lon="-0.85778">
        <ele>13.199219</ele>
        <time>2014-09-02T11:24:38Z</time>
      </trkpt>
      <trkpt lat="47.38961" lon="-0.8579">
        <ele>13.097656</ele>
        <time>2014-09-02T11:24:41Z</time>
      </trkpt>
      <trkpt lat="47.38983" lon="-0.85841">
        <ele>12.398438</ele>
        <time>2014-09-02T11:24:53Z</time>
      </trkpt>
      <trkpt lat="47.3899" lon="-0.85854">
        <ele>12</ele>
        <time>2014-09-02T11:24:56Z</time>
      </trkpt>
      <trkpt lat="47.38997" lon="-0.85867">
        <ele>11.796875</ele>
        <time>2014-09-02T11:24:59Z</time>
      </trkpt>
      <trkpt lat="47.39007" lon="-0.85878">
        <ele>11.597656</ele>
        <time>2014-09-02T11:25:02Z</time>
      </trkpt>
      <trkpt lat="47.39017" lon="-0.85889">
        <ele>11.5</ele>
        <time>2014-09-02T11:25:05Z</time>
      </trkpt>
      <trkpt lat="47.39081" lon="-0.85949">
        <ele>10.296875</ele>
        <time>2014-09-02T11:25:22Z</time>
      </trkpt>
      <trkpt lat="47.39133" lon="-0.85991">
        <ele>10.597656</ele>
        <time>2014-09-02T11:25:35Z</time>
      </trkpt>
      <trkpt lat="47.39144" lon="-0.86002">
        <ele>10.5</ele>
        <time>2014-09-02T11:25:38Z</time>
      </trkpt>
      <trkpt lat="47.39154" lon="-0.86015">
        <ele>10.5</ele>
        <time>2014-09-02T11:25:41Z</time>
      </trkpt>
      <trkpt lat="47.39161" lon="-0.86031">
        <ele>10.699219</ele>
        <time>2014-09-02T11:25:44Z</time>
      </trkpt>
      <trkpt lat="47.39167" lon="-0.86048">
        <ele>11</ele>
        <time>2014-09-02T11:25:47Z</time>
      </trkpt>
      <trkpt lat="47.39173" lon="-0.86062">
        <ele>11</ele>
        <time>2014-09-02T11:25:50Z</time>
      </trkpt>
      <trkpt lat="47.39187" lon="-0.86086">
        <ele>10.898438</ele>
        <time>2014-09-02T11:25:56Z</time>
      </trkpt>
      <trkpt lat="47.39179" lon="-0.86078">
        <ele>10.296875</ele>
        <time>2014-09-02T11:26:13Z</time>
      </trkpt>
      <trkpt lat="47.39171" lon="-0.86072">
        <ele>9.796875</ele>
        <time>2014-09-02T11:26:18Z</time>
      </trkpt>
      <trkpt lat="47.39161" lon="-0.86069">
        <ele>8.5</ele>
        <time>2014-09-02T11:26:24Z</time>
      </trkpt>
      <trkpt lat="47.39155" lon="-0.86078">
        <ele>14</ele>
        <time>2014-09-02T11:26:32Z</time>
      </trkpt>
      <trkpt lat="47.39165" lon="-0.86071">
        <ele>15.597656</ele>
        <time>2014-09-02T11:26:51Z</time>
      </trkpt>
      <trkpt lat="47.39175" lon="-0.86068">
        <ele>16.5</ele>
        <time>2014-09-02T11:26:57Z</time>
      </trkpt>
      <trkpt lat="47.39183" lon="-0.86078">
        <ele>17.199219</ele>
        <time>2014-09-02T11:27:01Z</time>
      </trkpt>
      <trkpt lat="47.39189" lon="-0.8609">
        <ele>17.5</ele>
        <time>2014-09-02T11:27:05Z</time>
      </trkpt>
      <trkpt lat="47.39195" lon="-0.86101">
        <ele>15</ele>
        <time>2014-09-02T11:27:10Z</time>
      </trkpt>
      <trkpt lat="47.39199" lon="-0.86115">
        <ele>15.398438</ele>
        <time>2014-09-02T11:27:39Z</time>
      </trkpt>
      <trkpt lat="47.39203" lon="-0.86129">
        <ele>15.398438</ele>
        <time>2014-09-02T11:27:42Z</time>
      </trkpt>
      <trkpt lat="47.39225" lon="-0.86185">
        <ele>15</ele>
        <time>2014-09-02T11:27:54Z</time>
      </trkpt>
      <trkpt lat="47.39228" lon="-0.86201">
        <ele>14.796875</ele>
        <time>2014-09-02T11:27:57Z</time>
      </trkpt>
      <trkpt lat="47.39231" lon="-0.86219">
        <ele>14.699219</ele>
        <time>2014-09-02T11:28:00Z</time>
      </trkpt>
      <trkpt lat="47.39232" lon="-0.86238">
        <ele>14.5</ele>
        <time>2014-09-02T11:28:03Z</time>
      </trkpt>
      <trkpt lat="47.39232" lon="-0.86257">
        <ele>14.5</ele>
        <time>2014-09-02T11:28:06Z</time>
      </trkpt>
      <trkpt lat="47.39227" lon="-0.86343">
        <ele>12.296875</ele>
        <time>2014-09-02T11:28:21Z</time>
      </trkpt>
      <trkpt lat="47.39222" lon="-0.86454">
        <ele>9.296875</ele>
        <time>2014-09-02T11:28:44Z</time>
      </trkpt>
      <trkpt lat="47.39222" lon="-0.8647">
        <ele>14.796875</ele>
        <time>2014-09-02T11:28:48Z</time>
      </trkpt>
      <trkpt lat="47.39221" lon="-0.86485">
        <ele>13.898438</ele>
        <time>2014-09-02T11:29:58Z</time>
      </trkpt>
      <trkpt lat="47.39217" lon="-0.86516">
        <ele>11.296875</ele>
        <time>2014-09-02T11:30:06Z</time>
      </trkpt>
      <trkpt lat="47.39217" lon="-0.86531">
        <ele>10.199219</ele>
        <time>2014-09-02T11:30:09Z</time>
      </trkpt>
      <trkpt lat="47.39209" lon="-0.86742">
        <ele>11.597656</ele>
        <time>2014-09-02T11:30:45Z</time>
      </trkpt>
      <trkpt lat="47.39226" lon="-0.87257">
        <ele>14.597656</ele>
        <time>2014-09-02T11:32:02Z</time>
      </trkpt>
      <trkpt lat="47.39225" lon="-0.87272">
        <ele>13.398438</ele>
        <time>2014-09-02T11:32:05Z</time>
      </trkpt>
      <trkpt lat="47.3922" lon="-0.87285">
        <ele>12.898438</ele>
        <time>2014-09-02T11:32:13Z</time>
      </trkpt>
      <trkpt lat="47.3922" lon="-0.87301">
        <ele>12.699219</ele>
        <time>2014-09-02T11:32:19Z</time>
      </trkpt>
      <trkpt lat="47.39221" lon="-0.87286">
        <ele>13.796875</ele>
        <time>2014-09-02T11:32:31Z</time>
      </trkpt>
      <trkpt lat="47.3922" lon="-0.87271">
        <ele>14.5</ele>
        <time>2014-09-02T11:32:35Z</time>
      </trkpt>
      <trkpt lat="47.39227" lon="-0.87282">
        <ele>14.597656</ele>
        <time>2014-09-02T11:32:42Z</time>
      </trkpt>
      <trkpt lat="47.39228" lon="-0.87298">
        <ele>14.699219</ele>
        <time>2014-09-02T11:32:45Z</time>
      </trkpt>
      <trkpt lat="47.39234" lon="-0.87432">
        <ele>15</ele>
        <time>2014-09-02T11:33:06Z</time>
      </trkpt>
      <trkpt lat="47.39237" lon="-0.87451">
        <ele>14.898438</ele>
        <time>2014-09-02T11:33:09Z</time>
      </trkpt>
      <trkpt lat="47.39243" lon="-0.87488">
        <ele>14.796875</ele>
        <time>2014-09-02T11:33:15Z</time>
      </trkpt>
      <trkpt lat="47.39255" lon="-0.87542">
        <ele>14.398438</ele>
        <time>2014-09-02T11:33:23Z</time>
      </trkpt>
      <trkpt lat="47.39421" lon="-0.88169">
        <ele>12.597656</ele>
        <time>2014-09-02T11:34:53Z</time>
      </trkpt>
      <trkpt lat="47.3946" lon="-0.88438">
        <ele>13.898438</ele>
        <time>2014-09-02T11:35:29Z</time>
      </trkpt>
      <trkpt lat="47.39471" lon="-0.8848">
        <ele>14.199219</ele>
        <time>2014-09-02T11:35:35Z</time>
      </trkpt>
      <trkpt lat="47.39475" lon="-0.88493">
        <ele>14.5</ele>
        <time>2014-09-02T11:35:37Z</time>
      </trkpt>
      <trkpt lat="47.39601" lon="-0.88843">
        <ele>13.199219</ele>
        <time>2014-09-02T11:36:29Z</time>
      </trkpt>
      <trkpt lat="47.39604" lon="-0.88857">
        <ele>13.199219</ele>
        <time>2014-09-02T11:36:31Z</time>
      </trkpt>
      <trkpt lat="47.39607" lon="-0.88872">
        <ele>13.199219</ele>
        <time>2014-09-02T11:36:33Z</time>
      </trkpt>
      <trkpt lat="47.39612" lon="-0.88919">
        <ele>13.398438</ele>
        <time>2014-09-02T11:36:39Z</time>
      </trkpt>
      <trkpt lat="47.39647" lon="-0.89327">
        <ele>15.699219</ele>
        <time>2014-09-02T11:37:29Z</time>
      </trkpt>
      <trkpt lat="47.39653" lon="-0.89359">
        <ele>16</ele>
        <time>2014-09-02T11:37:33Z</time>
      </trkpt>
      <trkpt lat="47.39657" lon="-0.89374">
        <ele>15.699219</ele>
        <time>2014-09-02T11:37:35Z</time>
      </trkpt>
      <trkpt lat="47.39688" lon="-0.89475">
        <ele>15.597656</ele>
        <time>2014-09-02T11:37:49Z</time>
      </trkpt>
      <trkpt lat="47.39994" lon="-0.90378">
        <ele>14.898438</ele>
        <time>2014-09-02T11:39:55Z</time>
      </trkpt>
      <trkpt lat="47.40013" lon="-0.90465">
        <ele>13.898438</ele>
        <time>2014-09-02T11:40:07Z</time>
      </trkpt>
      <trkpt lat="47.4002" lon="-0.9051">
        <ele>13.5</ele>
        <time>2014-09-02T11:40:13Z</time>
      </trkpt>
      <trkpt lat="47.40025" lon="-0.9057">
        <ele>13.398438</ele>
        <time>2014-09-02T11:40:21Z</time>
      </trkpt>
      <trkpt lat="47.40026" lon="-0.90629">
        <ele>12.398438</ele>
        <time>2014-09-02T11:40:29Z</time>
      </trkpt>
      <trkpt lat="47.40023" lon="-0.90731">
        <ele>10.398438</ele>
        <time>2014-09-02T11:40:43Z</time>
      </trkpt>
      <trkpt lat="47.40003" lon="-0.91214">
        <ele>10.898438</ele>
        <time>2014-09-02T11:41:53Z</time>
      </trkpt>
      <trkpt lat="47.4" lon="-0.91242">
        <ele>11.097656</ele>
        <time>2014-09-02T11:41:57Z</time>
      </trkpt>
      <trkpt lat="47.39996" lon="-0.9127">
        <ele>11</ele>
        <time>2014-09-02T11:42:01Z</time>
      </trkpt>
      <trkpt lat="47.39986" lon="-0.91324">
        <ele>11.097656</ele>
        <time>2014-09-02T11:42:09Z</time>
      </trkpt>
      <trkpt lat="47.39977" lon="-0.91362">
        <ele>10.5</ele>
        <time>2014-09-02T11:42:15Z</time>
      </trkpt>
      <trkpt lat="47.39961" lon="-0.91416">
        <ele>11</ele>
        <time>2014-09-02T11:42:24Z</time>
      </trkpt>
      <trkpt lat="47.39942" lon="-0.91468">
        <ele>11.5</ele>
        <time>2014-09-02T11:42:33Z</time>
      </trkpt>
      <trkpt lat="47.39641" lon="-0.92212">
        <ele>15.796875</ele>
        <time>2014-09-02T11:45:06Z</time>
      </trkpt>
      <trkpt lat="47.39605" lon="-0.92281">
        <ele>15.597656</ele>
        <time>2014-09-02T11:45:19Z</time>
      </trkpt>
      <trkpt lat="47.39587" lon="-0.9231">
        <ele>15.898438</ele>
        <time>2014-09-02T11:45:25Z</time>
      </trkpt>
      <trkpt lat="47.39549" lon="-0.92364">
        <ele>15.796875</ele>
        <time>2014-09-02T11:45:37Z</time>
      </trkpt>
      <trkpt lat="47.38861" lon="-0.93196">
        <ele>11.296875</ele>
        <time>2014-09-02T11:48:35Z</time>
      </trkpt>
      <trkpt lat="47.38817" lon="-0.93241">
        <ele>11.097656</ele>
        <time>2014-09-02T11:48:45Z</time>
      </trkpt>
      <trkpt lat="47.3876" lon="-0.93289">
        <ele>11.597656</ele>
        <time>2014-09-02T11:48:57Z</time>
      </trkpt>
      <trkpt lat="47.38643" lon="-0.93368">
        <ele>12.199219</ele>
        <time>2014-09-02T11:49:21Z</time>
      </trkpt>
      <trkpt lat="47.38551" lon="-0.93429">
        <ele>12.699219</ele>
        <time>2014-09-02T11:49:39Z</time>
      </trkpt>
      <trkpt lat="47.38522" lon="-0.93454">
        <ele>12.699219</ele>
        <time>2014-09-02T11:49:45Z</time>
      </trkpt>
      <trkpt lat="47.38487" lon="-0.9349">
        <ele>12.296875</ele>
        <time>2014-09-02T11:49:53Z</time>
      </trkpt>
      <trkpt lat="47.38479" lon="-0.935">
        <ele>12.5</ele>
        <time>2014-09-02T11:49:55Z</time>
      </trkpt>
      <trkpt lat="47.38447" lon="-0.93543">
        <ele>12.296875</ele>
        <time>2014-09-02T11:50:03Z</time>
      </trkpt>
      <trkpt lat="47.38418" lon="-0.93591">
        <ele>12.398438</ele>
        <time>2014-09-02T11:50:11Z</time>
      </trkpt>
      <trkpt lat="47.38398" lon="-0.93632">
        <ele>12.597656</ele>
        <time>2014-09-02T11:50:17Z</time>
      </trkpt>
      <trkpt lat="47.38133" lon="-0.94183">
        <ele>13.5</ele>
        <time>2014-09-02T11:51:42Z</time>
      </trkpt>
      <trkpt lat="47.38125" lon="-0.94197">
        <ele>13.597656</ele>
        <time>2014-09-02T11:51:45Z</time>
      </trkpt>
      <trkpt lat="47.38115" lon="-0.9421">
        <ele>13.597656</ele>
        <time>2014-09-02T11:51:48Z</time>
      </trkpt>
      <trkpt lat="47.38108" lon="-0.94224">
        <ele>13.597656</ele>
        <time>2014-09-02T11:51:51Z</time>
      </trkpt>
      <trkpt lat="47.3809" lon="-0.94263">
        <ele>13.097656</ele>
        <time>2014-09-02T11:52:01Z</time>
      </trkpt>
      <trkpt lat="47.38083" lon="-0.94273">
        <ele>12.097656</ele>
        <time>2014-09-02T11:52:06Z</time>
      </trkpt>
      <trkpt lat="47.38081" lon="-0.94287">
        <ele>12</ele>
        <time>2014-09-02T11:54:38Z</time>
      </trkpt>
      <trkpt lat="47.38075" lon="-0.94301">
        <ele>12.097656</ele>
        <time>2014-09-02T11:54:42Z</time>
      </trkpt>
      <trkpt lat="47.3805" lon="-0.94354">
        <ele>11.699219</ele>
        <time>2014-09-02T11:54:52Z</time>
      </trkpt>
      <trkpt lat="47.37571" lon="-0.95358">
        <ele>18.898438</ele>
        <time>2014-09-02T11:57:55Z</time>
      </trkpt>
      <trkpt lat="47.37512" lon="-0.95516">
        <ele>20.097656</ele>
        <time>2014-09-02T11:58:23Z</time>
      </trkpt>
      <trkpt lat="47.37295" lon="-0.96117">
        <ele>18.199219</ele>
        <time>2014-09-02T11:59:57Z</time>
      </trkpt>
      <trkpt lat="47.37276" lon="-0.9619">
        <ele>18.597656</ele>
        <time>2014-09-02T12:00:07Z</time>
      </trkpt>
      <trkpt lat="47.37264" lon="-0.96249">
        <ele>18.898438</ele>
        <time>2014-09-02T12:00:15Z</time>
      </trkpt>
      <trkpt lat="47.37225" lon="-0.96512">
        <ele>17.699219</ele>
        <time>2014-09-02T12:00:49Z</time>
      </trkpt>
      <trkpt lat="47.36906" lon="-0.98549">
        <ele>10.398438</ele>
        <time>2014-09-02T12:05:30Z</time>
      </trkpt>
      <trkpt lat="47.36739" lon="-0.99146">
        <ele>-0.5</ele>
        <time>2014-09-02T12:06:54Z</time>
      </trkpt>
      <trkpt lat="47.36513" lon="-0.99902">
        <ele>14.699219</ele>
        <time>2014-09-02T12:08:40Z</time>
      </trkpt>
      <trkpt lat="47.36473" lon="-1.00007">
        <ele>16.199219</ele>
        <time>2014-09-02T12:08:56Z</time>
      </trkpt>
      <trkpt lat="47.36291" lon="-1.00437">
        <ele>18.097656</ele>
        <time>2014-09-02T12:10:04Z</time>
      </trkpt>
      <trkpt lat="47.36288" lon="-1.00451">
        <ele>18.5</ele>
        <time>2014-09-02T12:10:06Z</time>
      </trkpt>
      <trkpt lat="47.36285" lon="-1.00464">
        <ele>18.699219</ele>
        <time>2014-09-02T12:10:08Z</time>
      </trkpt>
      <trkpt lat="47.36285" lon="-1.0048">
        <ele>17.398438</ele>
        <time>2014-09-02T12:10:11Z</time>
      </trkpt>
      <trkpt lat="47.3629" lon="-1.00499">
        <ele>16.699219</ele>
        <time>2014-09-02T12:10:14Z</time>
      </trkpt>
      <trkpt lat="47.36295" lon="-1.00518">
        <ele>16.597656</ele>
        <time>2014-09-02T12:10:16Z</time>
      </trkpt>
      <trkpt lat="47.36298" lon="-1.00539">
        <ele>16.699219</ele>
        <time>2014-09-02T12:10:18Z</time>
      </trkpt>
      <trkpt lat="47.363" lon="-1.00559">
        <ele>16.898438</ele>
        <time>2014-09-02T12:10:20Z</time>
      </trkpt>
      <trkpt lat="47.36307" lon="-1.00641">
        <ele>17.796875</ele>
        <time>2014-09-02T12:10:31Z</time>
      </trkpt>
      <trkpt lat="47.36311" lon="-1.0066">
        <ele>17.597656</ele>
        <time>2014-09-02T12:10:34Z</time>
      </trkpt>
      <trkpt lat="47.36327" lon="-1.00742">
        <ele>14.398438</ele>
        <time>2014-09-02T12:10:49Z</time>
      </trkpt>
      <trkpt lat="47.36329" lon="-1.00759">
        <ele>13.898438</ele>
        <time>2014-09-02T12:10:51Z</time>
      </trkpt>
      <trkpt lat="47.36336" lon="-1.00776">
        <ele>13.796875</ele>
        <time>2014-09-02T12:10:54Z</time>
      </trkpt>
      <trkpt lat="47.3634" lon="-1.00792">
        <ele>13.898438</ele>
        <time>2014-09-02T12:10:56Z</time>
      </trkpt>
      <trkpt lat="47.36342" lon="-1.00805">
        <ele>14</ele>
        <time>2014-09-02T12:10:58Z</time>
      </trkpt>
      <trkpt lat="47.36364" lon="-1.00975">
        <ele>13.199219</ele>
        <time>2014-09-02T12:11:25Z</time>
      </trkpt>
      <trkpt lat="47.36375" lon="-1.01109">
        <ele>13.296875</ele>
        <time>2014-09-02T12:11:43Z</time>
      </trkpt>
      <trkpt lat="47.36381" lon="-1.01148">
        <ele>13.199219</ele>
        <time>2014-09-02T12:11:49Z</time>
      </trkpt>
      <trkpt lat="47.36399" lon="-1.01231">
        <ele>11.199219</ele>
        <time>2014-09-02T12:12:01Z</time>
      </trkpt>
      <trkpt lat="47.36401" lon="-1.01246">
        <ele>10.597656</ele>
        <time>2014-09-02T12:12:03Z</time>
      </trkpt>
      <trkpt lat="47.36401" lon="-1.01294">
        <ele>12.097656</ele>
        <time>2014-09-02T12:12:12Z</time>
      </trkpt>
      <trkpt lat="47.364" lon="-1.01311">
        <ele>12.898438</ele>
        <time>2014-09-02T12:12:16Z</time>
      </trkpt>
      <trkpt lat="47.36399" lon="-1.01324">
        <ele>13</ele>
        <time>2014-09-02T12:12:20Z</time>
      </trkpt>
      <trkpt lat="47.364" lon="-1.01338">
        <ele>12.898438</ele>
        <time>2014-09-02T12:12:24Z</time>
      </trkpt>
      <trkpt lat="47.36404" lon="-1.01367">
        <ele>12.898438</ele>
        <time>2014-09-02T12:12:30Z</time>
      </trkpt>
      <trkpt lat="47.36404" lon="-1.01381">
        <ele>12.398438</ele>
        <time>2014-09-02T12:12:33Z</time>
      </trkpt>
      <trkpt lat="47.36407" lon="-1.01411">
        <ele>12.398438</ele>
        <time>2014-09-02T12:12:41Z</time>
      </trkpt>
      <trkpt lat="47.36414" lon="-1.0142">
        <ele>11.199219</ele>
        <time>2014-09-02T12:12:45Z</time>
      </trkpt>
      <trkpt lat="47.36422" lon="-1.01427">
        <ele>9.5</ele>
        <time>2014-09-02T12:12:48Z</time>
      </trkpt>
      <trkpt lat="47.36427" lon="-1.01444">
        <ele>8.398438</ele>
        <time>2014-09-02T12:12:52Z</time>
      </trkpt>
      <trkpt lat="47.36427" lon="-1.01458">
        <ele>5.898438</ele>
        <time>2014-09-02T12:12:56Z</time>
      </trkpt>
      <trkpt lat="47.36428" lon="-1.01474">
        <ele>5.898438</ele>
        <time>2014-09-02T12:13:01Z</time>
      </trkpt>
      <trkpt lat="47.36426" lon="-1.01487">
        <ele>6.796875</ele>
        <time>2014-09-02T12:13:04Z</time>
      </trkpt>
      <trkpt lat="47.36423" lon="-1.01515">
        <ele>8.597656</ele>
        <time>2014-09-02T12:13:10Z</time>
      </trkpt>
      <trkpt lat="47.36423" lon="-1.01531">
        <ele>9.199219</ele>
        <time>2014-09-02T12:13:13Z</time>
      </trkpt>
      <trkpt lat="47.36425" lon="-1.01547">
        <ele>10.097656</ele>
        <time>2014-09-02T12:13:16Z</time>
      </trkpt>
      <trkpt lat="47.36429" lon="-1.01563">
        <ele>10.898438</ele>
        <time>2014-09-02T12:13:19Z</time>
      </trkpt>
      <trkpt lat="47.36434" lon="-1.0158">
        <ele>11.296875</ele>
        <time>2014-09-02T12:13:22Z</time>
      </trkpt>
      <trkpt lat="47.36437" lon="-1.01599">
        <ele>11.398438</ele>
        <time>2014-09-02T12:13:25Z</time>
      </trkpt>
      <trkpt lat="47.36438" lon="-1.01613">
        <ele>11.199219</ele>
        <time>2014-09-02T12:13:27Z</time>
      </trkpt>
      <trkpt lat="47.3645" lon="-1.01717">
        <ele>11.5</ele>
        <time>2014-09-02T12:13:45Z</time>
      </trkpt>
      <trkpt lat="47.36459" lon="-1.0178">
        <ele>11.199219</ele>
        <time>2014-09-02T12:13:57Z</time>
      </trkpt>
      <trkpt lat="47.3647" lon="-1.01907">
        <ele>10.699219</ele>
        <time>2014-09-02T12:14:18Z</time>
      </trkpt>
      <trkpt lat="47.36471" lon="-1.01925">
        <ele>10</ele>
        <time>2014-09-02T12:14:21Z</time>
      </trkpt>
      <trkpt lat="47.36471" lon="-1.01962">
        <ele>5.5</ele>
        <time>2014-09-02T12:14:27Z</time>
      </trkpt>
      <trkpt lat="47.36474" lon="-1.01979">
        <ele>3.796875</ele>
        <time>2014-09-02T12:14:30Z</time>
      </trkpt>
      <trkpt lat="47.36475" lon="-1.01999">
        <ele>2.097656</ele>
        <time>2014-09-02T12:14:33Z</time>
      </trkpt>
      <trkpt lat="47.36475" lon="-1.02056">
        <ele>-0.097656</ele>
        <time>2014-09-02T12:14:42Z</time>
      </trkpt>
      <trkpt lat="47.36476" lon="-1.02146">
        <ele>2.5</ele>
        <time>2014-09-02T12:14:56Z</time>
      </trkpt>
      <trkpt lat="47.36474" lon="-1.0216">
        <ele>2.898438</ele>
        <time>2014-09-02T12:14:58Z</time>
      </trkpt>
      <trkpt lat="47.36472" lon="-1.02173">
        <ele>3.097656</ele>
        <time>2014-09-02T12:15:00Z</time>
      </trkpt>
      <trkpt lat="47.3646" lon="-1.02228">
        <ele>4.398438</ele>
        <time>2014-09-02T12:15:09Z</time>
      </trkpt>
      <trkpt lat="47.36457" lon="-1.02246">
        <ele>4.597656</ele>
        <time>2014-09-02T12:15:12Z</time>
      </trkpt>
      <trkpt lat="47.36454" lon="-1.02282">
        <ele>4.398438</ele>
        <time>2014-09-02T12:15:18Z</time>
      </trkpt>
      <trkpt lat="47.36447" lon="-1.02351">
        <ele>5.199219</ele>
        <time>2014-09-02T12:15:28Z</time>
      </trkpt>
      <trkpt lat="47.36437" lon="-1.02416">
        <ele>5.597656</ele>
        <time>2014-09-02T12:15:38Z</time>
      </trkpt>
      <trkpt lat="47.36437" lon="-1.02429">
        <ele>4.898438</ele>
        <time>2014-09-02T12:15:40Z</time>
      </trkpt>
      <trkpt lat="47.36438" lon="-1.02449">
        <ele>4</ele>
        <time>2014-09-02T12:15:43Z</time>
      </trkpt>
      <trkpt lat="47.36439" lon="-1.02468">
        <ele>3.796875</ele>
        <time>2014-09-02T12:15:46Z</time>
      </trkpt>
      <trkpt lat="47.36438" lon="-1.02482">
        <ele>3.796875</ele>
        <time>2014-09-02T12:15:48Z</time>
      </trkpt>
      <trkpt lat="47.36437" lon="-1.02495">
        <ele>3.796875</ele>
        <time>2014-09-02T12:15:50Z</time>
      </trkpt>
      <trkpt lat="47.36435" lon="-1.02509">
        <ele>4.398438</ele>
        <time>2014-09-02T12:15:52Z</time>
      </trkpt>
      <trkpt lat="47.36432" lon="-1.02557">
        <ele>7.097656</ele>
        <time>2014-09-02T12:16:02Z</time>
      </trkpt>
      <trkpt lat="47.36429" lon="-1.02572">
        <ele>7.296875</ele>
        <time>2014-09-02T12:16:05Z</time>
      </trkpt>
      <trkpt lat="47.36425" lon="-1.026">
        <ele>7</ele>
        <time>2014-09-02T12:16:11Z</time>
      </trkpt>
      <trkpt lat="47.36417" lon="-1.0261">
        <ele>7.398438</ele>
        <time>2014-09-02T12:16:14Z</time>
      </trkpt>
      <trkpt lat="47.36408" lon="-1.02615">
        <ele>8.5</ele>
        <time>2014-09-02T12:16:17Z</time>
      </trkpt>
      <trkpt lat="47.364" lon="-1.02626">
        <ele>10.296875</ele>
        <time>2014-09-02T12:16:20Z</time>
      </trkpt>
      <trkpt lat="47.36395" lon="-1.02643">
        <ele>11.796875</ele>
        <time>2014-09-02T12:16:23Z</time>
      </trkpt>
      <trkpt lat="47.36393" lon="-1.02663">
        <ele>12.296875</ele>
        <time>2014-09-02T12:16:26Z</time>
      </trkpt>
      <trkpt lat="47.36392" lon="-1.02677">
        <ele>12.699219</ele>
        <time>2014-09-02T12:16:28Z</time>
      </trkpt>
      <trkpt lat="47.36392" lon="-1.02705">
        <ele>13.199219</ele>
        <time>2014-09-02T12:16:32Z</time>
      </trkpt>
      <trkpt lat="47.36393" lon="-1.02719">
        <ele>13.398438</ele>
        <time>2014-09-02T12:16:34Z</time>
      </trkpt>
      <trkpt lat="47.36395" lon="-1.02733">
        <ele>13.597656</ele>
        <time>2014-09-02T12:16:36Z</time>
      </trkpt>
      <trkpt lat="47.36403" lon="-1.02775">
        <ele>14.296875</ele>
        <time>2014-09-02T12:16:42Z</time>
      </trkpt>
      <trkpt lat="47.36404" lon="-1.0279">
        <ele>14.199219</ele>
        <time>2014-09-02T12:16:44Z</time>
      </trkpt>
      <trkpt lat="47.36408" lon="-1.02838">
        <ele>12.699219</ele>
        <time>2014-09-02T12:16:50Z</time>
      </trkpt>
      <trkpt lat="47.3641" lon="-1.02853">
        <ele>12.199219</ele>
        <time>2014-09-02T12:16:52Z</time>
      </trkpt>
      <trkpt lat="47.36415" lon="-1.02882">
        <ele>11</ele>
        <time>2014-09-02T12:16:56Z</time>
      </trkpt>
      <trkpt lat="47.36415" lon="-1.02896">
        <ele>10.199219</ele>
        <time>2014-09-02T12:16:58Z</time>
      </trkpt>
      <trkpt lat="47.36413" lon="-1.0291">
        <ele>9.398438</ele>
        <time>2014-09-02T12:17:00Z</time>
      </trkpt>
      <trkpt lat="47.3641" lon="-1.02923">
        <ele>9.199219</ele>
        <time>2014-09-02T12:17:02Z</time>
      </trkpt>
      <trkpt lat="47.36403" lon="-1.02933">
        <ele>8.898438</ele>
        <time>2014-09-02T12:17:04Z</time>
      </trkpt>
      <trkpt lat="47.36394" lon="-1.02941">
        <ele>8.796875</ele>
        <time>2014-09-02T12:17:06Z</time>
      </trkpt>
      <trkpt lat="47.36377" lon="-1.02958">
        <ele>8.898438</ele>
        <time>2014-09-02T12:17:10Z</time>
      </trkpt>
      <trkpt lat="47.36369" lon="-1.02968">
        <ele>8.5</ele>
        <time>2014-09-02T12:17:12Z</time>
      </trkpt>
      <trkpt lat="47.36361" lon="-1.02979">
        <ele>8.5</ele>
        <time>2014-09-02T12:17:14Z</time>
      </trkpt>
      <trkpt lat="47.36355" lon="-1.02992">
        <ele>8.5</ele>
        <time>2014-09-02T12:17:16Z</time>
      </trkpt>
      <trkpt lat="47.36349" lon="-1.03005">
        <ele>8</ele>
        <time>2014-09-02T12:17:18Z</time>
      </trkpt>
      <trkpt lat="47.36344" lon="-1.03018">
        <ele>7.699219</ele>
        <time>2014-09-02T12:17:20Z</time>
      </trkpt>
      <trkpt lat="47.36332" lon="-1.03058">
        <ele>7.199219</ele>
        <time>2014-09-02T12:17:26Z</time>
      </trkpt>
      <trkpt lat="47.36305" lon="-1.03158">
        <ele>10.597656</ele>
        <time>2014-09-02T12:17:42Z</time>
      </trkpt>
      <trkpt lat="47.36297" lon="-1.03167">
        <ele>10.097656</ele>
        <time>2014-09-02T12:17:45Z</time>
      </trkpt>
      <trkpt lat="47.36286" lon="-1.03163">
        <ele>10.398438</ele>
        <time>2014-09-02T12:17:49Z</time>
      </trkpt>
      <trkpt lat="47.36277" lon="-1.03153">
        <ele>11.296875</ele>
        <time>2014-09-02T12:17:53Z</time>
      </trkpt>
      <trkpt lat="47.36262" lon="-1.03135">
        <ele>13.097656</ele>
        <time>2014-09-02T12:17:59Z</time>
      </trkpt>
      <trkpt lat="47.36251" lon="-1.0314">
        <ele>13.5</ele>
        <time>2014-09-02T12:18:03Z</time>
      </trkpt>
      <trkpt lat="47.36245" lon="-1.03154">
        <ele>12.699219</ele>
        <time>2014-09-02T12:18:06Z</time>
      </trkpt>
      <trkpt lat="47.36228" lon="-1.03207">
        <ele>12.699219</ele>
        <time>2014-09-02T12:18:15Z</time>
      </trkpt>
      <trkpt lat="47.36221" lon="-1.03232">
        <ele>12.898438</ele>
        <time>2014-09-02T12:18:19Z</time>
      </trkpt>
      <trkpt lat="47.36212" lon="-1.03271">
        <ele>12.699219</ele>
        <time>2014-09-02T12:18:25Z</time>
      </trkpt>
      <trkpt lat="47.36205" lon="-1.03313">
        <ele>12.398438</ele>
        <time>2014-09-02T12:18:31Z</time>
      </trkpt>
      <trkpt lat="47.36198" lon="-1.03373">
        <ele>11.097656</ele>
        <time>2014-09-02T12:18:40Z</time>
      </trkpt>
      <trkpt lat="47.36194" lon="-1.03389">
        <ele>10.296875</ele>
        <time>2014-09-02T12:18:43Z</time>
      </trkpt>
      <trkpt lat="47.36189" lon="-1.03404">
        <ele>9.898438</ele>
        <time>2014-09-02T12:18:46Z</time>
      </trkpt>
      <trkpt lat="47.36182" lon="-1.03417">
        <ele>10.398438</ele>
        <time>2014-09-02T12:18:49Z</time>
      </trkpt>
      <trkpt lat="47.36177" lon="-1.03432">
        <ele>11.199219</ele>
        <time>2014-09-02T12:18:52Z</time>
      </trkpt>
      <trkpt lat="47.36173" lon="-1.03448">
        <ele>11.398438</ele>
        <time>2014-09-02T12:18:55Z</time>
      </trkpt>
      <trkpt lat="47.36171" lon="-1.03462">
        <ele>10.597656</ele>
        <time>2014-09-02T12:18:58Z</time>
      </trkpt>
      <trkpt lat="47.36169" lon="-1.03476">
        <ele>9.296875</ele>
        <time>2014-09-02T12:19:02Z</time>
      </trkpt>
      <trkpt lat="47.3617" lon="-1.0346">
        <ele>9</ele>
        <time>2014-09-02T12:19:18Z</time>
      </trkpt>
      <trkpt lat="47.36174" lon="-1.03443">
        <ele>7.898438</ele>
        <time>2014-09-02T12:19:22Z</time>
      </trkpt>
      <trkpt lat="47.36177" lon="-1.03431">
        <ele>7.597656</ele>
        <time>2014-09-02T12:19:25Z</time>
      </trkpt>
      <trkpt lat="47.36182" lon="-1.03418">
        <ele>8</ele>
        <time>2014-09-02T12:19:28Z</time>
      </trkpt>
      <trkpt lat="47.36179" lon="-1.03433">
        <ele>8.398438</ele>
        <time>2014-09-02T12:19:38Z</time>
      </trkpt>
      <trkpt lat="47.36169" lon="-1.03479">
        <ele>9.398438</ele>
        <time>2014-09-02T12:19:47Z</time>
      </trkpt>
      <trkpt lat="47.36164" lon="-1.03493">
        <ele>9.597656</ele>
        <time>2014-09-02T12:19:50Z</time>
      </trkpt>
      <trkpt lat="47.36156" lon="-1.03507">
        <ele>10.097656</ele>
        <time>2014-09-02T12:19:53Z</time>
      </trkpt>
      <trkpt lat="47.36145" lon="-1.03515">
        <ele>11.898438</ele>
        <time>2014-09-02T12:19:56Z</time>
      </trkpt>
      <trkpt lat="47.36136" lon="-1.03522">
        <ele>13.199219</ele>
        <time>2014-09-02T12:19:59Z</time>
      </trkpt>
      <trkpt lat="47.36118" lon="-1.03533">
        <ele>15.597656</ele>
        <time>2014-09-02T12:20:05Z</time>
      </trkpt>
      <trkpt lat="47.36109" lon="-1.03542">
        <ele>15.796875</ele>
        <time>2014-09-02T12:20:09Z</time>
      </trkpt>
      <trkpt lat="47.36105" lon="-1.03559">
        <ele>15.796875</ele>
        <time>2014-09-02T12:20:13Z</time>
      </trkpt>
      <trkpt lat="47.36064" lon="-1.03715">
        <ele>16.398438</ele>
        <time>2014-09-02T12:20:43Z</time>
      </trkpt>
      <trkpt lat="47.36062" lon="-1.03729">
        <ele>15.398438</ele>
        <time>2014-09-02T12:20:47Z</time>
      </trkpt>
      <trkpt lat="47.36061" lon="-1.03745">
        <ele>14.296875</ele>
        <time>2014-09-02T12:20:51Z</time>
      </trkpt>
      <trkpt lat="47.36057" lon="-1.03763">
        <ele>13.296875</ele>
        <time>2014-09-02T12:20:54Z</time>
      </trkpt>
      <trkpt lat="47.3603" lon="-1.03879">
        <ele>9.097656</ele>
        <time>2014-09-02T12:21:08Z</time>
      </trkpt>
      <trkpt lat="47.3603" lon="-1.03893">
        <ele>9.097656</ele>
        <time>2014-09-02T12:21:10Z</time>
      </trkpt>
      <trkpt lat="47.36039" lon="-1.03907">
        <ele>8.898438</ele>
        <time>2014-09-02T12:21:13Z</time>
      </trkpt>
      <trkpt lat="47.36047" lon="-1.03915">
        <ele>8.597656</ele>
        <time>2014-09-02T12:21:16Z</time>
      </trkpt>
      <trkpt lat="47.36055" lon="-1.0391">
        <ele>8.597656</ele>
        <time>2014-09-02T12:21:20Z</time>
      </trkpt>
      <trkpt lat="47.36062" lon="-1.039">
        <ele>8.097656</ele>
        <time>2014-09-02T12:21:23Z</time>
      </trkpt>
      <trkpt lat="47.3607" lon="-1.03888">
        <ele>7.5</ele>
        <time>2014-09-02T12:21:26Z</time>
      </trkpt>
      <trkpt lat="47.36079" lon="-1.03876">
        <ele>6.597656</ele>
        <time>2014-09-02T12:21:29Z</time>
      </trkpt>
      <trkpt lat="47.3609" lon="-1.03874">
        <ele>6.398438</ele>
        <time>2014-09-02T12:21:32Z</time>
      </trkpt>
      <trkpt lat="47.36097" lon="-1.03889">
        <ele>6.5</ele>
        <time>2014-09-02T12:21:35Z</time>
      </trkpt>
      <trkpt lat="47.361" lon="-1.03908">
        <ele>6.199219</ele>
        <time>2014-09-02T12:21:38Z</time>
      </trkpt>
      <trkpt lat="47.36106" lon="-1.03943">
        <ele>4.796875</ele>
        <time>2014-09-02T12:21:44Z</time>
      </trkpt>
      <trkpt lat="47.36122" lon="-1.04074">
        <ele>4.597656</ele>
        <time>2014-09-02T12:22:03Z</time>
      </trkpt>
      <trkpt lat="47.36125" lon="-1.04104">
        <ele>5.796875</ele>
        <time>2014-09-02T12:22:07Z</time>
      </trkpt>
      <trkpt lat="47.36128" lon="-1.04118">
        <ele>6</ele>
        <time>2014-09-02T12:22:09Z</time>
      </trkpt>
      <trkpt lat="47.36134" lon="-1.04146">
        <ele>5.898438</ele>
        <time>2014-09-02T12:22:13Z</time>
      </trkpt>
      <trkpt lat="47.36136" lon="-1.04161">
        <ele>6.097656</ele>
        <time>2014-09-02T12:22:15Z</time>
      </trkpt>
      <trkpt lat="47.36139" lon="-1.04189">
        <ele>7.097656</ele>
        <time>2014-09-02T12:22:19Z</time>
      </trkpt>
      <trkpt lat="47.36147" lon="-1.04271">
        <ele>8.5</ele>
        <time>2014-09-02T12:22:31Z</time>
      </trkpt>
      <trkpt lat="47.3615" lon="-1.0429">
        <ele>8.898438</ele>
        <time>2014-09-02T12:22:34Z</time>
      </trkpt>
      <trkpt lat="47.36151" lon="-1.04309">
        <ele>9.199219</ele>
        <time>2014-09-02T12:22:37Z</time>
      </trkpt>
      <trkpt lat="47.36152" lon="-1.04328">
        <ele>9.398438</ele>
        <time>2014-09-02T12:22:40Z</time>
      </trkpt>
      <trkpt lat="47.36159" lon="-1.04535">
        <ele>8.296875</ele>
        <time>2014-09-02T12:23:11Z</time>
      </trkpt>
      <trkpt lat="47.36159" lon="-1.04578">
        <ele>8.097656</ele>
        <time>2014-09-02T12:23:17Z</time>
      </trkpt>
      <trkpt lat="47.36158" lon="-1.04593">
        <ele>8.097656</ele>
        <time>2014-09-02T12:23:19Z</time>
      </trkpt>
      <trkpt lat="47.36146" lon="-1.04794">
        <ele>8.597656</ele>
        <time>2014-09-02T12:23:47Z</time>
      </trkpt>
      <trkpt lat="47.36138" lon="-1.04809">
        <ele>8.199219</ele>
        <time>2014-09-02T12:23:50Z</time>
      </trkpt>
      <trkpt lat="47.36129" lon="-1.04813">
        <ele>7.796875</ele>
        <time>2014-09-02T12:23:52Z</time>
      </trkpt>
      <trkpt lat="47.3611" lon="-1.04821">
        <ele>6.796875</ele>
        <time>2014-09-02T12:23:56Z</time>
      </trkpt>
      <trkpt lat="47.36102" lon="-1.04827">
        <ele>7.199219</ele>
        <time>2014-09-02T12:23:58Z</time>
      </trkpt>
      <trkpt lat="47.36096" lon="-1.04838">
        <ele>7.699219</ele>
        <time>2014-09-02T12:24:00Z</time>
      </trkpt>
      <trkpt lat="47.36094" lon="-1.04858">
        <ele>8.097656</ele>
        <time>2014-09-02T12:24:03Z</time>
      </trkpt>
      <trkpt lat="47.36092" lon="-1.04899">
        <ele>9.097656</ele>
        <time>2014-09-02T12:24:09Z</time>
      </trkpt>
      <trkpt lat="47.3609" lon="-1.05052">
        <ele>11</ele>
        <time>2014-09-02T12:24:31Z</time>
      </trkpt>
      <trkpt lat="47.36087" lon="-1.05548">
        <ele>9.699219</ele>
        <time>2014-09-02T12:25:39Z</time>
      </trkpt>
      <trkpt lat="47.36086" lon="-1.0558">
        <ele>9.296875</ele>
        <time>2014-09-02T12:25:43Z</time>
      </trkpt>
      <trkpt lat="47.36088" lon="-1.05627">
        <ele>9.5</ele>
        <time>2014-09-02T12:25:49Z</time>
      </trkpt>
      <trkpt lat="47.361" lon="-1.05924">
        <ele>8.5</ele>
        <time>2014-09-02T12:26:31Z</time>
      </trkpt>
      <trkpt lat="47.36099" lon="-1.06126">
        <ele>10.597656</ele>
        <time>2014-09-02T12:26:58Z</time>
      </trkpt>
      <trkpt lat="47.36095" lon="-1.06278">
        <ele>12.597656</ele>
        <time>2014-09-02T12:27:19Z</time>
      </trkpt>
      <trkpt lat="47.36097" lon="-1.06311">
        <ele>13.296875</ele>
        <time>2014-09-02T12:27:24Z</time>
      </trkpt>
      <trkpt lat="47.36099" lon="-1.06325">
        <ele>13.699219</ele>
        <time>2014-09-02T12:27:26Z</time>
      </trkpt>
      <trkpt lat="47.36101" lon="-1.06338">
        <ele>14.199219</ele>
        <time>2014-09-02T12:27:28Z</time>
      </trkpt>
      <trkpt lat="47.36104" lon="-1.06351">
        <ele>14.597656</ele>
        <time>2014-09-02T12:27:30Z</time>
      </trkpt>
      <trkpt lat="47.36107" lon="-1.06364">
        <ele>14.398438</ele>
        <time>2014-09-02T12:27:32Z</time>
      </trkpt>
      <trkpt lat="47.36115" lon="-1.0639">
        <ele>14.097656</ele>
        <time>2014-09-02T12:27:36Z</time>
      </trkpt>
      <trkpt lat="47.36118" lon="-1.06405">
        <ele>13.898438</ele>
        <time>2014-09-02T12:27:38Z</time>
      </trkpt>
      <trkpt lat="47.36122" lon="-1.0642">
        <ele>13.796875</ele>
        <time>2014-09-02T12:27:40Z</time>
      </trkpt>
      <trkpt lat="47.36124" lon="-1.06435">
        <ele>13.796875</ele>
        <time>2014-09-02T12:27:42Z</time>
      </trkpt>
      <trkpt lat="47.36126" lon="-1.06464">
        <ele>13.898438</ele>
        <time>2014-09-02T12:27:46Z</time>
      </trkpt>
      <trkpt lat="47.36136" lon="-1.06474">
        <ele>13.597656</ele>
        <time>2014-09-02T12:27:49Z</time>
      </trkpt>
      <trkpt lat="47.36149" lon="-1.06474">
        <ele>13.296875</ele>
        <time>2014-09-02T12:27:52Z</time>
      </trkpt>
      <trkpt lat="47.36279" lon="-1.06477">
        <ele>10.898438</ele>
        <time>2014-09-02T12:28:16Z</time>
      </trkpt>
      <trkpt lat="47.36289" lon="-1.0648">
        <ele>10.597656</ele>
        <time>2014-09-02T12:28:18Z</time>
      </trkpt>
      <trkpt lat="47.36299" lon="-1.06487">
        <ele>10.296875</ele>
        <time>2014-09-02T12:28:20Z</time>
      </trkpt>
      <trkpt lat="47.36308" lon="-1.06494">
        <ele>9.398438</ele>
        <time>2014-09-02T12:28:22Z</time>
      </trkpt>
      <trkpt lat="47.36319" lon="-1.06505">
        <ele>9.097656</ele>
        <time>2014-09-02T12:28:25Z</time>
      </trkpt>
      <trkpt lat="47.36345" lon="-1.06532">
        <ele>7.398438</ele>
        <time>2014-09-02T12:28:32Z</time>
      </trkpt>
      <trkpt lat="47.36371" lon="-1.06552">
        <ele>6.199219</ele>
        <time>2014-09-02T12:28:38Z</time>
      </trkpt>
      <trkpt lat="47.3638" lon="-1.06557">
        <ele>6.199219</ele>
        <time>2014-09-02T12:28:40Z</time>
      </trkpt>
      <trkpt lat="47.36442" lon="-1.06595">
        <ele>7.5</ele>
        <time>2014-09-02T12:28:54Z</time>
      </trkpt>
      <trkpt lat="47.36453" lon="-1.06603">
        <ele>7.796875</ele>
        <time>2014-09-02T12:28:57Z</time>
      </trkpt>
      <trkpt lat="47.36458" lon="-1.06619">
        <ele>8</ele>
        <time>2014-09-02T12:29:00Z</time>
      </trkpt>
      <trkpt lat="47.36457" lon="-1.06637">
        <ele>7.796875</ele>
        <time>2014-09-02T12:29:03Z</time>
      </trkpt>
      <trkpt lat="47.36452" lon="-1.06656">
        <ele>7.796875</ele>
        <time>2014-09-02T12:29:06Z</time>
      </trkpt>
      <trkpt lat="47.36436" lon="-1.06726">
        <ele>7.597656</ele>
        <time>2014-09-02T12:29:17Z</time>
      </trkpt>
      <trkpt lat="47.36435" lon="-1.0674">
        <ele>7.699219</ele>
        <time>2014-09-02T12:29:19Z</time>
      </trkpt>
      <trkpt lat="47.36423" lon="-1.06872">
        <ele>7</ele>
        <time>2014-09-02T12:29:37Z</time>
      </trkpt>
      <trkpt lat="47.36423" lon="-1.06903">
        <ele>7</ele>
        <time>2014-09-02T12:29:41Z</time>
      </trkpt>
      <trkpt lat="47.36428" lon="-1.06994">
        <ele>7.898438</ele>
        <time>2014-09-02T12:29:53Z</time>
      </trkpt>
      <trkpt lat="47.36432" lon="-1.07026">
        <ele>7.796875</ele>
        <time>2014-09-02T12:29:57Z</time>
      </trkpt>
      <trkpt lat="47.36436" lon="-1.07057">
        <ele>7.699219</ele>
        <time>2014-09-02T12:30:01Z</time>
      </trkpt>
      <trkpt lat="47.36437" lon="-1.07073">
        <ele>7.398438</ele>
        <time>2014-09-02T12:30:03Z</time>
      </trkpt>
      <trkpt lat="47.36437" lon="-1.0709">
        <ele>7.199219</ele>
        <time>2014-09-02T12:30:05Z</time>
      </trkpt>
      <trkpt lat="47.36436" lon="-1.07105">
        <ele>7.097656</ele>
        <time>2014-09-02T12:30:07Z</time>
      </trkpt>
      <trkpt lat="47.36434" lon="-1.07121">
        <ele>7</ele>
        <time>2014-09-02T12:30:09Z</time>
      </trkpt>
      <trkpt lat="47.36431" lon="-1.07136">
        <ele>6.699219</ele>
        <time>2014-09-02T12:30:11Z</time>
      </trkpt>
      <trkpt lat="47.36428" lon="-1.0715">
        <ele>6.398438</ele>
        <time>2014-09-02T12:30:13Z</time>
      </trkpt>
      <trkpt lat="47.36419" lon="-1.07178">
        <ele>5.699219</ele>
        <time>2014-09-02T12:30:17Z</time>
      </trkpt>
      <trkpt lat="47.36409" lon="-1.07204">
        <ele>3.597656</ele>
        <time>2014-09-02T12:30:21Z</time>
      </trkpt>
      <trkpt lat="47.36404" lon="-1.07216">
        <ele>2.796875</ele>
        <time>2014-09-02T12:30:23Z</time>
      </trkpt>
      <trkpt lat="47.36392" lon="-1.07239">
        <ele>2.699219</ele>
        <time>2014-09-02T12:30:27Z</time>
      </trkpt>
      <trkpt lat="47.36386" lon="-1.0725">
        <ele>1.898438</ele>
        <time>2014-09-02T12:30:29Z</time>
      </trkpt>
      <trkpt lat="47.36377" lon="-1.07264">
        <ele>1.398438</ele>
        <time>2014-09-02T12:30:32Z</time>
      </trkpt>
      <trkpt lat="47.36369" lon="-1.07272">
        <ele>1.398438</ele>
        <time>2014-09-02T12:30:34Z</time>
      </trkpt>
      <trkpt lat="47.36361" lon="-1.07282">
        <ele>1.796875</ele>
        <time>2014-09-02T12:30:36Z</time>
      </trkpt>
      <trkpt lat="47.36353" lon="-1.07293">
        <ele>2.097656</ele>
        <time>2014-09-02T12:30:38Z</time>
      </trkpt>
      <trkpt lat="47.36346" lon="-1.07306">
        <ele>2.5</ele>
        <time>2014-09-02T12:30:40Z</time>
      </trkpt>
      <trkpt lat="47.36332" lon="-1.07332">
        <ele>3.5</ele>
        <time>2014-09-02T12:30:44Z</time>
      </trkpt>
      <trkpt lat="47.36313" lon="-1.07372">
        <ele>3.597656</ele>
        <time>2014-09-02T12:30:50Z</time>
      </trkpt>
      <trkpt lat="47.36303" lon="-1.07398">
        <ele>2.898438</ele>
        <time>2014-09-02T12:30:54Z</time>
      </trkpt>
      <trkpt lat="47.363" lon="-1.07412">
        <ele>2.699219</ele>
        <time>2014-09-02T12:30:56Z</time>
      </trkpt>
      <trkpt lat="47.36286" lon="-1.07487">
        <ele>2.699219</ele>
        <time>2014-09-02T12:31:06Z</time>
      </trkpt>
      <trkpt lat="47.36266" lon="-1.07613">
        <ele>1.097656</ele>
        <time>2014-09-02T12:31:22Z</time>
      </trkpt>
      <trkpt lat="47.36264" lon="-1.07629">
        <ele>1.097656</ele>
        <time>2014-09-02T12:31:24Z</time>
      </trkpt>
      <trkpt lat="47.36263" lon="-1.07645">
        <ele>1.199219</ele>
        <time>2014-09-02T12:31:26Z</time>
      </trkpt>
      <trkpt lat="47.36262" lon="-1.07661">
        <ele>1.296875</ele>
        <time>2014-09-02T12:31:28Z</time>
      </trkpt>
      <trkpt lat="47.36263" lon="-1.07677">
        <ele>1.5</ele>
        <time>2014-09-02T12:31:30Z</time>
      </trkpt>
      <trkpt lat="47.36264" lon="-1.07774">
        <ele>2.699219</ele>
        <time>2014-09-02T12:31:42Z</time>
      </trkpt>
      <trkpt lat="47.36266" lon="-1.0779">
        <ele>2.898438</ele>
        <time>2014-09-02T12:31:44Z</time>
      </trkpt>
      <trkpt lat="47.36269" lon="-1.07806">
        <ele>3</ele>
        <time>2014-09-02T12:31:46Z</time>
      </trkpt>
      <trkpt lat="47.36273" lon="-1.0782">
        <ele>3.199219</ele>
        <time>2014-09-02T12:31:48Z</time>
      </trkpt>
      <trkpt lat="47.36284" lon="-1.07847">
        <ele>3.296875</ele>
        <time>2014-09-02T12:31:52Z</time>
      </trkpt>
      <trkpt lat="47.36288" lon="-1.07862">
        <ele>3.296875</ele>
        <time>2014-09-02T12:31:54Z</time>
      </trkpt>
      <trkpt lat="47.36291" lon="-1.07878">
        <ele>3.5</ele>
        <time>2014-09-02T12:31:56Z</time>
      </trkpt>
      <trkpt lat="47.36303" lon="-1.07955">
        <ele>2.699219</ele>
        <time>2014-09-02T12:32:06Z</time>
      </trkpt>
      <trkpt lat="47.36307" lon="-1.07987">
        <ele>2.398438</ele>
        <time>2014-09-02T12:32:10Z</time>
      </trkpt>
      <trkpt lat="47.36308" lon="-1.0802">
        <ele>2.699219</ele>
        <time>2014-09-02T12:32:14Z</time>
      </trkpt>
      <trkpt lat="47.36307" lon="-1.08037">
        <ele>2.898438</ele>
        <time>2014-09-02T12:32:16Z</time>
      </trkpt>
      <trkpt lat="47.36304" lon="-1.08084">
        <ele>3.398438</ele>
        <time>2014-09-02T12:32:22Z</time>
      </trkpt>
      <trkpt lat="47.36307" lon="-1.081">
        <ele>3.699219</ele>
        <time>2014-09-02T12:32:24Z</time>
      </trkpt>
      <trkpt lat="47.36312" lon="-1.08113">
        <ele>3.699219</ele>
        <time>2014-09-02T12:32:26Z</time>
      </trkpt>
      <trkpt lat="47.36318" lon="-1.08124">
        <ele>4.199219</ele>
        <time>2014-09-02T12:32:28Z</time>
      </trkpt>
      <trkpt lat="47.36326" lon="-1.08133">
        <ele>4.5</ele>
        <time>2014-09-02T12:32:30Z</time>
      </trkpt>
      <trkpt lat="47.36334" lon="-1.08142">
        <ele>5.398438</ele>
        <time>2014-09-02T12:32:32Z</time>
      </trkpt>
      <trkpt lat="47.36342" lon="-1.08157">
        <ele>4.796875</ele>
        <time>2014-09-02T12:32:35Z</time>
      </trkpt>
      <trkpt lat="47.3635" lon="-1.08172">
        <ele>4.097656</ele>
        <time>2014-09-02T12:32:38Z</time>
      </trkpt>
      <trkpt lat="47.36362" lon="-1.08195">
        <ele>5</ele>
        <time>2014-09-02T12:32:42Z</time>
      </trkpt>
      <trkpt lat="47.36376" lon="-1.08219">
        <ele>6</ele>
        <time>2014-09-02T12:32:46Z</time>
      </trkpt>
      <trkpt lat="47.36384" lon="-1.0823">
        <ele>5.5</ele>
        <time>2014-09-02T12:32:48Z</time>
      </trkpt>
      <trkpt lat="47.36408" lon="-1.0826">
        <ele>2.699219</ele>
        <time>2014-09-02T12:32:54Z</time>
      </trkpt>
      <trkpt lat="47.36415" lon="-1.08271">
        <ele>3.398438</ele>
        <time>2014-09-02T12:32:56Z</time>
      </trkpt>
      <trkpt lat="47.36437" lon="-1.08308">
        <ele>3.597656</ele>
        <time>2014-09-02T12:33:02Z</time>
      </trkpt>
      <trkpt lat="47.36446" lon="-1.08314">
        <ele>4.097656</ele>
        <time>2014-09-02T12:33:04Z</time>
      </trkpt>
      <trkpt lat="47.36457" lon="-1.08318">
        <ele>3.5</ele>
        <time>2014-09-02T12:33:06Z</time>
      </trkpt>
      <trkpt lat="47.36468" lon="-1.08319">
        <ele>3.097656</ele>
        <time>2014-09-02T12:33:08Z</time>
      </trkpt>
      <trkpt lat="47.36479" lon="-1.0832">
        <ele>3.199219</ele>
        <time>2014-09-02T12:33:10Z</time>
      </trkpt>
      <trkpt lat="47.36489" lon="-1.08325">
        <ele>3.796875</ele>
        <time>2014-09-02T12:33:12Z</time>
      </trkpt>
      <trkpt lat="47.36496" lon="-1.08337">
        <ele>3.898438</ele>
        <time>2014-09-02T12:33:14Z</time>
      </trkpt>
      <trkpt lat="47.365" lon="-1.08352">
        <ele>4</ele>
        <time>2014-09-02T12:33:16Z</time>
      </trkpt>
      <trkpt lat="47.36503" lon="-1.08368">
        <ele>4.097656</ele>
        <time>2014-09-02T12:33:18Z</time>
      </trkpt>
      <trkpt lat="47.36506" lon="-1.08384">
        <ele>4</ele>
        <time>2014-09-02T12:33:20Z</time>
      </trkpt>
      <trkpt lat="47.36524" lon="-1.08462">
        <ele>4.796875</ele>
        <time>2014-09-02T12:33:30Z</time>
      </trkpt>
      <trkpt lat="47.36525" lon="-1.08478">
        <ele>5.097656</ele>
        <time>2014-09-02T12:33:32Z</time>
      </trkpt>
      <trkpt lat="47.36531" lon="-1.08543">
        <ele>5</ele>
        <time>2014-09-02T12:33:40Z</time>
      </trkpt>
      <trkpt lat="47.36534" lon="-1.0856">
        <ele>5.097656</ele>
        <time>2014-09-02T12:33:42Z</time>
      </trkpt>
      <trkpt lat="47.36571" lon="-1.08733">
        <ele>6.097656</ele>
        <time>2014-09-02T12:34:04Z</time>
      </trkpt>
      <trkpt lat="47.36572" lon="-1.08749">
        <ele>6.199219</ele>
        <time>2014-09-02T12:34:06Z</time>
      </trkpt>
      <trkpt lat="47.36573" lon="-1.08797">
        <ele>5.597656</ele>
        <time>2014-09-02T12:34:12Z</time>
      </trkpt>
      <trkpt lat="47.36573" lon="-1.08894">
        <ele>6.699219</ele>
        <time>2014-09-02T12:34:24Z</time>
      </trkpt>
      <trkpt lat="47.3657" lon="-1.08959">
        <ele>7.5</ele>
        <time>2014-09-02T12:34:32Z</time>
      </trkpt>
      <trkpt lat="47.36572" lon="-1.08974">
        <ele>7.699219</ele>
        <time>2014-09-02T12:34:34Z</time>
      </trkpt>
      <trkpt lat="47.36573" lon="-1.08988">
        <ele>7.097656</ele>
        <time>2014-09-02T12:34:36Z</time>
      </trkpt>
      <trkpt lat="47.36563" lon="-1.09001">
        <ele>7.199219</ele>
        <time>2014-09-02T12:34:39Z</time>
      </trkpt>
      <trkpt lat="47.36553" lon="-1.09">
        <ele>7.398438</ele>
        <time>2014-09-02T12:34:41Z</time>
      </trkpt>
      <trkpt lat="47.36534" lon="-1.08995">
        <ele>7.898438</ele>
        <time>2014-09-02T12:34:45Z</time>
      </trkpt>
      <trkpt lat="47.36525" lon="-1.08997">
        <ele>8.097656</ele>
        <time>2014-09-02T12:34:47Z</time>
      </trkpt>
      <trkpt lat="47.36516" lon="-1.09004">
        <ele>8.199219</ele>
        <time>2014-09-02T12:34:49Z</time>
      </trkpt>
      <trkpt lat="47.36508" lon="-1.09012">
        <ele>8.296875</ele>
        <time>2014-09-02T12:34:51Z</time>
      </trkpt>
      <trkpt lat="47.36424" lon="-1.09109">
        <ele>3.5</ele>
        <time>2014-09-02T12:35:11Z</time>
      </trkpt>
      <trkpt lat="47.36415" lon="-1.09116">
        <ele>2.898438</ele>
        <time>2014-09-02T12:35:13Z</time>
      </trkpt>
      <trkpt lat="47.36405" lon="-1.09118">
        <ele>2.398438</ele>
        <time>2014-09-02T12:35:15Z</time>
      </trkpt>
      <trkpt lat="47.36394" lon="-1.09117">
        <ele>2.296875</ele>
        <time>2014-09-02T12:35:17Z</time>
      </trkpt>
      <trkpt lat="47.36383" lon="-1.09115">
        <ele>2.398438</ele>
        <time>2014-09-02T12:35:19Z</time>
      </trkpt>
      <trkpt lat="47.36362" lon="-1.0911">
        <ele>3.398438</ele>
        <time>2014-09-02T12:35:23Z</time>
      </trkpt>
      <trkpt lat="47.36352" lon="-1.09115">
        <ele>4.097656</ele>
        <time>2014-09-02T12:35:25Z</time>
      </trkpt>
      <trkpt lat="47.36351" lon="-1.0913">
        <ele>4.199219</ele>
        <time>2014-09-02T12:35:28Z</time>
      </trkpt>
      <trkpt lat="47.36356" lon="-1.09145">
        <ele>4.5</ele>
        <time>2014-09-02T12:35:31Z</time>
      </trkpt>
      <trkpt lat="47.3636" lon="-1.09162">
        <ele>4.796875</ele>
        <time>2014-09-02T12:35:34Z</time>
      </trkpt>
      <trkpt lat="47.3637" lon="-1.09223">
        <ele>5.796875</ele>
        <time>2014-09-02T12:35:44Z</time>
      </trkpt>
      <trkpt lat="47.36382" lon="-1.09306">
        <ele>4.699219</ele>
        <time>2014-09-02T12:35:54Z</time>
      </trkpt>
      <trkpt lat="47.36406" lon="-1.09544">
        <ele>7.867188</ele>
        <time>2014-09-02T12:36:26Z</time>
      </trkpt>
      <trkpt lat="47.36412" lon="-1.09585">
        <ele>14.5</ele>
        <time>2014-09-02T12:40:03Z</time>
      </trkpt>
      <trkpt lat="47.36415" lon="-1.09599">
        <ele>14.296875</ele>
        <time>2014-09-02T12:40:06Z</time>
      </trkpt>
      <trkpt lat="47.36433" lon="-1.09695">
        <ele>11.398438</ele>
        <time>2014-09-02T12:40:19Z</time>
      </trkpt>
      <trkpt lat="47.36434" lon="-1.09711">
        <ele>10.097656</ele>
        <time>2014-09-02T12:40:21Z</time>
      </trkpt>
      <trkpt lat="47.36435" lon="-1.09743">
        <ele>8.5</ele>
        <time>2014-09-02T12:40:25Z</time>
      </trkpt>
      <trkpt lat="47.36437" lon="-1.09758">
        <ele>8.097656</ele>
        <time>2014-09-02T12:40:27Z</time>
      </trkpt>
      <trkpt lat="47.36448" lon="-1.09832">
        <ele>8.097656</ele>
        <time>2014-09-02T12:40:37Z</time>
      </trkpt>
      <trkpt lat="47.3645" lon="-1.09852">
        <ele>8</ele>
        <time>2014-09-02T12:40:40Z</time>
      </trkpt>
      <trkpt lat="47.36452" lon="-1.09865">
        <ele>8.199219</ele>
        <time>2014-09-02T12:40:42Z</time>
      </trkpt>
      <trkpt lat="47.36458" lon="-1.09896">
        <ele>8.398438</ele>
        <time>2014-09-02T12:40:46Z</time>
      </trkpt>
      <trkpt lat="47.36466" lon="-1.09926">
        <ele>9.296875</ele>
        <time>2014-09-02T12:40:50Z</time>
      </trkpt>
      <trkpt lat="47.36492" lon="-1.10034">
        <ele>10</ele>
        <time>2014-09-02T12:41:04Z</time>
      </trkpt>
      <trkpt lat="47.36502" lon="-1.10099">
        <ele>11.796875</ele>
        <time>2014-09-02T12:41:12Z</time>
      </trkpt>
      <trkpt lat="47.36506" lon="-1.10132">
        <ele>12.296875</ele>
        <time>2014-09-02T12:41:16Z</time>
      </trkpt>
      <trkpt lat="47.36506" lon="-1.10148">
        <ele>12.296875</ele>
        <time>2014-09-02T12:41:18Z</time>
      </trkpt>
      <trkpt lat="47.36505" lon="-1.10164">
        <ele>12.398438</ele>
        <time>2014-09-02T12:41:20Z</time>
      </trkpt>
      <trkpt lat="47.36502" lon="-1.10194">
        <ele>12.296875</ele>
        <time>2014-09-02T12:41:24Z</time>
      </trkpt>
      <trkpt lat="47.36504" lon="-1.10208">
        <ele>12.296875</ele>
        <time>2014-09-02T12:41:26Z</time>
      </trkpt>
      <trkpt lat="47.36508" lon="-1.10222">
        <ele>12.296875</ele>
        <time>2014-09-02T12:41:28Z</time>
      </trkpt>
      <trkpt lat="47.36511" lon="-1.10236">
        <ele>12.199219</ele>
        <time>2014-09-02T12:41:30Z</time>
      </trkpt>
      <trkpt lat="47.36514" lon="-1.10251">
        <ele>12</ele>
        <time>2014-09-02T12:41:32Z</time>
      </trkpt>
      <trkpt lat="47.36515" lon="-1.10266">
        <ele>12.097656</ele>
        <time>2014-09-02T12:41:34Z</time>
      </trkpt>
      <trkpt lat="47.36517" lon="-1.10282">
        <ele>12.199219</ele>
        <time>2014-09-02T12:41:36Z</time>
      </trkpt>
      <trkpt lat="47.36522" lon="-1.10362">
        <ele>12.597656</ele>
        <time>2014-09-02T12:41:46Z</time>
      </trkpt>
      <trkpt lat="47.36522" lon="-1.10395">
        <ele>13.296875</ele>
        <time>2014-09-02T12:41:50Z</time>
      </trkpt>
      <trkpt lat="47.36522" lon="-1.10411">
        <ele>13.796875</ele>
        <time>2014-09-02T12:41:52Z</time>
      </trkpt>
      <trkpt lat="47.36522" lon="-1.10428">
        <ele>14.296875</ele>
        <time>2014-09-02T12:41:54Z</time>
      </trkpt>
      <trkpt lat="47.36522" lon="-1.1046">
        <ele>15.699219</ele>
        <time>2014-09-02T12:41:58Z</time>
      </trkpt>
      <trkpt lat="47.36521" lon="-1.10588">
        <ele>17.898438</ele>
        <time>2014-09-02T12:42:14Z</time>
      </trkpt>
      <trkpt lat="47.36544" lon="-1.10924">
        <ele>10.5</ele>
        <time>2014-09-02T12:42:56Z</time>
      </trkpt>
      <trkpt lat="47.36559" lon="-1.11055">
        <ele>10.199219</ele>
        <time>2014-09-02T12:43:12Z</time>
      </trkpt>
      <trkpt lat="47.36559" lon="-1.11104">
        <ele>10.796875</ele>
        <time>2014-09-02T12:43:18Z</time>
      </trkpt>
      <trkpt lat="47.36558" lon="-1.11138">
        <ele>11.5</ele>
        <time>2014-09-02T12:43:22Z</time>
      </trkpt>
      <trkpt lat="47.36559" lon="-1.11154">
        <ele>11.398438</ele>
        <time>2014-09-02T12:43:24Z</time>
      </trkpt>
      <trkpt lat="47.36572" lon="-1.1133">
        <ele>11.097656</ele>
        <time>2014-09-02T12:43:46Z</time>
      </trkpt>
      <trkpt lat="47.36571" lon="-1.11395">
        <ele>11.296875</ele>
        <time>2014-09-02T12:43:54Z</time>
      </trkpt>
      <trkpt lat="47.36572" lon="-1.11476">
        <ele>10.898438</ele>
        <time>2014-09-02T12:44:04Z</time>
      </trkpt>
      <trkpt lat="47.36576" lon="-1.11559">
        <ele>12.199219</ele>
        <time>2014-09-02T12:44:14Z</time>
      </trkpt>
      <trkpt lat="47.36596" lon="-1.1183">
        <ele>12.796875</ele>
        <time>2014-09-02T12:44:48Z</time>
      </trkpt>
      <trkpt lat="47.366" lon="-1.11862">
        <ele>12.699219</ele>
        <time>2014-09-02T12:44:52Z</time>
      </trkpt>
      <trkpt lat="47.366" lon="-1.11877">
        <ele>12.796875</ele>
        <time>2014-09-02T12:44:54Z</time>
      </trkpt>
      <trkpt lat="47.366" lon="-1.11891">
        <ele>12.699219</ele>
        <time>2014-09-02T12:44:56Z</time>
      </trkpt>
      <trkpt lat="47.36599" lon="-1.11904">
        <ele>12.097656</ele>
        <time>2014-09-02T12:44:59Z</time>
      </trkpt>
      <trkpt lat="47.3659" lon="-1.1191">
        <ele>11.097656</ele>
        <time>2014-09-02T12:45:17Z</time>
      </trkpt>
      <trkpt lat="47.3658" lon="-1.11902">
        <ele>10.597656</ele>
        <time>2014-09-02T12:45:21Z</time>
      </trkpt>
      <trkpt lat="47.36571" lon="-1.11895">
        <ele>10</ele>
        <time>2014-09-02T12:45:24Z</time>
      </trkpt>
      <trkpt lat="47.36559" lon="-1.11889">
        <ele>9.597656</ele>
        <time>2014-09-02T12:45:27Z</time>
      </trkpt>
      <trkpt lat="47.3654" lon="-1.11881">
        <ele>7.796875</ele>
        <time>2014-09-02T12:45:31Z</time>
      </trkpt>
      <trkpt lat="47.3653" lon="-1.11879">
        <ele>5.796875</ele>
        <time>2014-09-02T12:45:33Z</time>
      </trkpt>
      <trkpt lat="47.36521" lon="-1.11878">
        <ele>5.199219</ele>
        <time>2014-09-02T12:45:35Z</time>
      </trkpt>
      <trkpt lat="47.36476" lon="-1.11873">
        <ele>5.699219</ele>
        <time>2014-09-02T12:45:43Z</time>
      </trkpt>
      <trkpt lat="47.36434" lon="-1.11858">
        <ele>1.699219</ele>
        <time>2014-09-02T12:45:51Z</time>
      </trkpt>
      <trkpt lat="47.3638" lon="-1.11838">
        <ele>1.296875</ele>
        <time>2014-09-02T12:46:01Z</time>
      </trkpt>
      <trkpt lat="47.36296" lon="-1.11824">
        <ele>-4</ele>
        <time>2014-09-02T12:46:17Z</time>
      </trkpt>
      <trkpt lat="47.36219" lon="-1.11818">
        <ele>-4.398438</ele>
        <time>2014-09-02T12:46:31Z</time>
      </trkpt>
      <trkpt lat="47.36208" lon="-1.1182">
        <ele>-4.898438</ele>
        <time>2014-09-02T12:46:33Z</time>
      </trkpt>
      <trkpt lat="47.36197" lon="-1.11824">
        <ele>-5.597656</ele>
        <time>2014-09-02T12:46:35Z</time>
      </trkpt>
      <trkpt lat="47.36177" lon="-1.11829">
        <ele>-6.296875</ele>
        <time>2014-09-02T12:46:39Z</time>
      </trkpt>
      <trkpt lat="47.36156" lon="-1.11832">
        <ele>-6.398438</ele>
        <time>2014-09-02T12:46:43Z</time>
      </trkpt>
      <trkpt lat="47.36102" lon="-1.11834">
        <ele>-8.5</ele>
        <time>2014-09-02T12:46:53Z</time>
      </trkpt>
      <trkpt lat="47.36091" lon="-1.11838">
        <ele>-9.097656</ele>
        <time>2014-09-02T12:46:55Z</time>
      </trkpt>
      <trkpt lat="47.3607" lon="-1.11844">
        <ele>-8.597656</ele>
        <time>2014-09-02T12:46:59Z</time>
      </trkpt>
      <trkpt lat="47.36059" lon="-1.11845">
        <ele>-8.097656</ele>
        <time>2014-09-02T12:47:01Z</time>
      </trkpt>
      <trkpt lat="47.35922" lon="-1.11846">
        <ele>-9.898438</ele>
        <time>2014-09-02T12:47:27Z</time>
      </trkpt>
      <trkpt lat="47.35825" lon="-1.11837">
        <ele>-6.097656</ele>
        <time>2014-09-02T12:47:45Z</time>
      </trkpt>
      <trkpt lat="47.35814" lon="-1.11847">
        <ele>-5.5</ele>
        <time>2014-09-02T12:47:48Z</time>
      </trkpt>
      <trkpt lat="47.3581" lon="-1.11859">
        <ele>-4.796875</ele>
        <time>2014-09-02T12:47:50Z</time>
      </trkpt>
      <trkpt lat="47.35808" lon="-1.11873">
        <ele>-4.097656</ele>
        <time>2014-09-02T12:47:52Z</time>
      </trkpt>
      <trkpt lat="47.35767" lon="-1.12109">
        <ele>1.597656</ele>
        <time>2014-09-02T12:48:22Z</time>
      </trkpt>
      <trkpt lat="47.35766" lon="-1.12125">
        <ele>1.398438</ele>
        <time>2014-09-02T12:48:24Z</time>
      </trkpt>
      <trkpt lat="47.35765" lon="-1.1214">
        <ele>1.296875</ele>
        <time>2014-09-02T12:48:26Z</time>
      </trkpt>
      <trkpt lat="47.35766" lon="-1.12155">
        <ele>1.898438</ele>
        <time>2014-09-02T12:48:28Z</time>
      </trkpt>
      <trkpt lat="47.35768" lon="-1.1217">
        <ele>2.199219</ele>
        <time>2014-09-02T12:48:30Z</time>
      </trkpt>
      <trkpt lat="47.35772" lon="-1.12183">
        <ele>2.398438</ele>
        <time>2014-09-02T12:48:32Z</time>
      </trkpt>
      <trkpt lat="47.35783" lon="-1.12222">
        <ele>3.097656</ele>
        <time>2014-09-02T12:48:38Z</time>
      </trkpt>
      <trkpt lat="47.35789" lon="-1.12238">
        <ele>3.5</ele>
        <time>2014-09-02T12:48:41Z</time>
      </trkpt>
      <trkpt lat="47.35797" lon="-1.12251">
        <ele>3.296875</ele>
        <time>2014-09-02T12:48:44Z</time>
      </trkpt>
      <trkpt lat="47.35799" lon="-1.12265">
        <ele>3.597656</ele>
        <time>2014-09-02T12:48:47Z</time>
      </trkpt>
      <trkpt lat="47.35794" lon="-1.12277">
        <ele>1.699219</ele>
        <time>2014-09-02T12:48:50Z</time>
      </trkpt>
      <trkpt lat="47.35785" lon="-1.12287">
        <ele>-0.097656</ele>
        <time>2014-09-02T12:48:54Z</time>
      </trkpt>
      <trkpt lat="47.35779" lon="-1.12297">
        <ele>-1.097656</ele>
        <time>2014-09-02T12:48:57Z</time>
      </trkpt>
      <trkpt lat="47.35775" lon="-1.12313">
        <ele>-1.199219</ele>
        <time>2014-09-02T12:49:00Z</time>
      </trkpt>
      <trkpt lat="47.35769" lon="-1.12328">
        <ele>-1.699219</ele>
        <time>2014-09-02T12:49:03Z</time>
      </trkpt>
      <trkpt lat="47.35763" lon="-1.12338">
        <ele>-1.699219</ele>
        <time>2014-09-02T12:49:05Z</time>
      </trkpt>
      <trkpt lat="47.35743" lon="-1.1237">
        <ele>-0.796875</ele>
        <time>2014-09-02T12:49:11Z</time>
      </trkpt>
      <trkpt lat="47.35737" lon="-1.12382">
        <ele>-0.296875</ele>
        <time>2014-09-02T12:49:13Z</time>
      </trkpt>
      <trkpt lat="47.35733" lon="-1.12395">
        <ele>0.398438</ele>
        <time>2014-09-02T12:49:15Z</time>
      </trkpt>
      <trkpt lat="47.35729" lon="-1.12407">
        <ele>1.398438</ele>
        <time>2014-09-02T12:49:17Z</time>
      </trkpt>
      <trkpt lat="47.35726" lon="-1.12424">
        <ele>2.296875</ele>
        <time>2014-09-02T12:49:20Z</time>
      </trkpt>
      <trkpt lat="47.35717" lon="-1.12429">
        <ele>2.5</ele>
        <time>2014-09-02T12:49:23Z</time>
      </trkpt>
      <trkpt lat="47.35706" lon="-1.12429">
        <ele>2.898438</ele>
        <time>2014-09-02T12:49:26Z</time>
      </trkpt>
      <trkpt lat="47.35698" lon="-1.1244">
        <ele>3.296875</ele>
        <time>2014-09-02T12:49:29Z</time>
      </trkpt>
      <trkpt lat="47.35691" lon="-1.12456">
        <ele>3.398438</ele>
        <time>2014-09-02T12:49:32Z</time>
      </trkpt>
      <trkpt lat="47.35686" lon="-1.1247">
        <ele>4.296875</ele>
        <time>2014-09-02T12:49:34Z</time>
      </trkpt>
      <trkpt lat="47.35671" lon="-1.12508">
        <ele>5.398438</ele>
        <time>2014-09-02T12:49:40Z</time>
      </trkpt>
      <trkpt lat="47.35667" lon="-1.12522">
        <ele>5.699219</ele>
        <time>2014-09-02T12:49:42Z</time>
      </trkpt>
      <trkpt lat="47.3565" lon="-1.12577">
        <ele>6.796875</ele>
        <time>2014-09-02T12:49:50Z</time>
      </trkpt>
      <trkpt lat="47.35646" lon="-1.12591">
        <ele>6.296875</ele>
        <time>2014-09-02T12:49:52Z</time>
      </trkpt>
      <trkpt lat="47.35627" lon="-1.12685">
        <ele>6.097656</ele>
        <time>2014-09-02T12:50:04Z</time>
      </trkpt>
      <trkpt lat="47.35619" lon="-1.12733">
        <ele>6.796875</ele>
        <time>2014-09-02T12:50:10Z</time>
      </trkpt>
      <trkpt lat="47.35617" lon="-1.1275">
        <ele>6.5</ele>
        <time>2014-09-02T12:50:12Z</time>
      </trkpt>
      <trkpt lat="47.35618" lon="-1.12766">
        <ele>5.699219</ele>
        <time>2014-09-02T12:50:14Z</time>
      </trkpt>
      <trkpt lat="47.35622" lon="-1.12781">
        <ele>5.398438</ele>
        <time>2014-09-02T12:50:16Z</time>
      </trkpt>
      <trkpt lat="47.35627" lon="-1.12794">
        <ele>5.398438</ele>
        <time>2014-09-02T12:50:18Z</time>
      </trkpt>
      <trkpt lat="47.35633" lon="-1.12806">
        <ele>5.296875</ele>
        <time>2014-09-02T12:50:20Z</time>
      </trkpt>
      <trkpt lat="47.35631" lon="-1.12821">
        <ele>5.398438</ele>
        <time>2014-09-02T12:50:22Z</time>
      </trkpt>
      <trkpt lat="47.35628" lon="-1.12834">
        <ele>5.398438</ele>
        <time>2014-09-02T12:50:24Z</time>
      </trkpt>
      <trkpt lat="47.3561" lon="-1.12903">
        <ele>4.398438</ele>
        <time>2014-09-02T12:50:34Z</time>
      </trkpt>
      <trkpt lat="47.35607" lon="-1.12918">
        <ele>3.796875</ele>
        <time>2014-09-02T12:50:36Z</time>
      </trkpt>
      <trkpt lat="47.35605" lon="-1.12932">
        <ele>3</ele>
        <time>2014-09-02T12:50:38Z</time>
      </trkpt>
      <trkpt lat="47.35601" lon="-1.12946">
        <ele>2.597656</ele>
        <time>2014-09-02T12:50:40Z</time>
      </trkpt>
      <trkpt lat="47.35596" lon="-1.1296">
        <ele>2.898438</ele>
        <time>2014-09-02T12:50:42Z</time>
      </trkpt>
      <trkpt lat="47.35591" lon="-1.12975">
        <ele>3.296875</ele>
        <time>2014-09-02T12:50:44Z</time>
      </trkpt>
      <trkpt lat="47.35588" lon="-1.12991">
        <ele>3.398438</ele>
        <time>2014-09-02T12:50:46Z</time>
      </trkpt>
      <trkpt lat="47.35578" lon="-1.13038">
        <ele>3.796875</ele>
        <time>2014-09-02T12:50:52Z</time>
      </trkpt>
      <trkpt lat="47.35508" lon="-1.13316">
        <ele>4.898438</ele>
        <time>2014-09-02T12:51:28Z</time>
      </trkpt>
      <trkpt lat="47.35498" lon="-1.13345">
        <ele>4.898438</ele>
        <time>2014-09-02T12:51:32Z</time>
      </trkpt>
      <trkpt lat="47.35492" lon="-1.13359">
        <ele>5.097656</ele>
        <time>2014-09-02T12:51:34Z</time>
      </trkpt>
      <trkpt lat="47.35469" lon="-1.13413">
        <ele>5.597656</ele>
        <time>2014-09-02T12:51:42Z</time>
      </trkpt>
      <trkpt lat="47.35464" lon="-1.13428">
        <ele>5.097656</ele>
        <time>2014-09-02T12:51:44Z</time>
      </trkpt>
      <trkpt lat="47.35445" lon="-1.13485">
        <ele>5.699219</ele>
        <time>2014-09-02T12:51:52Z</time>
      </trkpt>
      <trkpt lat="47.35438" lon="-1.13496">
        <ele>6</ele>
        <time>2014-09-02T12:51:54Z</time>
      </trkpt>
      <trkpt lat="47.35429" lon="-1.13504">
        <ele>5.5</ele>
        <time>2014-09-02T12:51:56Z</time>
      </trkpt>
      <trkpt lat="47.35422" lon="-1.13514">
        <ele>5.296875</ele>
        <time>2014-09-02T12:51:58Z</time>
      </trkpt>
      <trkpt lat="47.35416" lon="-1.13524">
        <ele>5</ele>
        <time>2014-09-02T12:52:00Z</time>
      </trkpt>
      <trkpt lat="47.35392" lon="-1.13567">
        <ele>4</ele>
        <time>2014-09-02T12:52:08Z</time>
      </trkpt>
      <trkpt lat="47.35386" lon="-1.13581">
        <ele>4.199219</ele>
        <time>2014-09-02T12:52:10Z</time>
      </trkpt>
      <trkpt lat="47.35382" lon="-1.13595">
        <ele>4.296875</ele>
        <time>2014-09-02T12:52:12Z</time>
      </trkpt>
      <trkpt lat="47.35369" lon="-1.13639">
        <ele>4</ele>
        <time>2014-09-02T12:52:18Z</time>
      </trkpt>
      <trkpt lat="47.35366" lon="-1.13654">
        <ele>3.898438</ele>
        <time>2014-09-02T12:52:20Z</time>
      </trkpt>
      <trkpt lat="47.35364" lon="-1.13669">
        <ele>4</ele>
        <time>2014-09-02T12:52:22Z</time>
      </trkpt>
      <trkpt lat="47.35348" lon="-1.13776">
        <ele>3.199219</ele>
        <time>2014-09-02T12:52:36Z</time>
      </trkpt>
      <trkpt lat="47.35342" lon="-1.13836">
        <ele>1.898438</ele>
        <time>2014-09-02T12:52:44Z</time>
      </trkpt>
      <trkpt lat="47.35338" lon="-1.13852">
        <ele>2</ele>
        <time>2014-09-02T12:52:46Z</time>
      </trkpt>
      <trkpt lat="47.35298" lon="-1.14006">
        <ele>1.296875</ele>
        <time>2014-09-02T12:53:06Z</time>
      </trkpt>
      <trkpt lat="47.35266" lon="-1.14126">
        <ele>0.699219</ele>
        <time>2014-09-02T12:53:22Z</time>
      </trkpt>
      <trkpt lat="47.35263" lon="-1.14141">
        <ele>0.796875</ele>
        <time>2014-09-02T12:53:24Z</time>
      </trkpt>
      <trkpt lat="47.35261" lon="-1.14157">
        <ele>0.796875</ele>
        <time>2014-09-02T12:53:26Z</time>
      </trkpt>
      <trkpt lat="47.35258" lon="-1.14205">
        <ele>1.699219</ele>
        <time>2014-09-02T12:53:32Z</time>
      </trkpt>
      <trkpt lat="47.35255" lon="-1.14283">
        <ele>4.898438</ele>
        <time>2014-09-02T12:53:42Z</time>
      </trkpt>
      <trkpt lat="47.35251" lon="-1.14315">
        <ele>5.5</ele>
        <time>2014-09-02T12:53:46Z</time>
      </trkpt>
      <trkpt lat="47.3525" lon="-1.14332">
        <ele>5.597656</ele>
        <time>2014-09-02T12:53:48Z</time>
      </trkpt>
      <trkpt lat="47.35251" lon="-1.14347">
        <ele>6</ele>
        <time>2014-09-02T12:53:50Z</time>
      </trkpt>
      <trkpt lat="47.35256" lon="-1.14362">
        <ele>6.5</ele>
        <time>2014-09-02T12:53:52Z</time>
      </trkpt>
      <trkpt lat="47.35261" lon="-1.14376">
        <ele>6.597656</ele>
        <time>2014-09-02T12:53:54Z</time>
      </trkpt>
      <trkpt lat="47.35265" lon="-1.14391">
        <ele>6.796875</ele>
        <time>2014-09-02T12:53:56Z</time>
      </trkpt>
      <trkpt lat="47.35268" lon="-1.14407">
        <ele>7</ele>
        <time>2014-09-02T12:53:58Z</time>
      </trkpt>
      <trkpt lat="47.35271" lon="-1.14422">
        <ele>7.199219</ele>
        <time>2014-09-02T12:54:00Z</time>
      </trkpt>
      <trkpt lat="47.35272" lon="-1.14438">
        <ele>7.5</ele>
        <time>2014-09-02T12:54:02Z</time>
      </trkpt>
      <trkpt lat="47.35272" lon="-1.14453">
        <ele>7.699219</ele>
        <time>2014-09-02T12:54:04Z</time>
      </trkpt>
      <trkpt lat="47.35271" lon="-1.14469">
        <ele>7.796875</ele>
        <time>2014-09-02T12:54:06Z</time>
      </trkpt>
      <trkpt lat="47.35261" lon="-1.14549">
        <ele>8.5</ele>
        <time>2014-09-02T12:54:16Z</time>
      </trkpt>
      <trkpt lat="47.35257" lon="-1.14565">
        <ele>8</ele>
        <time>2014-09-02T12:54:18Z</time>
      </trkpt>
      <trkpt lat="47.35252" lon="-1.14581">
        <ele>7.296875</ele>
        <time>2014-09-02T12:54:20Z</time>
      </trkpt>
      <trkpt lat="47.35246" lon="-1.14594">
        <ele>6.796875</ele>
        <time>2014-09-02T12:54:22Z</time>
      </trkpt>
      <trkpt lat="47.35226" lon="-1.14634">
        <ele>5.398438</ele>
        <time>2014-09-02T12:54:28Z</time>
      </trkpt>
      <trkpt lat="47.3522" lon="-1.14649">
        <ele>5.5</ele>
        <time>2014-09-02T12:54:30Z</time>
      </trkpt>
      <trkpt lat="47.35216" lon="-1.14664">
        <ele>5.898438</ele>
        <time>2014-09-02T12:54:32Z</time>
      </trkpt>
      <trkpt lat="47.35212" lon="-1.1468">
        <ele>6.097656</ele>
        <time>2014-09-02T12:54:34Z</time>
      </trkpt>
      <trkpt lat="47.35199" lon="-1.14757">
        <ele>6.796875</ele>
        <time>2014-09-02T12:54:44Z</time>
      </trkpt>
      <trkpt lat="47.35197" lon="-1.14773">
        <ele>7</ele>
        <time>2014-09-02T12:54:46Z</time>
      </trkpt>
      <trkpt lat="47.35189" lon="-1.1492">
        <ele>8</ele>
        <time>2014-09-02T12:55:07Z</time>
      </trkpt>
      <trkpt lat="47.3519" lon="-1.14935">
        <ele>8.199219</ele>
        <time>2014-09-02T12:55:09Z</time>
      </trkpt>
      <trkpt lat="47.35191" lon="-1.1495">
        <ele>8.5</ele>
        <time>2014-09-02T12:55:11Z</time>
      </trkpt>
      <trkpt lat="47.35194" lon="-1.14964">
        <ele>8.699219</ele>
        <time>2014-09-02T12:55:13Z</time>
      </trkpt>
      <trkpt lat="47.35199" lon="-1.14978">
        <ele>8.796875</ele>
        <time>2014-09-02T12:55:15Z</time>
      </trkpt>
      <trkpt lat="47.35206" lon="-1.1499">
        <ele>9</ele>
        <time>2014-09-02T12:55:17Z</time>
      </trkpt>
      <trkpt lat="47.35212" lon="-1.15001">
        <ele>8.398438</ele>
        <time>2014-09-02T12:55:19Z</time>
      </trkpt>
      <trkpt lat="47.3522" lon="-1.15011">
        <ele>7.699219</ele>
        <time>2014-09-02T12:55:21Z</time>
      </trkpt>
      <trkpt lat="47.35227" lon="-1.1502">
        <ele>6.597656</ele>
        <time>2014-09-02T12:55:23Z</time>
      </trkpt>
      <trkpt lat="47.3525" lon="-1.15048">
        <ele>1</ele>
        <time>2014-09-02T12:55:29Z</time>
      </trkpt>
      <trkpt lat="47.35256" lon="-1.15059">
        <ele>-0.5</ele>
        <time>2014-09-02T12:55:31Z</time>
      </trkpt>
      <trkpt lat="47.35294" lon="-1.15134">
        <ele>-2.296875</ele>
        <time>2014-09-02T12:55:43Z</time>
      </trkpt>
      <trkpt lat="47.353" lon="-1.15147">
        <ele>-2.097656</ele>
        <time>2014-09-02T12:55:45Z</time>
      </trkpt>
      <trkpt lat="47.35305" lon="-1.15161">
        <ele>-1.597656</ele>
        <time>2014-09-02T12:55:47Z</time>
      </trkpt>
      <trkpt lat="47.35309" lon="-1.15177">
        <ele>-0.898438</ele>
        <time>2014-09-02T12:55:49Z</time>
      </trkpt>
      <trkpt lat="47.35312" lon="-1.15193">
        <ele>-0.097656</ele>
        <time>2014-09-02T12:55:51Z</time>
      </trkpt>
      <trkpt lat="47.35313" lon="-1.1521">
        <ele>0.5</ele>
        <time>2014-09-02T12:55:53Z</time>
      </trkpt>
      <trkpt lat="47.35315" lon="-1.15226">
        <ele>1</ele>
        <time>2014-09-02T12:55:55Z</time>
      </trkpt>
      <trkpt lat="47.35315" lon="-1.15242">
        <ele>1.398438</ele>
        <time>2014-09-02T12:55:57Z</time>
      </trkpt>
      <trkpt lat="47.35314" lon="-1.15258">
        <ele>1.699219</ele>
        <time>2014-09-02T12:55:59Z</time>
      </trkpt>
      <trkpt lat="47.35312" lon="-1.15307">
        <ele>2.199219</ele>
        <time>2014-09-02T12:56:05Z</time>
      </trkpt>
      <trkpt lat="47.3531" lon="-1.15323">
        <ele>2.398438</ele>
        <time>2014-09-02T12:56:07Z</time>
      </trkpt>
      <trkpt lat="47.35305" lon="-1.15356">
        <ele>3</ele>
        <time>2014-09-02T12:56:11Z</time>
      </trkpt>
      <trkpt lat="47.35295" lon="-1.15418">
        <ele>4.5</ele>
        <time>2014-09-02T12:56:19Z</time>
      </trkpt>
      <trkpt lat="47.35296" lon="-1.15434">
        <ele>4.699219</ele>
        <time>2014-09-02T12:56:21Z</time>
      </trkpt>
      <trkpt lat="47.35297" lon="-1.1545">
        <ele>5</ele>
        <time>2014-09-02T12:56:23Z</time>
      </trkpt>
      <trkpt lat="47.35298" lon="-1.15466">
        <ele>5.296875</ele>
        <time>2014-09-02T12:56:25Z</time>
      </trkpt>
      <trkpt lat="47.35313" lon="-1.15575">
        <ele>4.699219</ele>
        <time>2014-09-02T12:56:39Z</time>
      </trkpt>
      <trkpt lat="47.35316" lon="-1.15591">
        <ele>5.699219</ele>
        <time>2014-09-02T12:56:41Z</time>
      </trkpt>
      <trkpt lat="47.3532" lon="-1.15606">
        <ele>6.5</ele>
        <time>2014-09-02T12:56:43Z</time>
      </trkpt>
      <trkpt lat="47.35325" lon="-1.1562">
        <ele>7.097656</ele>
        <time>2014-09-02T12:56:45Z</time>
      </trkpt>
      <trkpt lat="47.35341" lon="-1.15659">
        <ele>6</ele>
        <time>2014-09-02T12:56:51Z</time>
      </trkpt>
      <trkpt lat="47.35351" lon="-1.1567">
        <ele>5.296875</ele>
        <time>2014-09-02T12:56:54Z</time>
      </trkpt>
      <trkpt lat="47.35363" lon="-1.15667">
        <ele>5.296875</ele>
        <time>2014-09-02T12:56:57Z</time>
      </trkpt>
      <trkpt lat="47.35372" lon="-1.15665">
        <ele>5.5</ele>
        <time>2014-09-02T12:56:59Z</time>
      </trkpt>
      <trkpt lat="47.35403" lon="-1.15655">
        <ele>6.097656</ele>
        <time>2014-09-02T12:57:05Z</time>
      </trkpt>
      <trkpt lat="47.35414" lon="-1.15654">
        <ele>6</ele>
        <time>2014-09-02T12:57:07Z</time>
      </trkpt>
      <trkpt lat="47.35446" lon="-1.15653">
        <ele>4.5</ele>
        <time>2014-09-02T12:57:13Z</time>
      </trkpt>
      <trkpt lat="47.35455" lon="-1.15654">
        <ele>4</ele>
        <time>2014-09-02T12:57:15Z</time>
      </trkpt>
      <trkpt lat="47.35465" lon="-1.15657">
        <ele>3.796875</ele>
        <time>2014-09-02T12:57:17Z</time>
      </trkpt>
      <trkpt lat="47.35475" lon="-1.15661">
        <ele>3.597656</ele>
        <time>2014-09-02T12:57:19Z</time>
      </trkpt>
      <trkpt lat="47.35485" lon="-1.15666">
        <ele>3.097656</ele>
        <time>2014-09-02T12:57:21Z</time>
      </trkpt>
      <trkpt lat="47.35493" lon="-1.15673">
        <ele>3.097656</ele>
        <time>2014-09-02T12:57:23Z</time>
      </trkpt>
      <trkpt lat="47.35502" lon="-1.15682">
        <ele>3.796875</ele>
        <time>2014-09-02T12:57:25Z</time>
      </trkpt>
      <trkpt lat="47.3551" lon="-1.15691">
        <ele>3.597656</ele>
        <time>2014-09-02T12:57:27Z</time>
      </trkpt>
      <trkpt lat="47.35517" lon="-1.15702">
        <ele>3.199219</ele>
        <time>2014-09-02T12:57:29Z</time>
      </trkpt>
      <trkpt lat="47.35585" lon="-1.15818">
        <ele>6.796875</ele>
        <time>2014-09-02T12:57:49Z</time>
      </trkpt>
      <trkpt lat="47.35609" lon="-1.15854">
        <ele>7.097656</ele>
        <time>2014-09-02T12:57:55Z</time>
      </trkpt>
      <trkpt lat="47.35616" lon="-1.15868">
        <ele>7.898438</ele>
        <time>2014-09-02T12:57:57Z</time>
      </trkpt>
      <trkpt lat="47.35651" lon="-1.15935">
        <ele>10.097656</ele>
        <time>2014-09-02T12:58:07Z</time>
      </trkpt>
      <trkpt lat="47.35657" lon="-1.1595">
        <ele>10.5</ele>
        <time>2014-09-02T12:58:09Z</time>
      </trkpt>
      <trkpt lat="47.35659" lon="-1.15966">
        <ele>10.796875</ele>
        <time>2014-09-02T12:58:11Z</time>
      </trkpt>
      <trkpt lat="47.35659" lon="-1.15982">
        <ele>11.097656</ele>
        <time>2014-09-02T12:58:13Z</time>
      </trkpt>
      <trkpt lat="47.35656" lon="-1.16044">
        <ele>11.796875</ele>
        <time>2014-09-02T12:58:21Z</time>
      </trkpt>
      <trkpt lat="47.35655" lon="-1.16075">
        <ele>12.097656</ele>
        <time>2014-09-02T12:58:25Z</time>
      </trkpt>
      <trkpt lat="47.35653" lon="-1.1609">
        <ele>12.296875</ele>
        <time>2014-09-02T12:58:27Z</time>
      </trkpt>
      <trkpt lat="47.3565" lon="-1.16104">
        <ele>12.296875</ele>
        <time>2014-09-02T12:58:29Z</time>
      </trkpt>
      <trkpt lat="47.35647" lon="-1.16119">
        <ele>12.296875</ele>
        <time>2014-09-02T12:58:31Z</time>
      </trkpt>
      <trkpt lat="47.35641" lon="-1.1615">
        <ele>12.199219</ele>
        <time>2014-09-02T12:58:35Z</time>
      </trkpt>
      <trkpt lat="47.35637" lon="-1.16181">
        <ele>12.296875</ele>
        <time>2014-09-02T12:58:39Z</time>
      </trkpt>
      <trkpt lat="47.35632" lon="-1.16244">
        <ele>12.199219</ele>
        <time>2014-09-02T12:58:47Z</time>
      </trkpt>
      <trkpt lat="47.35633" lon="-1.16259">
        <ele>12</ele>
        <time>2014-09-02T12:58:49Z</time>
      </trkpt>
      <trkpt lat="47.35638" lon="-1.16412">
        <ele>11.5</ele>
        <time>2014-09-02T12:59:09Z</time>
      </trkpt>
      <trkpt lat="47.35634" lon="-1.16476">
        <ele>11.796875</ele>
        <time>2014-09-02T12:59:17Z</time>
      </trkpt>
      <trkpt lat="47.35635" lon="-1.16492">
        <ele>11.898438</ele>
        <time>2014-09-02T12:59:19Z</time>
      </trkpt>
      <trkpt lat="47.35636" lon="-1.16508">
        <ele>12</ele>
        <time>2014-09-02T12:59:21Z</time>
      </trkpt>
      <trkpt lat="47.35638" lon="-1.16525">
        <ele>12.097656</ele>
        <time>2014-09-02T12:59:23Z</time>
      </trkpt>
      <trkpt lat="47.3564" lon="-1.16541">
        <ele>12.199219</ele>
        <time>2014-09-02T12:59:25Z</time>
      </trkpt>
      <trkpt lat="47.35661" lon="-1.16711">
        <ele>13.398438</ele>
        <time>2014-09-02T12:59:47Z</time>
      </trkpt>
      <trkpt lat="47.35661" lon="-1.16726">
        <ele>13.597656</ele>
        <time>2014-09-02T12:59:49Z</time>
      </trkpt>
      <trkpt lat="47.3566" lon="-1.1674">
        <ele>13.796875</ele>
        <time>2014-09-02T12:59:51Z</time>
      </trkpt>
      <trkpt lat="47.35658" lon="-1.16755">
        <ele>13.898438</ele>
        <time>2014-09-02T12:59:53Z</time>
      </trkpt>
      <trkpt lat="47.35653" lon="-1.16785">
        <ele>14.097656</ele>
        <time>2014-09-02T12:59:57Z</time>
      </trkpt>
      <trkpt lat="47.35644" lon="-1.1683">
        <ele>14.199219</ele>
        <time>2014-09-02T13:00:03Z</time>
      </trkpt>
      <trkpt lat="47.35643" lon="-1.16845">
        <ele>14</ele>
        <time>2014-09-02T13:00:05Z</time>
      </trkpt>
      <trkpt lat="47.35636" lon="-1.16907">
        <ele>13.5</ele>
        <time>2014-09-02T13:00:13Z</time>
      </trkpt>
      <trkpt lat="47.35636" lon="-1.16923">
        <ele>13.398438</ele>
        <time>2014-09-02T13:00:15Z</time>
      </trkpt>
      <trkpt lat="47.35636" lon="-1.16939">
        <ele>13.398438</ele>
        <time>2014-09-02T13:00:17Z</time>
      </trkpt>
      <trkpt lat="47.35637" lon="-1.16955">
        <ele>13.5</ele>
        <time>2014-09-02T13:00:19Z</time>
      </trkpt>
      <trkpt lat="47.3564" lon="-1.1697">
        <ele>13.597656</ele>
        <time>2014-09-02T13:00:21Z</time>
      </trkpt>
      <trkpt lat="47.35644" lon="-1.16984">
        <ele>13.699219</ele>
        <time>2014-09-02T13:00:23Z</time>
      </trkpt>
      <trkpt lat="47.3565" lon="-1.16997">
        <ele>13.898438</ele>
        <time>2014-09-02T13:00:25Z</time>
      </trkpt>
      <trkpt lat="47.35708" lon="-1.17122">
        <ele>16.398438</ele>
        <time>2014-09-02T13:00:45Z</time>
      </trkpt>
      <trkpt lat="47.35715" lon="-1.17132">
        <ele>16.5</ele>
        <time>2014-09-02T13:00:47Z</time>
      </trkpt>
      <trkpt lat="47.35722" lon="-1.17143">
        <ele>16.796875</ele>
        <time>2014-09-02T13:00:49Z</time>
      </trkpt>
      <trkpt lat="47.35738" lon="-1.1716">
        <ele>17.097656</ele>
        <time>2014-09-02T13:00:53Z</time>
      </trkpt>
      <trkpt lat="47.35744" lon="-1.17171">
        <ele>16.898438</ele>
        <time>2014-09-02T13:00:55Z</time>
      </trkpt>
      <trkpt lat="47.3575" lon="-1.17184">
        <ele>16.398438</ele>
        <time>2014-09-02T13:00:57Z</time>
      </trkpt>
      <trkpt lat="47.35761" lon="-1.17214">
        <ele>15</ele>
        <time>2014-09-02T13:01:01Z</time>
      </trkpt>
      <trkpt lat="47.3579" lon="-1.17299">
        <ele>13</ele>
        <time>2014-09-02T13:01:13Z</time>
      </trkpt>
      <trkpt lat="47.35793" lon="-1.17316">
        <ele>13.296875</ele>
        <time>2014-09-02T13:01:16Z</time>
      </trkpt>
      <trkpt lat="47.35789" lon="-1.17333">
        <ele>13.5</ele>
        <time>2014-09-02T13:01:19Z</time>
      </trkpt>
      <trkpt lat="47.35781" lon="-1.17349">
        <ele>13.699219</ele>
        <time>2014-09-02T13:01:22Z</time>
      </trkpt>
      <trkpt lat="47.3577" lon="-1.17371">
        <ele>14.296875</ele>
        <time>2014-09-02T13:01:26Z</time>
      </trkpt>
      <trkpt lat="47.35766" lon="-1.17383">
        <ele>14.898438</ele>
        <time>2014-09-02T13:01:28Z</time>
      </trkpt>
      <trkpt lat="47.35762" lon="-1.17397">
        <ele>15.398438</ele>
        <time>2014-09-02T13:01:31Z</time>
      </trkpt>
      <trkpt lat="47.35764" lon="-1.1741">
        <ele>15.597656</ele>
        <time>2014-09-02T13:01:42Z</time>
      </trkpt>
      <trkpt lat="47.35774" lon="-1.17421">
        <ele>15.597656</ele>
        <time>2014-09-02T13:01:46Z</time>
      </trkpt>
      <trkpt lat="47.35786" lon="-1.17426">
        <ele>15.398438</ele>
        <time>2014-09-02T13:01:49Z</time>
      </trkpt>
      <trkpt lat="47.35904" lon="-1.17484">
        <ele>10.296875</ele>
        <time>2014-09-02T13:02:14Z</time>
      </trkpt>
      <trkpt lat="47.36087" lon="-1.17566">
        <ele>18.398438</ele>
        <time>2014-09-02T13:02:52Z</time>
      </trkpt>
      <trkpt lat="47.36353" lon="-1.17708">
        <ele>15.699219</ele>
        <time>2014-09-02T13:03:47Z</time>
      </trkpt>
      <trkpt lat="47.36361" lon="-1.17701">
        <ele>14.597656</ele>
        <time>2014-09-02T13:03:54Z</time>
      </trkpt>
      <trkpt lat="47.36368" lon="-1.17693">
        <ele>14</ele>
        <time>2014-09-02T13:04:09Z</time>
      </trkpt>
      <trkpt lat="47.36562" lon="-1.17459">
        <ele>9.296875</ele>
        <time>2014-09-02T13:05:12Z</time>
      </trkpt>
      <trkpt lat="47.36572" lon="-1.17451">
        <ele>9.199219</ele>
        <time>2014-09-02T13:05:14Z</time>
      </trkpt>
      <trkpt lat="47.36611" lon="-1.17424">
        <ele>9.597656</ele>
        <time>2014-09-02T13:05:23Z</time>
      </trkpt>
      <trkpt lat="47.36623" lon="-1.17418">
        <ele>9.796875</ele>
        <time>2014-09-02T13:05:26Z</time>
      </trkpt>
      <trkpt lat="47.36634" lon="-1.17414">
        <ele>10.097656</ele>
        <time>2014-09-02T13:05:29Z</time>
      </trkpt>
      <trkpt lat="47.36644" lon="-1.17411">
        <ele>10.398438</ele>
        <time>2014-09-02T13:05:32Z</time>
      </trkpt>
      <trkpt lat="47.36656" lon="-1.17409">
        <ele>10.5</ele>
        <time>2014-09-02T13:05:35Z</time>
      </trkpt>
      <trkpt lat="47.36666" lon="-1.17403">
        <ele>10.699219</ele>
        <time>2014-09-02T13:05:38Z</time>
      </trkpt>
      <trkpt lat="47.36674" lon="-1.17393">
        <ele>10.699219</ele>
        <time>2014-09-02T13:05:41Z</time>
      </trkpt>
      <trkpt lat="47.36685" lon="-1.1739">
        <ele>10.5</ele>
        <time>2014-09-02T13:05:44Z</time>
      </trkpt>
      <trkpt lat="47.36694" lon="-1.17404">
        <ele>10.398438</ele>
        <time>2014-09-02T13:05:47Z</time>
      </trkpt>
      <trkpt lat="47.36695" lon="-1.17423">
        <ele>10.199219</ele>
        <time>2014-09-02T13:05:50Z</time>
      </trkpt>
      <trkpt lat="47.36701" lon="-1.17438">
        <ele>9.796875</ele>
        <time>2014-09-02T13:05:53Z</time>
      </trkpt>
      <trkpt lat="47.36712" lon="-1.17447">
        <ele>9.699219</ele>
        <time>2014-09-02T13:05:56Z</time>
      </trkpt>
      <trkpt lat="47.36775" lon="-1.17494">
        <ele>10.5</ele>
        <time>2014-09-02T13:06:11Z</time>
      </trkpt>
      <trkpt lat="47.36783" lon="-1.17503">
        <ele>10.597656</ele>
        <time>2014-09-02T13:06:13Z</time>
      </trkpt>
      <trkpt lat="47.36791" lon="-1.17514">
        <ele>10.597656</ele>
        <time>2014-09-02T13:06:15Z</time>
      </trkpt>
      <trkpt lat="47.36798" lon="-1.17525">
        <ele>10.597656</ele>
        <time>2014-09-02T13:06:17Z</time>
      </trkpt>
      <trkpt lat="47.36803" lon="-1.17538">
        <ele>10.699219</ele>
        <time>2014-09-02T13:06:19Z</time>
      </trkpt>
      <trkpt lat="47.36808" lon="-1.17552">
        <ele>10.699219</ele>
        <time>2014-09-02T13:06:21Z</time>
      </trkpt>
      <trkpt lat="47.36813" lon="-1.17566">
        <ele>10.597656</ele>
        <time>2014-09-02T13:06:23Z</time>
      </trkpt>
      <trkpt lat="47.36832" lon="-1.1764">
        <ele>10.5</ele>
        <time>2014-09-02T13:06:33Z</time>
      </trkpt>
      <trkpt lat="47.36837" lon="-1.17654">
        <ele>10.398438</ele>
        <time>2014-09-02T13:06:35Z</time>
      </trkpt>
      <trkpt lat="47.36843" lon="-1.17665">
        <ele>10.597656</ele>
        <time>2014-09-02T13:06:37Z</time>
      </trkpt>
      <trkpt lat="47.36852" lon="-1.17673">
        <ele>10.898438</ele>
        <time>2014-09-02T13:06:39Z</time>
      </trkpt>
      <trkpt lat="47.36861" lon="-1.17679">
        <ele>11.097656</ele>
        <time>2014-09-02T13:06:41Z</time>
      </trkpt>
      <trkpt lat="47.36907" lon="-1.17704">
        <ele>12.199219</ele>
        <time>2014-09-02T13:06:51Z</time>
      </trkpt>
      <trkpt lat="47.36918" lon="-1.17712">
        <ele>12.5</ele>
        <time>2014-09-02T13:06:54Z</time>
      </trkpt>
      <trkpt lat="47.36937" lon="-1.17728">
        <ele>13</ele>
        <time>2014-09-02T13:07:01Z</time>
      </trkpt>
      <trkpt lat="47.36938" lon="-1.17745">
        <ele>15.398438</ele>
        <time>2014-09-02T13:07:05Z</time>
      </trkpt>
      <trkpt lat="47.36932" lon="-1.17758">
        <ele>27.210938</ele>
        <time>2014-09-02T13:07:54Z</time>
      </trkpt>
    </trkseg>
  </trk>
</gpx>